<?xml version="1.0" encoding="UTF-8" standalone="yes"?>
<gpx
 xmlns="http://www.topografix.com/GPX/1/1"
 creator="OziExplorer Version 3956f - http://www.oziexplorer.com"
 version="1.1"
 xmlns:xsi="http://www.w3.org/2001/XMLSchema-instance"
 xsi:schemaLocation="http://www.topografix.com/GPX/1/1 http://www.topografix.com/GPX/1/1/gpx.xsd">
<metadata>
 <time>2021-04-13T12:01:20Z</time>
 <bounds minlat="31.732990" minlon="35.127760" maxlat="31.807840" maxlon="35.234420"/>
</metadata>
<trk>
 <name>SovevJerusalem_40km.850m</name>
 <desc>SovevJerusalem_40km.850m</desc>
<trkseg>
<trkpt lat="31.8004900" lon="35.1900000">
<ele>593.470032</ele>
<time>2021-04-13T14:59:59.729Z</time>
</trkpt>
<trkpt lat="31.8006500" lon="35.1898600">
<ele>593.000000</ele>
<time>2021-04-13T14:59:59.729Z</time>
</trkpt>
<trkpt lat="31.8006800" lon="35.1898100">
<ele>592.840027</ele>
<time>2021-04-13T14:59:59.729Z</time>
</trkpt>
<trkpt lat="31.8008000" lon="35.1898900">
<ele>593.179993</ele>
<time>2021-04-13T14:59:59.729Z</time>
</trkpt>
<trkpt lat="31.8009000" lon="35.1899500">
<ele>594.119995</ele>
<time>2021-04-13T14:59:59.729Z</time>
</trkpt>
<trkpt lat="31.8011400" lon="35.1901000">
<ele>597.469971</ele>
<time>2021-04-13T14:59:59.729Z</time>
</trkpt>
<trkpt lat="31.8011700" lon="35.1900400">
<ele>597.130005</ele>
<time>2021-04-13T14:59:59.729Z</time>
</trkpt>
<trkpt lat="31.8012000" lon="35.1900600">
<ele>597.750000</ele>
<time>2021-04-13T14:59:59.729Z</time>
</trkpt>
<trkpt lat="31.8014800" lon="35.1894100">
<ele>595.369995</ele>
<time>2021-04-13T14:59:59.729Z</time>
</trkpt>
<trkpt lat="31.8015900" lon="35.1892400">
<ele>594.440002</ele>
<time>2021-04-13T14:59:59.729Z</time>
</trkpt>
<trkpt lat="31.8017800" lon="35.1890500">
<ele>594.210022</ele>
<time>2021-04-13T14:59:59.729Z</time>
</trkpt>
<trkpt lat="31.8024700" lon="35.1885800">
<ele>596.669983</ele>
<time>2021-04-13T14:59:59.729Z</time>
</trkpt>
<trkpt lat="31.8025900" lon="35.1884300">
<ele>595.479980</ele>
<time>2021-04-13T14:59:59.729Z</time>
</trkpt>
<trkpt lat="31.8031100" lon="35.1881200">
<ele>591.779968</ele>
<time>2021-04-13T14:59:59.729Z</time>
</trkpt>
<trkpt lat="31.8035000" lon="35.1877300">
<ele>590.780029</ele>
<time>2021-04-13T14:59:59.729Z</time>
</trkpt>
<trkpt lat="31.8039800" lon="35.1873300">
<ele>585.190002</ele>
<time>2021-04-13T14:59:59.730Z</time>
</trkpt>
<trkpt lat="31.8040300" lon="35.1873000">
<ele>584.830017</ele>
<time>2021-04-13T14:59:59.730Z</time>
</trkpt>
<trkpt lat="31.8040300" lon="35.1873000">
<ele>584.830017</ele>
<time>2021-04-13T14:59:59.730Z</time>
</trkpt>
<trkpt lat="31.8040300" lon="35.1873000">
<ele>584.830017</ele>
<time>2021-04-13T14:59:59.730Z</time>
</trkpt>
<trkpt lat="31.8042700" lon="35.1871600">
<ele>585.440002</ele>
<time>2021-04-13T14:59:59.730Z</time>
</trkpt>
<trkpt lat="31.8044800" lon="35.1870800">
<ele>589.549988</ele>
<time>2021-04-13T14:59:59.730Z</time>
</trkpt>
<trkpt lat="31.8045100" lon="35.1870600">
<ele>589.909973</ele>
<time>2021-04-13T14:59:59.730Z</time>
</trkpt>
<trkpt lat="31.8045600" lon="35.1870000">
<ele>590.400024</ele>
<time>2021-04-13T14:59:59.730Z</time>
</trkpt>
<trkpt lat="31.8046200" lon="35.1868800">
<ele>591.250000</ele>
<time>2021-04-13T14:59:59.730Z</time>
</trkpt>
<trkpt lat="31.8046100" lon="35.1866800">
<ele>591.359985</ele>
<time>2021-04-13T14:59:59.730Z</time>
</trkpt>
<trkpt lat="31.8046200" lon="35.1863800">
<ele>592.440002</ele>
<time>2021-04-13T14:59:59.730Z</time>
</trkpt>
<trkpt lat="31.8046800" lon="35.1858900">
<ele>593.549988</ele>
<time>2021-04-13T14:59:59.730Z</time>
</trkpt>
<trkpt lat="31.8046800" lon="35.1857200">
<ele>592.489990</ele>
<time>2021-04-13T14:59:59.730Z</time>
</trkpt>
<trkpt lat="31.8047200" lon="35.1855800">
<ele>592.140015</ele>
<time>2021-04-13T14:59:59.730Z</time>
</trkpt>
<trkpt lat="31.8047800" lon="35.1853800">
<ele>591.770020</ele>
<time>2021-04-13T14:59:59.730Z</time>
</trkpt>
<trkpt lat="31.8048100" lon="35.1852100">
<ele>591.040039</ele>
<time>2021-04-13T14:59:59.730Z</time>
</trkpt>
<trkpt lat="31.8047900" lon="35.1847400">
<ele>588.500000</ele>
<time>2021-04-13T14:59:59.730Z</time>
</trkpt>
<trkpt lat="31.8048400" lon="35.1842300">
<ele>589.429993</ele>
<time>2021-04-13T14:59:59.730Z</time>
</trkpt>
<trkpt lat="31.8048300" lon="35.1834300">
<ele>582.460022</ele>
<time>2021-04-13T14:59:59.730Z</time>
</trkpt>
<trkpt lat="31.8048700" lon="35.1830900">
<ele>582.590027</ele>
<time>2021-04-13T14:59:59.730Z</time>
</trkpt>
<trkpt lat="31.8049400" lon="35.1827200">
<ele>585.750000</ele>
<time>2021-04-13T14:59:59.731Z</time>
</trkpt>
<trkpt lat="31.8050400" lon="35.1823100">
<ele>588.160034</ele>
<time>2021-04-13T14:59:59.731Z</time>
</trkpt>
<trkpt lat="31.8050400" lon="35.1821700">
<ele>588.510010</ele>
<time>2021-04-13T14:59:59.731Z</time>
</trkpt>
<trkpt lat="31.8049200" lon="35.1818800">
<ele>587.309998</ele>
<time>2021-04-13T14:59:59.731Z</time>
</trkpt>
<trkpt lat="31.8048900" lon="35.1815900">
<ele>588.640015</ele>
<time>2021-04-13T14:59:59.731Z</time>
</trkpt>
<trkpt lat="31.8048200" lon="35.1813000">
<ele>587.369995</ele>
<time>2021-04-13T14:59:59.731Z</time>
</trkpt>
<trkpt lat="31.8047400" lon="35.1811100">
<ele>584.579956</ele>
<time>2021-04-13T14:59:59.731Z</time>
</trkpt>
<trkpt lat="31.8045300" lon="35.1807600">
<ele>584.469971</ele>
<time>2021-04-13T14:59:59.731Z</time>
</trkpt>
<trkpt lat="31.8043800" lon="35.1805900">
<ele>584.049988</ele>
<time>2021-04-13T14:59:59.731Z</time>
</trkpt>
<trkpt lat="31.8043100" lon="35.1803000">
<ele>586.739990</ele>
<time>2021-04-13T14:59:59.731Z</time>
</trkpt>
<trkpt lat="31.8042800" lon="35.1802200">
<ele>587.510010</ele>
<time>2021-04-13T14:59:59.731Z</time>
</trkpt>
<trkpt lat="31.8041900" lon="35.1800900">
<ele>587.530029</ele>
<time>2021-04-13T14:59:59.731Z</time>
</trkpt>
<trkpt lat="31.8040000" lon="35.1798900">
<ele>587.350037</ele>
<time>2021-04-13T14:59:59.731Z</time>
</trkpt>
<trkpt lat="31.8038700" lon="35.1797000">
<ele>586.919983</ele>
<time>2021-04-13T14:59:59.731Z</time>
</trkpt>
<trkpt lat="31.8033900" lon="35.1788400">
<ele>585.919983</ele>
<time>2021-04-13T14:59:59.731Z</time>
</trkpt>
<trkpt lat="31.8033100" lon="35.1786500">
<ele>583.979980</ele>
<time>2021-04-13T14:59:59.731Z</time>
</trkpt>
<trkpt lat="31.8031300" lon="35.1781400">
<ele>582.849976</ele>
<time>2021-04-13T14:59:59.731Z</time>
</trkpt>
<trkpt lat="31.8030500" lon="35.1778600">
<ele>581.190002</ele>
<time>2021-04-13T14:59:59.731Z</time>
</trkpt>
<trkpt lat="31.8030300" lon="35.1776900">
<ele>579.849976</ele>
<time>2021-04-13T14:59:59.731Z</time>
</trkpt>
<trkpt lat="31.8030700" lon="35.1774800">
<ele>579.059998</ele>
<time>2021-04-13T14:59:59.731Z</time>
</trkpt>
<trkpt lat="31.8032400" lon="35.1771600">
<ele>578.619995</ele>
<time>2021-04-13T14:59:59.731Z</time>
</trkpt>
<trkpt lat="31.8032700" lon="35.1770900">
<ele>578.469971</ele>
<time>2021-04-13T14:59:59.731Z</time>
</trkpt>
<trkpt lat="31.8032700" lon="35.1770900">
<ele>578.469971</ele>
<time>2021-04-13T14:59:59.731Z</time>
</trkpt>
<trkpt lat="31.8032700" lon="35.1770900">
<ele>578.469971</ele>
<time>2021-04-13T14:59:59.731Z</time>
</trkpt>
<trkpt lat="31.8032700" lon="35.1770900">
<ele>578.469971</ele>
<time>2021-04-13T14:59:59.731Z</time>
</trkpt>
<trkpt lat="31.8034200" lon="35.1766500">
<ele>579.480042</ele>
<time>2021-04-13T14:59:59.731Z</time>
</trkpt>
<trkpt lat="31.8036700" lon="35.1761300">
<ele>581.559998</ele>
<time>2021-04-13T14:59:59.732Z</time>
</trkpt>
<trkpt lat="31.8038000" lon="35.1757400">
<ele>579.149963</ele>
<time>2021-04-13T14:59:59.732Z</time>
</trkpt>
<trkpt lat="31.8041000" lon="35.1749600">
<ele>571.350037</ele>
<time>2021-04-13T14:59:59.732Z</time>
</trkpt>
<trkpt lat="31.8042400" lon="35.1747100">
<ele>568.919983</ele>
<time>2021-04-13T14:59:59.732Z</time>
</trkpt>
<trkpt lat="31.8044300" lon="35.1744100">
<ele>568.669983</ele>
<time>2021-04-13T14:59:59.732Z</time>
</trkpt>
<trkpt lat="31.8046200" lon="35.1740900">
<ele>571.619995</ele>
<time>2021-04-13T14:59:59.732Z</time>
</trkpt>
<trkpt lat="31.8049500" lon="35.1734300">
<ele>568.450012</ele>
<time>2021-04-13T14:59:59.732Z</time>
</trkpt>
<trkpt lat="31.8049700" lon="35.1733100">
<ele>567.719971</ele>
<time>2021-04-13T14:59:59.732Z</time>
</trkpt>
<trkpt lat="31.8049400" lon="35.1732300">
<ele>567.039978</ele>
<time>2021-04-13T14:59:59.732Z</time>
</trkpt>
<trkpt lat="31.8046900" lon="35.1729900">
<ele>565.119995</ele>
<time>2021-04-13T14:59:59.732Z</time>
</trkpt>
<trkpt lat="31.8046100" lon="35.1729400">
<ele>565.010010</ele>
<time>2021-04-13T14:59:59.732Z</time>
</trkpt>
<trkpt lat="31.8045400" lon="35.1728900">
<ele>564.940002</ele>
<time>2021-04-13T14:59:59.732Z</time>
</trkpt>
<trkpt lat="31.8044000" lon="35.1728600">
<ele>564.609985</ele>
<time>2021-04-13T14:59:59.732Z</time>
</trkpt>
<trkpt lat="31.8041500" lon="35.1728000">
<ele>565.000000</ele>
<time>2021-04-13T14:59:59.732Z</time>
</trkpt>
<trkpt lat="31.8038500" lon="35.1726800">
<ele>569.049988</ele>
<time>2021-04-13T14:59:59.732Z</time>
</trkpt>
<trkpt lat="31.8036500" lon="35.1725600">
<ele>569.669983</ele>
<time>2021-04-13T14:59:59.732Z</time>
</trkpt>
<trkpt lat="31.8031000" lon="35.1720900">
<ele>573.080017</ele>
<time>2021-04-13T14:59:59.732Z</time>
</trkpt>
<trkpt lat="31.8029400" lon="35.1719900">
<ele>573.700012</ele>
<time>2021-04-13T14:59:59.732Z</time>
</trkpt>
<trkpt lat="31.8028900" lon="35.1719700">
<ele>574.080017</ele>
<time>2021-04-13T14:59:59.732Z</time>
</trkpt>
<trkpt lat="31.8027500" lon="35.1719000">
<ele>574.860046</ele>
<time>2021-04-13T14:59:59.732Z</time>
</trkpt>
<trkpt lat="31.8025900" lon="35.1718400">
<ele>573.350037</ele>
<time>2021-04-13T14:59:59.732Z</time>
</trkpt>
<trkpt lat="31.8018900" lon="35.1716600">
<ele>569.580017</ele>
<time>2021-04-13T14:59:59.732Z</time>
</trkpt>
<trkpt lat="31.8015000" lon="35.1715600">
<ele>563.630005</ele>
<time>2021-04-13T14:59:59.733Z</time>
</trkpt>
<trkpt lat="31.8014600" lon="35.1715500">
<ele>562.700012</ele>
<time>2021-04-13T14:59:59.733Z</time>
</trkpt>
<trkpt lat="31.8015000" lon="35.1714100">
<ele>562.549988</ele>
<time>2021-04-13T14:59:59.733Z</time>
</trkpt>
<trkpt lat="31.8015400" lon="35.1713100">
<ele>563.080017</ele>
<time>2021-04-13T14:59:59.733Z</time>
</trkpt>
<trkpt lat="31.8015700" lon="35.1712100">
<ele>563.299988</ele>
<time>2021-04-13T14:59:59.733Z</time>
</trkpt>
<trkpt lat="31.8016000" lon="35.1710600">
<ele>563.700012</ele>
<time>2021-04-13T14:59:59.733Z</time>
</trkpt>
<trkpt lat="31.8015200" lon="35.1709700">
<ele>563.140015</ele>
<time>2021-04-13T14:59:59.733Z</time>
</trkpt>
<trkpt lat="31.8014500" lon="35.1708700">
<ele>562.230042</ele>
<time>2021-04-13T14:59:59.733Z</time>
</trkpt>
<trkpt lat="31.8014400" lon="35.1708400">
<ele>562.090027</ele>
<time>2021-04-13T14:59:59.733Z</time>
</trkpt>
<trkpt lat="31.8014000" lon="35.1707800">
<ele>562.000000</ele>
<time>2021-04-13T14:59:59.733Z</time>
</trkpt>
<trkpt lat="31.8011800" lon="35.1706200">
<ele>564.599976</ele>
<time>2021-04-13T14:59:59.733Z</time>
</trkpt>
<trkpt lat="31.8010400" lon="35.1706200">
<ele>565.159973</ele>
<time>2021-04-13T14:59:59.733Z</time>
</trkpt>
<trkpt lat="31.8010400" lon="35.1706200">
<ele>565.159973</ele>
<time>2021-04-13T14:59:59.733Z</time>
</trkpt>
<trkpt lat="31.8010400" lon="35.1706200">
<ele>565.159973</ele>
<time>2021-04-13T14:59:59.733Z</time>
</trkpt>
<trkpt lat="31.8008900" lon="35.1706200">
<ele>565.989990</ele>
<time>2021-04-13T14:59:59.733Z</time>
</trkpt>
<trkpt lat="31.8007900" lon="35.1705900">
<ele>566.160034</ele>
<time>2021-04-13T14:59:59.733Z</time>
</trkpt>
<trkpt lat="31.8002500" lon="35.1704700">
<ele>563.160034</ele>
<time>2021-04-13T14:59:59.733Z</time>
</trkpt>
<trkpt lat="31.8000500" lon="35.1704000">
<ele>566.260010</ele>
<time>2021-04-13T14:59:59.733Z</time>
</trkpt>
<trkpt lat="31.7996500" lon="35.1701800">
<ele>569.700012</ele>
<time>2021-04-13T14:59:59.733Z</time>
</trkpt>
<trkpt lat="31.7994500" lon="35.1700000">
<ele>570.039978</ele>
<time>2021-04-13T14:59:59.734Z</time>
</trkpt>
<trkpt lat="31.7988300" lon="35.1696500">
<ele>570.729980</ele>
<time>2021-04-13T14:59:59.734Z</time>
</trkpt>
<trkpt lat="31.7987500" lon="35.1695600">
<ele>570.669983</ele>
<time>2021-04-13T14:59:59.734Z</time>
</trkpt>
<trkpt lat="31.7984900" lon="35.1695600">
<ele>569.570007</ele>
<time>2021-04-13T14:59:59.734Z</time>
</trkpt>
<trkpt lat="31.7983400" lon="35.1697700">
<ele>566.500000</ele>
<time>2021-04-13T14:59:59.734Z</time>
</trkpt>
<trkpt lat="31.7982600" lon="35.1698300">
<ele>566.200012</ele>
<time>2021-04-13T14:59:59.734Z</time>
</trkpt>
<trkpt lat="31.7981900" lon="35.1698700">
<ele>566.190002</ele>
<time>2021-04-13T14:59:59.734Z</time>
</trkpt>
<trkpt lat="31.7980500" lon="35.1700100">
<ele>566.089966</ele>
<time>2021-04-13T14:59:59.734Z</time>
</trkpt>
<trkpt lat="31.7979800" lon="35.1700400">
<ele>566.880005</ele>
<time>2021-04-13T14:59:59.734Z</time>
</trkpt>
<trkpt lat="31.7979300" lon="35.1700100">
<ele>567.359985</ele>
<time>2021-04-13T14:59:59.734Z</time>
</trkpt>
<trkpt lat="31.7976400" lon="35.1697100">
<ele>569.089966</ele>
<time>2021-04-13T14:59:59.734Z</time>
</trkpt>
<trkpt lat="31.7975100" lon="35.1695600">
<ele>569.080017</ele>
<time>2021-04-13T14:59:59.734Z</time>
</trkpt>
<trkpt lat="31.7973900" lon="35.1694300">
<ele>568.250000</ele>
<time>2021-04-13T14:59:59.735Z</time>
</trkpt>
<trkpt lat="31.7973000" lon="35.1693700">
<ele>567.520020</ele>
<time>2021-04-13T14:59:59.735Z</time>
</trkpt>
<trkpt lat="31.7973000" lon="35.1693700">
<ele>567.520020</ele>
<time>2021-04-13T14:59:59.735Z</time>
</trkpt>
<trkpt lat="31.7972400" lon="35.1693300">
<ele>566.799988</ele>
<time>2021-04-13T14:59:59.735Z</time>
</trkpt>
<trkpt lat="31.7971000" lon="35.1691800">
<ele>564.390015</ele>
<time>2021-04-13T14:59:59.735Z</time>
</trkpt>
<trkpt lat="31.7970400" lon="35.1690900">
<ele>563.380005</ele>
<time>2021-04-13T14:59:59.735Z</time>
</trkpt>
<trkpt lat="31.7969800" lon="35.1690700">
<ele>562.510010</ele>
<time>2021-04-13T14:59:59.735Z</time>
</trkpt>
<trkpt lat="31.7969100" lon="35.1690500">
<ele>562.090027</ele>
<time>2021-04-13T14:59:59.735Z</time>
</trkpt>
<trkpt lat="31.7967500" lon="35.1689800">
<ele>561.989990</ele>
<time>2021-04-13T14:59:59.735Z</time>
</trkpt>
<trkpt lat="31.7966300" lon="35.1687100">
<ele>559.979980</ele>
<time>2021-04-13T14:59:59.735Z</time>
</trkpt>
<trkpt lat="31.7966300" lon="35.1685900">
<ele>559.230042</ele>
<time>2021-04-13T14:59:59.735Z</time>
</trkpt>
<trkpt lat="31.7966900" lon="35.1684700">
<ele>559.419983</ele>
<time>2021-04-13T14:59:59.735Z</time>
</trkpt>
<trkpt lat="31.7967000" lon="35.1683600">
<ele>559.790039</ele>
<time>2021-04-13T14:59:59.735Z</time>
</trkpt>
<trkpt lat="31.7966800" lon="35.1682600">
<ele>560.369995</ele>
<time>2021-04-13T14:59:59.735Z</time>
</trkpt>
<trkpt lat="31.7965900" lon="35.1681300">
<ele>560.840027</ele>
<time>2021-04-13T14:59:59.735Z</time>
</trkpt>
<trkpt lat="31.7965500" lon="35.1679700">
<ele>561.079956</ele>
<time>2021-04-13T14:59:59.735Z</time>
</trkpt>
<trkpt lat="31.7965000" lon="35.1677900">
<ele>560.380005</ele>
<time>2021-04-13T14:59:59.735Z</time>
</trkpt>
<trkpt lat="31.7963800" lon="35.1674200">
<ele>559.570007</ele>
<time>2021-04-13T14:59:59.735Z</time>
</trkpt>
<trkpt lat="31.7963600" lon="35.1672400">
<ele>560.770020</ele>
<time>2021-04-13T14:59:59.736Z</time>
</trkpt>
<trkpt lat="31.7963100" lon="35.1670100">
<ele>562.029968</ele>
<time>2021-04-13T14:59:59.736Z</time>
</trkpt>
<trkpt lat="31.7963000" lon="35.1668800">
<ele>563.070007</ele>
<time>2021-04-13T14:59:59.736Z</time>
</trkpt>
<trkpt lat="31.7962800" lon="35.1668000">
<ele>563.679993</ele>
<time>2021-04-13T14:59:59.736Z</time>
</trkpt>
<trkpt lat="31.7961500" lon="35.1665600">
<ele>563.960022</ele>
<time>2021-04-13T14:59:59.736Z</time>
</trkpt>
<trkpt lat="31.7960500" lon="35.1663600">
<ele>564.049988</ele>
<time>2021-04-13T14:59:59.736Z</time>
</trkpt>
<trkpt lat="31.7959500" lon="35.1662600">
<ele>562.839966</ele>
<time>2021-04-13T14:59:59.736Z</time>
</trkpt>
<trkpt lat="31.7959500" lon="35.1662600">
<ele>562.839966</ele>
<time>2021-04-13T14:59:59.736Z</time>
</trkpt>
<trkpt lat="31.7959500" lon="35.1662600">
<ele>562.839966</ele>
<time>2021-04-13T14:59:59.736Z</time>
</trkpt>
<trkpt lat="31.7959500" lon="35.1662600">
<ele>562.839966</ele>
<time>2021-04-13T14:59:59.736Z</time>
</trkpt>
<trkpt lat="31.7958900" lon="35.1662000">
<ele>561.859985</ele>
<time>2021-04-13T14:59:59.736Z</time>
</trkpt>
<trkpt lat="31.7955700" lon="35.1660800">
<ele>556.719971</ele>
<time>2021-04-13T14:59:59.736Z</time>
</trkpt>
<trkpt lat="31.7954600" lon="35.1661600">
<ele>555.479980</ele>
<time>2021-04-13T14:59:59.736Z</time>
</trkpt>
<trkpt lat="31.7952700" lon="35.1663900">
<ele>553.989990</ele>
<time>2021-04-13T14:59:59.737Z</time>
</trkpt>
<trkpt lat="31.7950600" lon="35.1666200">
<ele>557.380005</ele>
<time>2021-04-13T14:59:59.737Z</time>
</trkpt>
<trkpt lat="31.7949700" lon="35.1666800">
<ele>558.700012</ele>
<time>2021-04-13T14:59:59.737Z</time>
</trkpt>
<trkpt lat="31.7948200" lon="35.1664900">
<ele>558.239990</ele>
<time>2021-04-13T14:59:59.737Z</time>
</trkpt>
<trkpt lat="31.7945700" lon="35.1663000">
<ele>561.099976</ele>
<time>2021-04-13T14:59:59.737Z</time>
</trkpt>
<trkpt lat="31.7943500" lon="35.1662000">
<ele>561.619995</ele>
<time>2021-04-13T14:59:59.737Z</time>
</trkpt>
<trkpt lat="31.7942500" lon="35.1661600">
<ele>560.250000</ele>
<time>2021-04-13T14:59:59.737Z</time>
</trkpt>
<trkpt lat="31.7938800" lon="35.1661400">
<ele>557.529968</ele>
<time>2021-04-13T14:59:59.737Z</time>
</trkpt>
<trkpt lat="31.7936900" lon="35.1662000">
<ele>559.059998</ele>
<time>2021-04-13T14:59:59.737Z</time>
</trkpt>
<trkpt lat="31.7936100" lon="35.1662000">
<ele>559.230042</ele>
<time>2021-04-13T14:59:59.737Z</time>
</trkpt>
<trkpt lat="31.7936100" lon="35.1662000">
<ele>559.230042</ele>
<time>2021-04-13T14:59:59.737Z</time>
</trkpt>
<trkpt lat="31.7935700" lon="35.1662000">
<ele>559.000000</ele>
<time>2021-04-13T14:59:59.737Z</time>
</trkpt>
<trkpt lat="31.7934400" lon="35.1661500">
<ele>557.549988</ele>
<time>2021-04-13T14:59:59.737Z</time>
</trkpt>
<trkpt lat="31.7932800" lon="35.1660500">
<ele>555.390015</ele>
<time>2021-04-13T14:59:59.737Z</time>
</trkpt>
<trkpt lat="31.7930500" lon="35.1659500">
<ele>551.340027</ele>
<time>2021-04-13T14:59:59.737Z</time>
</trkpt>
<trkpt lat="31.7928900" lon="35.1659100">
<ele>552.940002</ele>
<time>2021-04-13T14:59:59.737Z</time>
</trkpt>
<trkpt lat="31.7928100" lon="35.1658500">
<ele>552.940002</ele>
<time>2021-04-13T14:59:59.737Z</time>
</trkpt>
<trkpt lat="31.7926700" lon="35.1657700">
<ele>553.880005</ele>
<time>2021-04-13T14:59:59.737Z</time>
</trkpt>
<trkpt lat="31.7925500" lon="35.1657100">
<ele>555.299988</ele>
<time>2021-04-13T14:59:59.737Z</time>
</trkpt>
<trkpt lat="31.7924500" lon="35.1657100">
<ele>557.179993</ele>
<time>2021-04-13T14:59:59.737Z</time>
</trkpt>
<trkpt lat="31.7923300" lon="35.1657800">
<ele>560.169983</ele>
<time>2021-04-13T14:59:59.737Z</time>
</trkpt>
<trkpt lat="31.7921400" lon="35.1659700">
<ele>560.590027</ele>
<time>2021-04-13T14:59:59.737Z</time>
</trkpt>
<trkpt lat="31.7921400" lon="35.1659700">
<ele>560.590027</ele>
<time>2021-04-13T14:59:59.737Z</time>
</trkpt>
<trkpt lat="31.7920700" lon="35.1660600">
<ele>558.450012</ele>
<time>2021-04-13T14:59:59.737Z</time>
</trkpt>
<trkpt lat="31.7919200" lon="35.1662300">
<ele>553.500000</ele>
<time>2021-04-13T14:59:59.737Z</time>
</trkpt>
<trkpt lat="31.7920200" lon="35.1663000">
<ele>555.420044</ele>
<time>2021-04-13T14:59:59.737Z</time>
</trkpt>
<trkpt lat="31.7921500" lon="35.1663500">
<ele>559.510010</ele>
<time>2021-04-13T14:59:59.737Z</time>
</trkpt>
<trkpt lat="31.7922300" lon="35.1664000">
<ele>562.049988</ele>
<time>2021-04-13T14:59:59.737Z</time>
</trkpt>
<trkpt lat="31.7922300" lon="35.1664700">
<ele>561.799988</ele>
<time>2021-04-13T14:59:59.737Z</time>
</trkpt>
<trkpt lat="31.7920400" lon="35.1665700">
<ele>556.070007</ele>
<time>2021-04-13T14:59:59.737Z</time>
</trkpt>
<trkpt lat="31.7919500" lon="35.1665900">
<ele>553.599976</ele>
<time>2021-04-13T14:59:59.737Z</time>
</trkpt>
<trkpt lat="31.7915700" lon="35.1665600">
<ele>546.429993</ele>
<time>2021-04-13T14:59:59.737Z</time>
</trkpt>
<trkpt lat="31.7910700" lon="35.1665700">
<ele>548.159973</ele>
<time>2021-04-13T14:59:59.737Z</time>
</trkpt>
<trkpt lat="31.7908000" lon="35.1664900">
<ele>548.849976</ele>
<time>2021-04-13T14:59:59.737Z</time>
</trkpt>
<trkpt lat="31.7906600" lon="35.1664400">
<ele>552.770020</ele>
<time>2021-04-13T14:59:59.737Z</time>
</trkpt>
<trkpt lat="31.7903500" lon="35.1663400">
<ele>559.920044</ele>
<time>2021-04-13T14:59:59.737Z</time>
</trkpt>
<trkpt lat="31.7900600" lon="35.1662000">
<ele>558.769958</ele>
<time>2021-04-13T14:59:59.737Z</time>
</trkpt>
<trkpt lat="31.7900600" lon="35.1662000">
<ele>558.769958</ele>
<time>2021-04-13T14:59:59.737Z</time>
</trkpt>
<trkpt lat="31.7900600" lon="35.1662000">
<ele>558.769958</ele>
<time>2021-04-13T14:59:59.737Z</time>
</trkpt>
<trkpt lat="31.7900100" lon="35.1661800">
<ele>558.460022</ele>
<time>2021-04-13T14:59:59.737Z</time>
</trkpt>
<trkpt lat="31.7897000" lon="35.1659700">
<ele>554.409973</ele>
<time>2021-04-13T14:59:59.737Z</time>
</trkpt>
<trkpt lat="31.7893600" lon="35.1656800">
<ele>559.109985</ele>
<time>2021-04-13T14:59:59.737Z</time>
</trkpt>
<trkpt lat="31.7890800" lon="35.1655200">
<ele>562.570007</ele>
<time>2021-04-13T14:59:59.737Z</time>
</trkpt>
<trkpt lat="31.7889800" lon="35.1654200">
<ele>563.859985</ele>
<time>2021-04-13T14:59:59.739Z</time>
</trkpt>
<trkpt lat="31.7881800" lon="35.1647200">
<ele>566.809998</ele>
<time>2021-04-13T14:59:59.739Z</time>
</trkpt>
<trkpt lat="31.7879900" lon="35.1643900">
<ele>559.869995</ele>
<time>2021-04-13T14:59:59.739Z</time>
</trkpt>
<trkpt lat="31.7878400" lon="35.1641800">
<ele>556.029968</ele>
<time>2021-04-13T14:59:59.739Z</time>
</trkpt>
<trkpt lat="31.7876900" lon="35.1640300">
<ele>556.309998</ele>
<time>2021-04-13T14:59:59.739Z</time>
</trkpt>
<trkpt lat="31.7874000" lon="35.1636100">
<ele>555.070007</ele>
<time>2021-04-13T14:59:59.739Z</time>
</trkpt>
<trkpt lat="31.7870900" lon="35.1630900">
<ele>553.900024</ele>
<time>2021-04-13T14:59:59.739Z</time>
</trkpt>
<trkpt lat="31.7870100" lon="35.1627700">
<ele>552.710022</ele>
<time>2021-04-13T14:59:59.739Z</time>
</trkpt>
<trkpt lat="31.7869600" lon="35.1627200">
<ele>552.890015</ele>
<time>2021-04-13T14:59:59.739Z</time>
</trkpt>
<trkpt lat="31.7869300" lon="35.1626800">
<ele>552.640015</ele>
<time>2021-04-13T14:59:59.739Z</time>
</trkpt>
<trkpt lat="31.7868200" lon="35.1626300">
<ele>552.320007</ele>
<time>2021-04-13T14:59:59.739Z</time>
</trkpt>
<trkpt lat="31.7865500" lon="35.1625800">
<ele>553.830017</ele>
<time>2021-04-13T14:59:59.739Z</time>
</trkpt>
<trkpt lat="31.7863100" lon="35.1624600">
<ele>554.610046</ele>
<time>2021-04-13T14:59:59.739Z</time>
</trkpt>
<trkpt lat="31.7860500" lon="35.1623300">
<ele>554.440002</ele>
<time>2021-04-13T14:59:59.739Z</time>
</trkpt>
<trkpt lat="31.7859500" lon="35.1622100">
<ele>554.700012</ele>
<time>2021-04-13T14:59:59.739Z</time>
</trkpt>
<trkpt lat="31.7859200" lon="35.1620900">
<ele>554.590027</ele>
<time>2021-04-13T14:59:59.739Z</time>
</trkpt>
<trkpt lat="31.7859400" lon="35.1618600">
<ele>553.660034</ele>
<time>2021-04-13T14:59:59.739Z</time>
</trkpt>
<trkpt lat="31.7860200" lon="35.1615200">
<ele>552.300049</ele>
<time>2021-04-13T14:59:59.739Z</time>
</trkpt>
<trkpt lat="31.7860300" lon="35.1613700">
<ele>551.880005</ele>
<time>2021-04-13T14:59:59.739Z</time>
</trkpt>
<trkpt lat="31.7860100" lon="35.1612500">
<ele>552.089966</ele>
<time>2021-04-13T14:59:59.739Z</time>
</trkpt>
<trkpt lat="31.7859000" lon="35.1607300">
<ele>553.580017</ele>
<time>2021-04-13T14:59:59.739Z</time>
</trkpt>
<trkpt lat="31.7855000" lon="35.1591400">
<ele>558.929993</ele>
<time>2021-04-13T14:59:59.739Z</time>
</trkpt>
<trkpt lat="31.7853500" lon="35.1583600">
<ele>553.080017</ele>
<time>2021-04-13T14:59:59.740Z</time>
</trkpt>
<trkpt lat="31.7852300" lon="35.1579000">
<ele>551.159973</ele>
<time>2021-04-13T14:59:59.740Z</time>
</trkpt>
<trkpt lat="31.7850200" lon="35.1572300">
<ele>551.409973</ele>
<time>2021-04-13T14:59:59.740Z</time>
</trkpt>
<trkpt lat="31.7844600" lon="35.1562900">
<ele>551.179993</ele>
<time>2021-04-13T14:59:59.740Z</time>
</trkpt>
<trkpt lat="31.7842700" lon="35.1561000">
<ele>550.559998</ele>
<time>2021-04-13T14:59:59.740Z</time>
</trkpt>
<trkpt lat="31.7838700" lon="35.1557800">
<ele>551.630005</ele>
<time>2021-04-13T14:59:59.740Z</time>
</trkpt>
<trkpt lat="31.7835400" lon="35.1556100">
<ele>550.599976</ele>
<time>2021-04-13T14:59:59.740Z</time>
</trkpt>
<trkpt lat="31.7832700" lon="35.1555000">
<ele>547.030029</ele>
<time>2021-04-13T14:59:59.740Z</time>
</trkpt>
<trkpt lat="31.7830000" lon="35.1554800">
<ele>547.799988</ele>
<time>2021-04-13T14:59:59.740Z</time>
</trkpt>
<trkpt lat="31.7827000" lon="35.1555000">
<ele>549.580017</ele>
<time>2021-04-13T14:59:59.740Z</time>
</trkpt>
<trkpt lat="31.7823100" lon="35.1555700">
<ele>547.209961</ele>
<time>2021-04-13T14:59:59.740Z</time>
</trkpt>
<trkpt lat="31.7820700" lon="35.1556600">
<ele>545.650024</ele>
<time>2021-04-13T14:59:59.740Z</time>
</trkpt>
<trkpt lat="31.7811700" lon="35.1560900">
<ele>546.239990</ele>
<time>2021-04-13T14:59:59.740Z</time>
</trkpt>
<trkpt lat="31.7808400" lon="35.1563100">
<ele>546.210022</ele>
<time>2021-04-13T14:59:59.740Z</time>
</trkpt>
<trkpt lat="31.7804800" lon="35.1566000">
<ele>540.229980</ele>
<time>2021-04-13T14:59:59.740Z</time>
</trkpt>
<trkpt lat="31.7803200" lon="35.1566900">
<ele>536.789978</ele>
<time>2021-04-13T14:59:59.740Z</time>
</trkpt>
<trkpt lat="31.7802400" lon="35.1567400">
<ele>536.169983</ele>
<time>2021-04-13T14:59:59.741Z</time>
</trkpt>
<trkpt lat="31.7792000" lon="35.1571600">
<ele>528.750000</ele>
<time>2021-04-13T14:59:59.741Z</time>
</trkpt>
<trkpt lat="31.7789100" lon="35.1572700">
<ele>524.450012</ele>
<time>2021-04-13T14:59:59.741Z</time>
</trkpt>
<trkpt lat="31.7784500" lon="35.1575100">
<ele>522.260010</ele>
<time>2021-04-13T14:59:59.741Z</time>
</trkpt>
<trkpt lat="31.7781200" lon="35.1576600">
<ele>520.900024</ele>
<time>2021-04-13T14:59:59.741Z</time>
</trkpt>
<trkpt lat="31.7766700" lon="35.1581100">
<ele>517.770020</ele>
<time>2021-04-13T14:59:59.741Z</time>
</trkpt>
<trkpt lat="31.7763700" lon="35.1581800">
<ele>521.630005</ele>
<time>2021-04-13T14:59:59.741Z</time>
</trkpt>
<trkpt lat="31.7760500" lon="35.1582400">
<ele>519.590027</ele>
<time>2021-04-13T14:59:59.741Z</time>
</trkpt>
<trkpt lat="31.7758700" lon="35.1582400">
<ele>519.369995</ele>
<time>2021-04-13T14:59:59.741Z</time>
</trkpt>
<trkpt lat="31.7751200" lon="35.1581100">
<ele>523.979980</ele>
<time>2021-04-13T14:59:59.741Z</time>
</trkpt>
<trkpt lat="31.7748700" lon="35.1580300">
<ele>530.160034</ele>
<time>2021-04-13T14:59:59.741Z</time>
</trkpt>
<trkpt lat="31.7744900" lon="35.1578000">
<ele>538.479980</ele>
<time>2021-04-13T14:59:59.741Z</time>
</trkpt>
<trkpt lat="31.7740600" lon="35.1573700">
<ele>535.679993</ele>
<time>2021-04-13T14:59:59.741Z</time>
</trkpt>
<trkpt lat="31.7739700" lon="35.1572700">
<ele>534.559998</ele>
<time>2021-04-13T14:59:59.741Z</time>
</trkpt>
<trkpt lat="31.7737500" lon="35.1569300">
<ele>530.000000</ele>
<time>2021-04-13T14:59:59.741Z</time>
</trkpt>
<trkpt lat="31.7735800" lon="35.1565500">
<ele>528.580017</ele>
<time>2021-04-13T14:59:59.741Z</time>
</trkpt>
<trkpt lat="31.7734800" lon="35.1562300">
<ele>528.000000</ele>
<time>2021-04-13T14:59:59.741Z</time>
</trkpt>
<trkpt lat="31.7733900" lon="35.1558600">
<ele>527.820007</ele>
<time>2021-04-13T14:59:59.741Z</time>
</trkpt>
<trkpt lat="31.7733600" lon="35.1554400">
<ele>524.739990</ele>
<time>2021-04-13T14:59:59.741Z</time>
</trkpt>
<trkpt lat="31.7733500" lon="35.1549100">
<ele>523.100037</ele>
<time>2021-04-13T14:59:59.741Z</time>
</trkpt>
<trkpt lat="31.7733500" lon="35.1549100">
<ele>523.100037</ele>
<time>2021-04-13T14:59:59.741Z</time>
</trkpt>
<trkpt lat="31.7733500" lon="35.1549100">
<ele>523.100037</ele>
<time>2021-04-13T14:59:59.741Z</time>
</trkpt>
<trkpt lat="31.7733400" lon="35.1546300">
<ele>523.019958</ele>
<time>2021-04-13T14:59:59.741Z</time>
</trkpt>
<trkpt lat="31.7733800" lon="35.1541600">
<ele>522.309998</ele>
<time>2021-04-13T14:59:59.741Z</time>
</trkpt>
<trkpt lat="31.7734000" lon="35.1541100">
<ele>522.280029</ele>
<time>2021-04-13T14:59:59.741Z</time>
</trkpt>
<trkpt lat="31.7734300" lon="35.1540000">
<ele>522.099976</ele>
<time>2021-04-13T14:59:59.741Z</time>
</trkpt>
<trkpt lat="31.7735600" lon="35.1537400">
<ele>522.190002</ele>
<time>2021-04-13T14:59:59.741Z</time>
</trkpt>
<trkpt lat="31.7736500" lon="35.1536000">
<ele>522.099976</ele>
<time>2021-04-13T14:59:59.742Z</time>
</trkpt>
<trkpt lat="31.7735500" lon="35.1534900">
<ele>521.440002</ele>
<time>2021-04-13T14:59:59.742Z</time>
</trkpt>
<trkpt lat="31.7733400" lon="35.1532900">
<ele>520.839966</ele>
<time>2021-04-13T14:59:59.742Z</time>
</trkpt>
<trkpt lat="31.7728400" lon="35.1537100">
<ele>518.640015</ele>
<time>2021-04-13T14:59:59.742Z</time>
</trkpt>
<trkpt lat="31.7724600" lon="35.1538700">
<ele>521.390015</ele>
<time>2021-04-13T14:59:59.742Z</time>
</trkpt>
<trkpt lat="31.7724000" lon="35.1538800">
<ele>522.320007</ele>
<time>2021-04-13T14:59:59.742Z</time>
</trkpt>
<trkpt lat="31.7724000" lon="35.1538800">
<ele>522.320007</ele>
<time>2021-04-13T14:59:59.742Z</time>
</trkpt>
<trkpt lat="31.7719800" lon="35.1539200">
<ele>523.589966</ele>
<time>2021-04-13T14:59:59.742Z</time>
</trkpt>
<trkpt lat="31.7710000" lon="35.1538800">
<ele>534.119995</ele>
<time>2021-04-13T14:59:59.742Z</time>
</trkpt>
<trkpt lat="31.7708200" lon="35.1538800">
<ele>534.090027</ele>
<time>2021-04-13T14:59:59.742Z</time>
</trkpt>
<trkpt lat="31.7706700" lon="35.1538900">
<ele>534.010010</ele>
<time>2021-04-13T14:59:59.742Z</time>
</trkpt>
<trkpt lat="31.7705700" lon="35.1539100">
<ele>534.289978</ele>
<time>2021-04-13T14:59:59.742Z</time>
</trkpt>
<trkpt lat="31.7705000" lon="35.1539400">
<ele>534.700012</ele>
<time>2021-04-13T14:59:59.742Z</time>
</trkpt>
<trkpt lat="31.7704500" lon="35.1539700">
<ele>535.059998</ele>
<time>2021-04-13T14:59:59.742Z</time>
</trkpt>
<trkpt lat="31.7703900" lon="35.1540100">
<ele>535.479980</ele>
<time>2021-04-13T14:59:59.742Z</time>
</trkpt>
<trkpt lat="31.7702200" lon="35.1541300">
<ele>537.130005</ele>
<time>2021-04-13T14:59:59.742Z</time>
</trkpt>
<trkpt lat="31.7701800" lon="35.1541600">
<ele>537.669983</ele>
<time>2021-04-13T14:59:59.742Z</time>
</trkpt>
<trkpt lat="31.7701500" lon="35.1541600">
<ele>537.890015</ele>
<time>2021-04-13T14:59:59.742Z</time>
</trkpt>
<trkpt lat="31.7701500" lon="35.1541600">
<ele>537.890015</ele>
<time>2021-04-13T14:59:59.742Z</time>
</trkpt>
<trkpt lat="31.7701800" lon="35.1541600">
<ele>537.669983</ele>
<time>2021-04-13T14:59:59.742Z</time>
</trkpt>
<trkpt lat="31.7701300" lon="35.1541600">
<ele>538.040039</ele>
<time>2021-04-13T14:59:59.742Z</time>
</trkpt>
<trkpt lat="31.7700800" lon="35.1541800">
<ele>538.519958</ele>
<time>2021-04-13T14:59:59.742Z</time>
</trkpt>
<trkpt lat="31.7699800" lon="35.1541100">
<ele>539.510010</ele>
<time>2021-04-13T14:59:59.742Z</time>
</trkpt>
<trkpt lat="31.7699200" lon="35.1540500">
<ele>540.690002</ele>
<time>2021-04-13T14:59:59.742Z</time>
</trkpt>
<trkpt lat="31.7699000" lon="35.1539800">
<ele>541.349976</ele>
<time>2021-04-13T14:59:59.742Z</time>
</trkpt>
<trkpt lat="31.7698700" lon="35.1538500">
<ele>542.549988</ele>
<time>2021-04-13T14:59:59.743Z</time>
</trkpt>
<trkpt lat="31.7698600" lon="35.1536400">
<ele>543.859985</ele>
<time>2021-04-13T14:59:59.743Z</time>
</trkpt>
<trkpt lat="31.7698700" lon="35.1535200">
<ele>544.030029</ele>
<time>2021-04-13T14:59:59.743Z</time>
</trkpt>
<trkpt lat="31.7698900" lon="35.1534400">
<ele>543.830017</ele>
<time>2021-04-13T14:59:59.743Z</time>
</trkpt>
<trkpt lat="31.7699500" lon="35.1533200">
<ele>543.029968</ele>
<time>2021-04-13T14:59:59.743Z</time>
</trkpt>
<trkpt lat="31.7700200" lon="35.1532100">
<ele>543.210022</ele>
<time>2021-04-13T14:59:59.743Z</time>
</trkpt>
<trkpt lat="31.7700900" lon="35.1531000">
<ele>544.359985</ele>
<time>2021-04-13T14:59:59.743Z</time>
</trkpt>
<trkpt lat="31.7701200" lon="35.1530800">
<ele>544.619995</ele>
<time>2021-04-13T14:59:59.743Z</time>
</trkpt>
<trkpt lat="31.7700000" lon="35.1529100">
<ele>545.520020</ele>
<time>2021-04-13T14:59:59.743Z</time>
</trkpt>
<trkpt lat="31.7698700" lon="35.1528400">
<ele>546.450012</ele>
<time>2021-04-13T14:59:59.743Z</time>
</trkpt>
<trkpt lat="31.7700500" lon="35.1526700">
<ele>547.109985</ele>
<time>2021-04-13T14:59:59.743Z</time>
</trkpt>
<trkpt lat="31.7700900" lon="35.1526000">
<ele>547.940002</ele>
<time>2021-04-13T14:59:59.743Z</time>
</trkpt>
<trkpt lat="31.7703700" lon="35.1523200">
<ele>554.869995</ele>
<time>2021-04-13T14:59:59.743Z</time>
</trkpt>
<trkpt lat="31.7705200" lon="35.1520900">
<ele>559.190002</ele>
<time>2021-04-13T14:59:59.743Z</time>
</trkpt>
<trkpt lat="31.7709800" lon="35.1519800">
<ele>560.040039</ele>
<time>2021-04-13T14:59:59.743Z</time>
</trkpt>
<trkpt lat="31.7712800" lon="35.1518400">
<ele>563.820007</ele>
<time>2021-04-13T14:59:59.743Z</time>
</trkpt>
<trkpt lat="31.7713600" lon="35.1517500">
<ele>563.919983</ele>
<time>2021-04-13T14:59:59.743Z</time>
</trkpt>
<trkpt lat="31.7713700" lon="35.1516600">
<ele>564.299988</ele>
<time>2021-04-13T14:59:59.743Z</time>
</trkpt>
<trkpt lat="31.7713700" lon="35.1516200">
<ele>564.840027</ele>
<time>2021-04-13T14:59:59.743Z</time>
</trkpt>
<trkpt lat="31.7713300" lon="35.1515600">
<ele>565.929993</ele>
<time>2021-04-13T14:59:59.743Z</time>
</trkpt>
<trkpt lat="31.7710800" lon="35.1514800">
<ele>567.489990</ele>
<time>2021-04-13T14:59:59.743Z</time>
</trkpt>
<trkpt lat="31.7710100" lon="35.1513900">
<ele>567.989990</ele>
<time>2021-04-13T14:59:59.743Z</time>
</trkpt>
<trkpt lat="31.7709700" lon="35.1512800">
<ele>569.179993</ele>
<time>2021-04-13T14:59:59.743Z</time>
</trkpt>
<trkpt lat="31.7709800" lon="35.1509800">
<ele>573.109985</ele>
<time>2021-04-13T14:59:59.743Z</time>
</trkpt>
<trkpt lat="31.7709500" lon="35.1508500">
<ele>575.309998</ele>
<time>2021-04-13T14:59:59.743Z</time>
</trkpt>
<trkpt lat="31.7709000" lon="35.1507500">
<ele>577.119995</ele>
<time>2021-04-13T14:59:59.743Z</time>
</trkpt>
<trkpt lat="31.7708200" lon="35.1506500">
<ele>579.220032</ele>
<time>2021-04-13T14:59:59.743Z</time>
</trkpt>
<trkpt lat="31.7707600" lon="35.1506200">
<ele>579.369995</ele>
<time>2021-04-13T14:59:59.743Z</time>
</trkpt>
<trkpt lat="31.7706900" lon="35.1506100">
<ele>579.090027</ele>
<time>2021-04-13T14:59:59.743Z</time>
</trkpt>
<trkpt lat="31.7706100" lon="35.1506200">
<ele>578.419983</ele>
<time>2021-04-13T14:59:59.743Z</time>
</trkpt>
<trkpt lat="31.7704500" lon="35.1503800">
<ele>579.630005</ele>
<time>2021-04-13T14:59:59.743Z</time>
</trkpt>
<trkpt lat="31.7704500" lon="35.1501700">
<ele>580.290039</ele>
<time>2021-04-13T14:59:59.744Z</time>
</trkpt>
<trkpt lat="31.7703900" lon="35.1500800">
<ele>580.850037</ele>
<time>2021-04-13T14:59:59.744Z</time>
</trkpt>
<trkpt lat="31.7703700" lon="35.1499200">
<ele>581.339966</ele>
<time>2021-04-13T14:59:59.744Z</time>
</trkpt>
<trkpt lat="31.7703600" lon="35.1498400">
<ele>581.410034</ele>
<time>2021-04-13T14:59:59.744Z</time>
</trkpt>
<trkpt lat="31.7703600" lon="35.1498300">
<ele>581.410034</ele>
<time>2021-04-13T14:59:59.744Z</time>
</trkpt>
<trkpt lat="31.7703400" lon="35.1496900">
<ele>581.380005</ele>
<time>2021-04-13T14:59:59.744Z</time>
</trkpt>
<trkpt lat="31.7702400" lon="35.1495500">
<ele>581.679993</ele>
<time>2021-04-13T14:59:59.744Z</time>
</trkpt>
<trkpt lat="31.7699800" lon="35.1490000">
<ele>584.650024</ele>
<time>2021-04-13T14:59:59.744Z</time>
</trkpt>
<trkpt lat="31.7699600" lon="35.1484300">
<ele>584.809998</ele>
<time>2021-04-13T14:59:59.744Z</time>
</trkpt>
<trkpt lat="31.7699700" lon="35.1480900">
<ele>586.410034</ele>
<time>2021-04-13T14:59:59.745Z</time>
</trkpt>
<trkpt lat="31.7699500" lon="35.1476400">
<ele>588.260010</ele>
<time>2021-04-13T14:59:59.745Z</time>
</trkpt>
<trkpt lat="31.7699000" lon="35.1474000">
<ele>589.390015</ele>
<time>2021-04-13T14:59:59.745Z</time>
</trkpt>
<trkpt lat="31.7697700" lon="35.1470400">
<ele>592.510010</ele>
<time>2021-04-13T14:59:59.745Z</time>
</trkpt>
<trkpt lat="31.7695100" lon="35.1467300">
<ele>595.729980</ele>
<time>2021-04-13T14:59:59.745Z</time>
</trkpt>
<trkpt lat="31.7689000" lon="35.1458800">
<ele>598.330017</ele>
<time>2021-04-13T14:59:59.745Z</time>
</trkpt>
<trkpt lat="31.7687500" lon="35.1457300">
<ele>596.399963</ele>
<time>2021-04-13T14:59:59.745Z</time>
</trkpt>
<trkpt lat="31.7684400" lon="35.1455000">
<ele>593.119995</ele>
<time>2021-04-13T14:59:59.745Z</time>
</trkpt>
<trkpt lat="31.7682300" lon="35.1453600">
<ele>592.260010</ele>
<time>2021-04-13T14:59:59.745Z</time>
</trkpt>
<trkpt lat="31.7677300" lon="35.1451700">
<ele>592.950012</ele>
<time>2021-04-13T14:59:59.745Z</time>
</trkpt>
<trkpt lat="31.7673500" lon="35.1450000">
<ele>597.859985</ele>
<time>2021-04-13T14:59:59.745Z</time>
</trkpt>
<trkpt lat="31.7669400" lon="35.1447300">
<ele>598.419983</ele>
<time>2021-04-13T14:59:59.745Z</time>
</trkpt>
<trkpt lat="31.7665100" lon="35.1441700">
<ele>593.169983</ele>
<time>2021-04-13T14:59:59.745Z</time>
</trkpt>
<trkpt lat="31.7664700" lon="35.1440500">
<ele>593.409973</ele>
<time>2021-04-13T14:59:59.745Z</time>
</trkpt>
<trkpt lat="31.7664800" lon="35.1438100">
<ele>592.100037</ele>
<time>2021-04-13T14:59:59.745Z</time>
</trkpt>
<trkpt lat="31.7664300" lon="35.1432800">
<ele>595.080017</ele>
<time>2021-04-13T14:59:59.745Z</time>
</trkpt>
<trkpt lat="31.7664300" lon="35.1428300">
<ele>596.470032</ele>
<time>2021-04-13T14:59:59.745Z</time>
</trkpt>
<trkpt lat="31.7664300" lon="35.1428300">
<ele>596.470032</ele>
<time>2021-04-13T14:59:59.745Z</time>
</trkpt>
<trkpt lat="31.7664300" lon="35.1428300">
<ele>596.470032</ele>
<time>2021-04-13T14:59:59.745Z</time>
</trkpt>
<trkpt lat="31.7664400" lon="35.1421800">
<ele>596.429993</ele>
<time>2021-04-13T14:59:59.746Z</time>
</trkpt>
<trkpt lat="31.7665300" lon="35.1416300">
<ele>596.989990</ele>
<time>2021-04-13T14:59:59.746Z</time>
</trkpt>
<trkpt lat="31.7668400" lon="35.1406900">
<ele>600.099976</ele>
<time>2021-04-13T14:59:59.746Z</time>
</trkpt>
<trkpt lat="31.7668700" lon="35.1404400">
<ele>597.530029</ele>
<time>2021-04-13T14:59:59.746Z</time>
</trkpt>
<trkpt lat="31.7668500" lon="35.1401900">
<ele>597.079956</ele>
<time>2021-04-13T14:59:59.746Z</time>
</trkpt>
<trkpt lat="31.7666900" lon="35.1395500">
<ele>601.270020</ele>
<time>2021-04-13T14:59:59.746Z</time>
</trkpt>
<trkpt lat="31.7664100" lon="35.1390500">
<ele>598.570007</ele>
<time>2021-04-13T14:59:59.746Z</time>
</trkpt>
<trkpt lat="31.7662500" lon="35.1389000">
<ele>595.760010</ele>
<time>2021-04-13T14:59:59.746Z</time>
</trkpt>
<trkpt lat="31.7657100" lon="35.1387200">
<ele>592.929993</ele>
<time>2021-04-13T14:59:59.746Z</time>
</trkpt>
<trkpt lat="31.7651800" lon="35.1387600">
<ele>583.000000</ele>
<time>2021-04-13T14:59:59.746Z</time>
</trkpt>
<trkpt lat="31.7645600" lon="35.1388700">
<ele>573.190002</ele>
<time>2021-04-13T14:59:59.746Z</time>
</trkpt>
<trkpt lat="31.7643500" lon="35.1389200">
<ele>574.679993</ele>
<time>2021-04-13T14:59:59.746Z</time>
</trkpt>
<trkpt lat="31.7640600" lon="35.1389800">
<ele>578.429993</ele>
<time>2021-04-13T14:59:59.746Z</time>
</trkpt>
<trkpt lat="31.7635700" lon="35.1390200">
<ele>578.369995</ele>
<time>2021-04-13T14:59:59.746Z</time>
</trkpt>
<trkpt lat="31.7635300" lon="35.1390900">
<ele>578.940002</ele>
<time>2021-04-13T14:59:59.746Z</time>
</trkpt>
<trkpt lat="31.7634100" lon="35.1391400">
<ele>578.369995</ele>
<time>2021-04-13T14:59:59.746Z</time>
</trkpt>
<trkpt lat="31.7631700" lon="35.1391800">
<ele>581.039978</ele>
<time>2021-04-13T14:59:59.746Z</time>
</trkpt>
<trkpt lat="31.7626900" lon="35.1393800">
<ele>580.599976</ele>
<time>2021-04-13T14:59:59.746Z</time>
</trkpt>
<trkpt lat="31.7625600" lon="35.1394800">
<ele>581.660034</ele>
<time>2021-04-13T14:59:59.746Z</time>
</trkpt>
<trkpt lat="31.7624700" lon="35.1396100">
<ele>584.669983</ele>
<time>2021-04-13T14:59:59.747Z</time>
</trkpt>
<trkpt lat="31.7623900" lon="35.1397600">
<ele>586.479980</ele>
<time>2021-04-13T14:59:59.747Z</time>
</trkpt>
<trkpt lat="31.7623400" lon="35.1399800">
<ele>589.169983</ele>
<time>2021-04-13T14:59:59.747Z</time>
</trkpt>
<trkpt lat="31.7623700" lon="35.1402300">
<ele>591.460022</ele>
<time>2021-04-13T14:59:59.747Z</time>
</trkpt>
<trkpt lat="31.7626600" lon="35.1425400">
<ele>609.669983</ele>
<time>2021-04-13T14:59:59.747Z</time>
</trkpt>
<trkpt lat="31.7627200" lon="35.1428300">
<ele>613.479980</ele>
<time>2021-04-13T14:59:59.747Z</time>
</trkpt>
<trkpt lat="31.7627600" lon="35.1430200">
<ele>616.239990</ele>
<time>2021-04-13T14:59:59.747Z</time>
</trkpt>
<trkpt lat="31.7628900" lon="35.1434100">
<ele>620.880005</ele>
<time>2021-04-13T14:59:59.747Z</time>
</trkpt>
<trkpt lat="31.7635600" lon="35.1448300">
<ele>633.149963</ele>
<time>2021-04-13T14:59:59.747Z</time>
</trkpt>
<trkpt lat="31.7636300" lon="35.1449200">
<ele>634.789978</ele>
<time>2021-04-13T14:59:59.747Z</time>
</trkpt>
<trkpt lat="31.7637000" lon="35.1449800">
<ele>636.730042</ele>
<time>2021-04-13T14:59:59.747Z</time>
</trkpt>
<trkpt lat="31.7637000" lon="35.1450900">
<ele>638.110046</ele>
<time>2021-04-13T14:59:59.747Z</time>
</trkpt>
<trkpt lat="31.7637300" lon="35.1452600">
<ele>640.910034</ele>
<time>2021-04-13T14:59:59.747Z</time>
</trkpt>
<trkpt lat="31.7637900" lon="35.1454600">
<ele>642.690002</ele>
<time>2021-04-13T14:59:59.747Z</time>
</trkpt>
<trkpt lat="31.7638300" lon="35.1456200">
<ele>643.410034</ele>
<time>2021-04-13T14:59:59.747Z</time>
</trkpt>
<trkpt lat="31.7638500" lon="35.1457000">
<ele>643.650024</ele>
<time>2021-04-13T14:59:59.747Z</time>
</trkpt>
<trkpt lat="31.7638600" lon="35.1458000">
<ele>643.780029</ele>
<time>2021-04-13T14:59:59.747Z</time>
</trkpt>
<trkpt lat="31.7638700" lon="35.1459500">
<ele>644.309998</ele>
<time>2021-04-13T14:59:59.747Z</time>
</trkpt>
<trkpt lat="31.7638800" lon="35.1461800">
<ele>645.940063</ele>
<time>2021-04-13T14:59:59.747Z</time>
</trkpt>
<trkpt lat="31.7638600" lon="35.1462600">
<ele>646.929993</ele>
<time>2021-04-13T14:59:59.747Z</time>
</trkpt>
<trkpt lat="31.7638500" lon="35.1463500">
<ele>648.059998</ele>
<time>2021-04-13T14:59:59.747Z</time>
</trkpt>
<trkpt lat="31.7638100" lon="35.1465100">
<ele>651.140015</ele>
<time>2021-04-13T14:59:59.747Z</time>
</trkpt>
<trkpt lat="31.7637500" lon="35.1467600">
<ele>654.840027</ele>
<time>2021-04-13T14:59:59.747Z</time>
</trkpt>
<trkpt lat="31.7636900" lon="35.1469200">
<ele>655.239990</ele>
<time>2021-04-13T14:59:59.747Z</time>
</trkpt>
<trkpt lat="31.7634700" lon="35.1475300">
<ele>655.140015</ele>
<time>2021-04-13T14:59:59.748Z</time>
</trkpt>
<trkpt lat="31.7633100" lon="35.1479100">
<ele>652.960022</ele>
<time>2021-04-13T14:59:59.748Z</time>
</trkpt>
<trkpt lat="31.7633100" lon="35.1479100">
<ele>652.960022</ele>
<time>2021-04-13T14:59:59.748Z</time>
</trkpt>
<trkpt lat="31.7631900" lon="35.1482000">
<ele>654.519958</ele>
<time>2021-04-13T14:59:59.748Z</time>
</trkpt>
<trkpt lat="31.7630600" lon="35.1484800">
<ele>657.169983</ele>
<time>2021-04-13T14:59:59.748Z</time>
</trkpt>
<trkpt lat="31.7630200" lon="35.1485800">
<ele>658.910034</ele>
<time>2021-04-13T14:59:59.748Z</time>
</trkpt>
<trkpt lat="31.7629700" lon="35.1486700">
<ele>661.279968</ele>
<time>2021-04-13T14:59:59.748Z</time>
</trkpt>
<trkpt lat="31.7629200" lon="35.1487500">
<ele>663.480042</ele>
<time>2021-04-13T14:59:59.748Z</time>
</trkpt>
<trkpt lat="31.7628600" lon="35.1488200">
<ele>665.320007</ele>
<time>2021-04-13T14:59:59.748Z</time>
</trkpt>
<trkpt lat="31.7628200" lon="35.1488200">
<ele>665.529968</ele>
<time>2021-04-13T14:59:59.748Z</time>
</trkpt>
<trkpt lat="31.7627800" lon="35.1488400">
<ele>666.109985</ele>
<time>2021-04-13T14:59:59.748Z</time>
</trkpt>
<trkpt lat="31.7627400" lon="35.1488400">
<ele>666.820007</ele>
<time>2021-04-13T14:59:59.748Z</time>
</trkpt>
<trkpt lat="31.7627000" lon="35.1488300">
<ele>667.400024</ele>
<time>2021-04-13T14:59:59.748Z</time>
</trkpt>
<trkpt lat="31.7626400" lon="35.1488000">
<ele>668.039978</ele>
<time>2021-04-13T14:59:59.748Z</time>
</trkpt>
<trkpt lat="31.7624900" lon="35.1486300">
<ele>668.549988</ele>
<time>2021-04-13T14:59:59.748Z</time>
</trkpt>
<trkpt lat="31.7621700" lon="35.1481800">
<ele>671.200012</ele>
<time>2021-04-13T14:59:59.748Z</time>
</trkpt>
<trkpt lat="31.7620300" lon="35.1478400">
<ele>671.150024</ele>
<time>2021-04-13T14:59:59.748Z</time>
</trkpt>
<trkpt lat="31.7617900" lon="35.1471100">
<ele>672.159973</ele>
<time>2021-04-13T14:59:59.748Z</time>
</trkpt>
<trkpt lat="31.7616600" lon="35.1469000">
<ele>673.739990</ele>
<time>2021-04-13T14:59:59.748Z</time>
</trkpt>
<trkpt lat="31.7615600" lon="35.1468000">
<ele>674.529968</ele>
<time>2021-04-13T14:59:59.748Z</time>
</trkpt>
<trkpt lat="31.7614400" lon="35.1467000">
<ele>676.739990</ele>
<time>2021-04-13T14:59:59.748Z</time>
</trkpt>
<trkpt lat="31.7613200" lon="35.1466200">
<ele>677.039978</ele>
<time>2021-04-13T14:59:59.749Z</time>
</trkpt>
<trkpt lat="31.7611600" lon="35.1465500">
<ele>676.110046</ele>
<time>2021-04-13T14:59:59.749Z</time>
</trkpt>
<trkpt lat="31.7609900" lon="35.1465400">
<ele>674.109985</ele>
<time>2021-04-13T14:59:59.749Z</time>
</trkpt>
<trkpt lat="31.7607000" lon="35.1466800">
<ele>668.710022</ele>
<time>2021-04-13T14:59:59.749Z</time>
</trkpt>
<trkpt lat="31.7596200" lon="35.1471400">
<ele>654.669983</ele>
<time>2021-04-13T14:59:59.749Z</time>
</trkpt>
<trkpt lat="31.7592800" lon="35.1472500">
<ele>659.789978</ele>
<time>2021-04-13T14:59:59.749Z</time>
</trkpt>
<trkpt lat="31.7590100" lon="35.1472200">
<ele>668.450012</ele>
<time>2021-04-13T14:59:59.749Z</time>
</trkpt>
<trkpt lat="31.7588800" lon="35.1471500">
<ele>670.409973</ele>
<time>2021-04-13T14:59:59.749Z</time>
</trkpt>
<trkpt lat="31.7588100" lon="35.1471100">
<ele>669.469971</ele>
<time>2021-04-13T14:59:59.749Z</time>
</trkpt>
<trkpt lat="31.7586700" lon="35.1469100">
<ele>667.589966</ele>
<time>2021-04-13T14:59:59.749Z</time>
</trkpt>
<trkpt lat="31.7586100" lon="35.1471600">
<ele>669.570007</ele>
<time>2021-04-13T14:59:59.749Z</time>
</trkpt>
<trkpt lat="31.7582700" lon="35.1474100">
<ele>673.030029</ele>
<time>2021-04-13T14:59:59.749Z</time>
</trkpt>
<trkpt lat="31.7581400" lon="35.1474800">
<ele>672.870056</ele>
<time>2021-04-13T14:59:59.749Z</time>
</trkpt>
<trkpt lat="31.7581300" lon="35.1474800">
<ele>672.859985</ele>
<time>2021-04-13T14:59:59.749Z</time>
</trkpt>
<trkpt lat="31.7581400" lon="35.1474800">
<ele>672.870056</ele>
<time>2021-04-13T14:59:59.749Z</time>
</trkpt>
<trkpt lat="31.7581400" lon="35.1474800">
<ele>672.870056</ele>
<time>2021-04-13T14:59:59.749Z</time>
</trkpt>
<trkpt lat="31.7581300" lon="35.1474800">
<ele>672.859985</ele>
<time>2021-04-13T14:59:59.749Z</time>
</trkpt>
<trkpt lat="31.7580000" lon="35.1476200">
<ele>674.450012</ele>
<time>2021-04-13T14:59:59.749Z</time>
</trkpt>
<trkpt lat="31.7579200" lon="35.1476700">
<ele>674.410034</ele>
<time>2021-04-13T14:59:59.749Z</time>
</trkpt>
<trkpt lat="31.7578600" lon="35.1476600">
<ele>673.470032</ele>
<time>2021-04-13T14:59:59.750Z</time>
</trkpt>
<trkpt lat="31.7577800" lon="35.1475900">
<ele>670.970032</ele>
<time>2021-04-13T14:59:59.750Z</time>
</trkpt>
<trkpt lat="31.7577300" lon="35.1475700">
<ele>671.459961</ele>
<time>2021-04-13T14:59:59.750Z</time>
</trkpt>
<trkpt lat="31.7575700" lon="35.1476200">
<ele>675.430054</ele>
<time>2021-04-13T14:59:59.750Z</time>
</trkpt>
<trkpt lat="31.7574400" lon="35.1476300">
<ele>678.309998</ele>
<time>2021-04-13T14:59:59.750Z</time>
</trkpt>
<trkpt lat="31.7573900" lon="35.1476600">
<ele>679.729980</ele>
<time>2021-04-13T14:59:59.750Z</time>
</trkpt>
<trkpt lat="31.7571300" lon="35.1479600">
<ele>690.930054</ele>
<time>2021-04-13T14:59:59.750Z</time>
</trkpt>
<trkpt lat="31.7569600" lon="35.1482300">
<ele>696.839966</ele>
<time>2021-04-13T14:59:59.750Z</time>
</trkpt>
<trkpt lat="31.7569000" lon="35.1483200">
<ele>697.809998</ele>
<time>2021-04-13T14:59:59.750Z</time>
</trkpt>
<trkpt lat="31.7565200" lon="35.1484700">
<ele>706.359985</ele>
<time>2021-04-13T14:59:59.750Z</time>
</trkpt>
<trkpt lat="31.7565300" lon="35.1483800">
<ele>705.380005</ele>
<time>2021-04-13T14:59:59.750Z</time>
</trkpt>
<trkpt lat="31.7566100" lon="35.1483200">
<ele>703.269958</ele>
<time>2021-04-13T14:59:59.750Z</time>
</trkpt>
<trkpt lat="31.7567500" lon="35.1483100">
<ele>700.560059</ele>
<time>2021-04-13T14:59:59.750Z</time>
</trkpt>
<trkpt lat="31.7568500" lon="35.1481700">
<ele>698.900024</ele>
<time>2021-04-13T14:59:59.750Z</time>
</trkpt>
<trkpt lat="31.7571300" lon="35.1476000">
<ele>688.049988</ele>
<time>2021-04-13T14:59:59.750Z</time>
</trkpt>
<trkpt lat="31.7573500" lon="35.1472600">
<ele>686.119995</ele>
<time>2021-04-13T14:59:59.750Z</time>
</trkpt>
<trkpt lat="31.7574700" lon="35.1470400">
<ele>684.489990</ele>
<time>2021-04-13T14:59:59.750Z</time>
</trkpt>
<trkpt lat="31.7576200" lon="35.1468300">
<ele>683.320007</ele>
<time>2021-04-13T14:59:59.750Z</time>
</trkpt>
<trkpt lat="31.7579100" lon="35.1462500">
<ele>681.380005</ele>
<time>2021-04-13T14:59:59.751Z</time>
</trkpt>
<trkpt lat="31.7579900" lon="35.1461300">
<ele>682.669983</ele>
<time>2021-04-13T14:59:59.751Z</time>
</trkpt>
<trkpt lat="31.7580600" lon="35.1459700">
<ele>686.990051</ele>
<time>2021-04-13T14:59:59.751Z</time>
</trkpt>
<trkpt lat="31.7581500" lon="35.1456900">
<ele>693.039978</ele>
<time>2021-04-13T14:59:59.751Z</time>
</trkpt>
<trkpt lat="31.7587300" lon="35.1446200">
<ele>689.429993</ele>
<time>2021-04-13T14:59:59.751Z</time>
</trkpt>
<trkpt lat="31.7587800" lon="35.1444900">
<ele>689.829956</ele>
<time>2021-04-13T14:59:59.751Z</time>
</trkpt>
<trkpt lat="31.7589000" lon="35.1441300">
<ele>688.989990</ele>
<time>2021-04-13T14:59:59.751Z</time>
</trkpt>
<trkpt lat="31.7589500" lon="35.1437600">
<ele>692.900024</ele>
<time>2021-04-13T14:59:59.751Z</time>
</trkpt>
<trkpt lat="31.7590400" lon="35.1433800">
<ele>694.170044</ele>
<time>2021-04-13T14:59:59.751Z</time>
</trkpt>
<trkpt lat="31.7591000" lon="35.1430300">
<ele>697.750000</ele>
<time>2021-04-13T14:59:59.751Z</time>
</trkpt>
<trkpt lat="31.7592600" lon="35.1425500">
<ele>693.540039</ele>
<time>2021-04-13T14:59:59.751Z</time>
</trkpt>
<trkpt lat="31.7593300" lon="35.1424000">
<ele>692.760010</ele>
<time>2021-04-13T14:59:59.752Z</time>
</trkpt>
<trkpt lat="31.7593600" lon="35.1422600">
<ele>694.950012</ele>
<time>2021-04-13T14:59:59.752Z</time>
</trkpt>
<trkpt lat="31.7593500" lon="35.1420200">
<ele>697.400024</ele>
<time>2021-04-13T14:59:59.752Z</time>
</trkpt>
<trkpt lat="31.7592000" lon="35.1416600">
<ele>701.489990</ele>
<time>2021-04-13T14:59:59.752Z</time>
</trkpt>
<trkpt lat="31.7591200" lon="35.1413600">
<ele>695.640015</ele>
<time>2021-04-13T14:59:59.752Z</time>
</trkpt>
<trkpt lat="31.7591100" lon="35.1413500">
<ele>695.640015</ele>
<time>2021-04-13T14:59:59.752Z</time>
</trkpt>
<trkpt lat="31.7591100" lon="35.1413500">
<ele>695.640015</ele>
<time>2021-04-13T14:59:59.752Z</time>
</trkpt>
<trkpt lat="31.7591100" lon="35.1413500">
<ele>695.640015</ele>
<time>2021-04-13T14:59:59.752Z</time>
</trkpt>
<trkpt lat="31.7589900" lon="35.1410600">
<ele>689.750000</ele>
<time>2021-04-13T14:59:59.752Z</time>
</trkpt>
<trkpt lat="31.7589300" lon="35.1409600">
<ele>689.010010</ele>
<time>2021-04-13T14:59:59.752Z</time>
</trkpt>
<trkpt lat="31.7588400" lon="35.1409100">
<ele>690.570007</ele>
<time>2021-04-13T14:59:59.752Z</time>
</trkpt>
<trkpt lat="31.7584700" lon="35.1407400">
<ele>694.170044</ele>
<time>2021-04-13T14:59:59.752Z</time>
</trkpt>
<trkpt lat="31.7580400" lon="35.1406400">
<ele>691.870056</ele>
<time>2021-04-13T14:59:59.752Z</time>
</trkpt>
<trkpt lat="31.7578900" lon="35.1406500">
<ele>694.460022</ele>
<time>2021-04-13T14:59:59.752Z</time>
</trkpt>
<trkpt lat="31.7574800" lon="35.1407300">
<ele>701.929993</ele>
<time>2021-04-13T14:59:59.753Z</time>
</trkpt>
<trkpt lat="31.7573200" lon="35.1407100">
<ele>703.380005</ele>
<time>2021-04-13T14:59:59.753Z</time>
</trkpt>
<trkpt lat="31.7571000" lon="35.1406500">
<ele>701.339966</ele>
<time>2021-04-13T14:59:59.753Z</time>
</trkpt>
<trkpt lat="31.7567400" lon="35.1406400">
<ele>702.020020</ele>
<time>2021-04-13T14:59:59.753Z</time>
</trkpt>
<trkpt lat="31.7564300" lon="35.1407100">
<ele>705.760010</ele>
<time>2021-04-13T14:59:59.753Z</time>
</trkpt>
<trkpt lat="31.7563600" lon="35.1407000">
<ele>706.410034</ele>
<time>2021-04-13T14:59:59.753Z</time>
</trkpt>
<trkpt lat="31.7563600" lon="35.1407000">
<ele>706.410034</ele>
<time>2021-04-13T14:59:59.753Z</time>
</trkpt>
<trkpt lat="31.7563300" lon="35.1406300">
<ele>705.809998</ele>
<time>2021-04-13T14:59:59.753Z</time>
</trkpt>
<trkpt lat="31.7563500" lon="35.1405500">
<ele>703.570007</ele>
<time>2021-04-13T14:59:59.753Z</time>
</trkpt>
<trkpt lat="31.7564500" lon="35.1404300">
<ele>701.510010</ele>
<time>2021-04-13T14:59:59.753Z</time>
</trkpt>
<trkpt lat="31.7565200" lon="35.1403900">
<ele>700.250000</ele>
<time>2021-04-13T14:59:59.753Z</time>
</trkpt>
<trkpt lat="31.7566500" lon="35.1403500">
<ele>697.380005</ele>
<time>2021-04-13T14:59:59.753Z</time>
</trkpt>
<trkpt lat="31.7567100" lon="35.1402900">
<ele>695.260010</ele>
<time>2021-04-13T14:59:59.753Z</time>
</trkpt>
<trkpt lat="31.7568200" lon="35.1401500">
<ele>693.000000</ele>
<time>2021-04-13T14:59:59.753Z</time>
</trkpt>
<trkpt lat="31.7570600" lon="35.1397400">
<ele>689.640015</ele>
<time>2021-04-13T14:59:59.753Z</time>
</trkpt>
<trkpt lat="31.7571300" lon="35.1396500">
<ele>690.380066</ele>
<time>2021-04-13T14:59:59.753Z</time>
</trkpt>
<trkpt lat="31.7572400" lon="35.1395200">
<ele>690.210022</ele>
<time>2021-04-13T14:59:59.753Z</time>
</trkpt>
<trkpt lat="31.7574400" lon="35.1393000">
<ele>686.719971</ele>
<time>2021-04-13T14:59:59.753Z</time>
</trkpt>
<trkpt lat="31.7577000" lon="35.1390800">
<ele>674.910034</ele>
<time>2021-04-13T14:59:59.753Z</time>
</trkpt>
<trkpt lat="31.7579100" lon="35.1387600">
<ele>672.809998</ele>
<time>2021-04-13T14:59:59.753Z</time>
</trkpt>
<trkpt lat="31.7579800" lon="35.1386300">
<ele>672.770020</ele>
<time>2021-04-13T14:59:59.753Z</time>
</trkpt>
<trkpt lat="31.7580800" lon="35.1383500">
<ele>678.419983</ele>
<time>2021-04-13T14:59:59.753Z</time>
</trkpt>
<trkpt lat="31.7581100" lon="35.1382300">
<ele>677.849976</ele>
<time>2021-04-13T14:59:59.754Z</time>
</trkpt>
<trkpt lat="31.7581500" lon="35.1381100">
<ele>676.290039</ele>
<time>2021-04-13T14:59:59.754Z</time>
</trkpt>
<trkpt lat="31.7581400" lon="35.1380300">
<ele>677.620056</ele>
<time>2021-04-13T14:59:59.754Z</time>
</trkpt>
<trkpt lat="31.7580600" lon="35.1378800">
<ele>683.340027</ele>
<time>2021-04-13T14:59:59.754Z</time>
</trkpt>
<trkpt lat="31.7580600" lon="35.1376700">
<ele>682.179993</ele>
<time>2021-04-13T14:59:59.754Z</time>
</trkpt>
<trkpt lat="31.7580800" lon="35.1374400">
<ele>678.460022</ele>
<time>2021-04-13T14:59:59.754Z</time>
</trkpt>
<trkpt lat="31.7580200" lon="35.1372000">
<ele>679.970032</ele>
<time>2021-04-13T14:59:59.754Z</time>
</trkpt>
<trkpt lat="31.7578700" lon="35.1369600">
<ele>682.530029</ele>
<time>2021-04-13T14:59:59.754Z</time>
</trkpt>
<trkpt lat="31.7578100" lon="35.1368500">
<ele>682.500061</ele>
<time>2021-04-13T14:59:59.754Z</time>
</trkpt>
<trkpt lat="31.7577300" lon="35.1367500">
<ele>682.669983</ele>
<time>2021-04-13T14:59:59.754Z</time>
</trkpt>
<trkpt lat="31.7574800" lon="35.1363700">
<ele>683.940002</ele>
<time>2021-04-13T14:59:59.754Z</time>
</trkpt>
<trkpt lat="31.7573200" lon="35.1362900">
<ele>684.469971</ele>
<time>2021-04-13T14:59:59.754Z</time>
</trkpt>
<trkpt lat="31.7570100" lon="35.1360900">
<ele>678.209961</ele>
<time>2021-04-13T14:59:59.754Z</time>
</trkpt>
<trkpt lat="31.7568300" lon="35.1361400">
<ele>682.450012</ele>
<time>2021-04-13T14:59:59.755Z</time>
</trkpt>
<trkpt lat="31.7564800" lon="35.1362800">
<ele>685.880005</ele>
<time>2021-04-13T14:59:59.755Z</time>
</trkpt>
<trkpt lat="31.7560700" lon="35.1365300">
<ele>695.750000</ele>
<time>2021-04-13T14:59:59.755Z</time>
</trkpt>
<trkpt lat="31.7556900" lon="35.1366800">
<ele>711.890015</ele>
<time>2021-04-13T14:59:59.755Z</time>
</trkpt>
<trkpt lat="31.7556200" lon="35.1366900">
<ele>714.849976</ele>
<time>2021-04-13T14:59:59.755Z</time>
</trkpt>
<trkpt lat="31.7554000" lon="35.1365800">
<ele>719.720032</ele>
<time>2021-04-13T14:59:59.755Z</time>
</trkpt>
<trkpt lat="31.7553600" lon="35.1367300">
<ele>723.450012</ele>
<time>2021-04-13T14:59:59.755Z</time>
</trkpt>
<trkpt lat="31.7552500" lon="35.1367100">
<ele>726.420044</ele>
<time>2021-04-13T14:59:59.755Z</time>
</trkpt>
<trkpt lat="31.7550700" lon="35.1366700">
<ele>732.489990</ele>
<time>2021-04-13T14:59:59.755Z</time>
</trkpt>
<trkpt lat="31.7549400" lon="35.1366000">
<ele>733.500000</ele>
<time>2021-04-13T14:59:59.755Z</time>
</trkpt>
<trkpt lat="31.7549000" lon="35.1365300">
<ele>732.129944</ele>
<time>2021-04-13T14:59:59.755Z</time>
</trkpt>
<trkpt lat="31.7548900" lon="35.1364700">
<ele>730.849976</ele>
<time>2021-04-13T14:59:59.755Z</time>
</trkpt>
<trkpt lat="31.7548900" lon="35.1364700">
<ele>730.849976</ele>
<time>2021-04-13T14:59:59.755Z</time>
</trkpt>
<trkpt lat="31.7548900" lon="35.1364700">
<ele>730.849976</ele>
<time>2021-04-13T14:59:59.755Z</time>
</trkpt>
<trkpt lat="31.7548900" lon="35.1364100">
<ele>729.469971</ele>
<time>2021-04-13T14:59:59.755Z</time>
</trkpt>
<trkpt lat="31.7549200" lon="35.1360700">
<ele>717.000000</ele>
<time>2021-04-13T14:59:59.755Z</time>
</trkpt>
<trkpt lat="31.7549800" lon="35.1356500">
<ele>703.780029</ele>
<time>2021-04-13T14:59:59.755Z</time>
</trkpt>
<trkpt lat="31.7549400" lon="35.1353900">
<ele>704.519958</ele>
<time>2021-04-13T14:59:59.755Z</time>
</trkpt>
<trkpt lat="31.7548400" lon="35.1351500">
<ele>707.679993</ele>
<time>2021-04-13T14:59:59.756Z</time>
</trkpt>
<trkpt lat="31.7547600" lon="35.1350000">
<ele>710.099976</ele>
<time>2021-04-13T14:59:59.756Z</time>
</trkpt>
<trkpt lat="31.7545100" lon="35.1347000">
<ele>719.119995</ele>
<time>2021-04-13T14:59:59.756Z</time>
</trkpt>
<trkpt lat="31.7543600" lon="35.1344600">
<ele>721.869995</ele>
<time>2021-04-13T14:59:59.756Z</time>
</trkpt>
<trkpt lat="31.7542500" lon="35.1343400">
<ele>724.140015</ele>
<time>2021-04-13T14:59:59.756Z</time>
</trkpt>
<trkpt lat="31.7542400" lon="35.1342400">
<ele>722.419983</ele>
<time>2021-04-13T14:59:59.756Z</time>
</trkpt>
<trkpt lat="31.7542100" lon="35.1340400">
<ele>719.179993</ele>
<time>2021-04-13T14:59:59.756Z</time>
</trkpt>
<trkpt lat="31.7541400" lon="35.1338700">
<ele>718.590027</ele>
<time>2021-04-13T14:59:59.756Z</time>
</trkpt>
<trkpt lat="31.7540600" lon="35.1337400">
<ele>718.249939</ele>
<time>2021-04-13T14:59:59.756Z</time>
</trkpt>
<trkpt lat="31.7540400" lon="35.1336600">
<ele>716.820007</ele>
<time>2021-04-13T14:59:59.756Z</time>
</trkpt>
<trkpt lat="31.7540300" lon="35.1334500">
<ele>711.510010</ele>
<time>2021-04-13T14:59:59.756Z</time>
</trkpt>
<trkpt lat="31.7539900" lon="35.1332700">
<ele>709.650024</ele>
<time>2021-04-13T14:59:59.756Z</time>
</trkpt>
<trkpt lat="31.7539500" lon="35.1331100">
<ele>708.549988</ele>
<time>2021-04-13T14:59:59.757Z</time>
</trkpt>
<trkpt lat="31.7538900" lon="35.1330000">
<ele>709.330017</ele>
<time>2021-04-13T14:59:59.757Z</time>
</trkpt>
<trkpt lat="31.7537600" lon="35.1328500">
<ele>711.130005</ele>
<time>2021-04-13T14:59:59.757Z</time>
</trkpt>
<trkpt lat="31.7535800" lon="35.1327200">
<ele>714.660034</ele>
<time>2021-04-13T14:59:59.757Z</time>
</trkpt>
<trkpt lat="31.7534600" lon="35.1326200">
<ele>714.459961</ele>
<time>2021-04-13T14:59:59.757Z</time>
</trkpt>
<trkpt lat="31.7532100" lon="35.1324600">
<ele>711.210022</ele>
<time>2021-04-13T14:59:59.757Z</time>
</trkpt>
<trkpt lat="31.7530000" lon="35.1323800">
<ele>713.880005</ele>
<time>2021-04-13T14:59:59.757Z</time>
</trkpt>
<trkpt lat="31.7526800" lon="35.1323000">
<ele>718.919983</ele>
<time>2021-04-13T14:59:59.757Z</time>
</trkpt>
<trkpt lat="31.7522200" lon="35.1322100">
<ele>718.460022</ele>
<time>2021-04-13T14:59:59.757Z</time>
</trkpt>
<trkpt lat="31.7520100" lon="35.1321800">
<ele>716.409973</ele>
<time>2021-04-13T14:59:59.757Z</time>
</trkpt>
<trkpt lat="31.7517300" lon="35.1321100">
<ele>716.859985</ele>
<time>2021-04-13T14:59:59.757Z</time>
</trkpt>
<trkpt lat="31.7516600" lon="35.1320700">
<ele>716.729980</ele>
<time>2021-04-13T14:59:59.757Z</time>
</trkpt>
<trkpt lat="31.7516200" lon="35.1320100">
<ele>716.010010</ele>
<time>2021-04-13T14:59:59.757Z</time>
</trkpt>
<trkpt lat="31.7515900" lon="35.1312300">
<ele>710.299988</ele>
<time>2021-04-13T14:59:59.757Z</time>
</trkpt>
<trkpt lat="31.7516500" lon="35.1308900">
<ele>711.219971</ele>
<time>2021-04-13T14:59:59.757Z</time>
</trkpt>
<trkpt lat="31.7517600" lon="35.1307800">
<ele>708.840027</ele>
<time>2021-04-13T14:59:59.757Z</time>
</trkpt>
<trkpt lat="31.7518600" lon="35.1306500">
<ele>706.789978</ele>
<time>2021-04-13T14:59:59.757Z</time>
</trkpt>
<trkpt lat="31.7519100" lon="35.1305500">
<ele>705.890015</ele>
<time>2021-04-13T14:59:59.758Z</time>
</trkpt>
<trkpt lat="31.7523200" lon="35.1295700">
<ele>709.410034</ele>
<time>2021-04-13T14:59:59.758Z</time>
</trkpt>
<trkpt lat="31.7523400" lon="35.1294900">
<ele>709.750000</ele>
<time>2021-04-13T14:59:59.758Z</time>
</trkpt>
<trkpt lat="31.7524100" lon="35.1291200">
<ele>718.029968</ele>
<time>2021-04-13T14:59:59.758Z</time>
</trkpt>
<trkpt lat="31.7524000" lon="35.1290200">
<ele>720.130005</ele>
<time>2021-04-13T14:59:59.758Z</time>
</trkpt>
<trkpt lat="31.7523600" lon="35.1288800">
<ele>723.080017</ele>
<time>2021-04-13T14:59:59.758Z</time>
</trkpt>
<trkpt lat="31.7522800" lon="35.1288200">
<ele>723.840027</ele>
<time>2021-04-13T14:59:59.758Z</time>
</trkpt>
<trkpt lat="31.7522300" lon="35.1287200">
<ele>725.380005</ele>
<time>2021-04-13T14:59:59.758Z</time>
</trkpt>
<trkpt lat="31.7520400" lon="35.1285700">
<ele>728.630005</ele>
<time>2021-04-13T14:59:59.758Z</time>
</trkpt>
<trkpt lat="31.7518600" lon="35.1285500">
<ele>729.469971</ele>
<time>2021-04-13T14:59:59.758Z</time>
</trkpt>
<trkpt lat="31.7518100" lon="35.1285400">
<ele>729.480042</ele>
<time>2021-04-13T14:59:59.758Z</time>
</trkpt>
<trkpt lat="31.7515000" lon="35.1283800">
<ele>731.269958</ele>
<time>2021-04-13T14:59:59.758Z</time>
</trkpt>
<trkpt lat="31.7512700" lon="35.1282100">
<ele>732.400024</ele>
<time>2021-04-13T14:59:59.758Z</time>
</trkpt>
<trkpt lat="31.7510200" lon="35.1280600">
<ele>732.380005</ele>
<time>2021-04-13T14:59:59.758Z</time>
</trkpt>
<trkpt lat="31.7510100" lon="35.1280500">
<ele>732.220032</ele>
<time>2021-04-13T14:59:59.758Z</time>
</trkpt>
<trkpt lat="31.7510100" lon="35.1280500">
<ele>732.220032</ele>
<time>2021-04-13T14:59:59.759Z</time>
</trkpt>
<trkpt lat="31.7507100" lon="35.1277700">
<ele>726.140015</ele>
<time>2021-04-13T14:59:59.759Z</time>
</trkpt>
<trkpt lat="31.7506400" lon="35.1277600">
<ele>725.650024</ele>
<time>2021-04-13T14:59:59.759Z</time>
</trkpt>
<trkpt lat="31.7505600" lon="35.1277900">
<ele>725.029968</ele>
<time>2021-04-13T14:59:59.759Z</time>
</trkpt>
<trkpt lat="31.7505100" lon="35.1278600">
<ele>724.509949</ele>
<time>2021-04-13T14:59:59.759Z</time>
</trkpt>
<trkpt lat="31.7504700" lon="35.1279400">
<ele>724.080017</ele>
<time>2021-04-13T14:59:59.759Z</time>
</trkpt>
<trkpt lat="31.7504700" lon="35.1279600">
<ele>724.080017</ele>
<time>2021-04-13T14:59:59.759Z</time>
</trkpt>
<trkpt lat="31.7503300" lon="35.1284400">
<ele>725.659973</ele>
<time>2021-04-13T14:59:59.759Z</time>
</trkpt>
<trkpt lat="31.7501800" lon="35.1287200">
<ele>725.630005</ele>
<time>2021-04-13T14:59:59.759Z</time>
</trkpt>
<trkpt lat="31.7500500" lon="35.1290300">
<ele>726.929993</ele>
<time>2021-04-13T14:59:59.759Z</time>
</trkpt>
<trkpt lat="31.7498800" lon="35.1295100">
<ele>729.679993</ele>
<time>2021-04-13T14:59:59.759Z</time>
</trkpt>
<trkpt lat="31.7498400" lon="35.1297900">
<ele>729.500000</ele>
<time>2021-04-13T14:59:59.759Z</time>
</trkpt>
<trkpt lat="31.7497200" lon="35.1302400">
<ele>726.820007</ele>
<time>2021-04-13T14:59:59.759Z</time>
</trkpt>
<trkpt lat="31.7496700" lon="35.1303500">
<ele>726.279968</ele>
<time>2021-04-13T14:59:59.759Z</time>
</trkpt>
<trkpt lat="31.7492800" lon="35.1307000">
<ele>723.030029</ele>
<time>2021-04-13T14:59:59.759Z</time>
</trkpt>
<trkpt lat="31.7492600" lon="35.1307200">
<ele>722.909973</ele>
<time>2021-04-13T14:59:59.759Z</time>
</trkpt>
<trkpt lat="31.7489900" lon="35.1309300">
<ele>723.660034</ele>
<time>2021-04-13T14:59:59.759Z</time>
</trkpt>
<trkpt lat="31.7488200" lon="35.1310800">
<ele>726.359985</ele>
<time>2021-04-13T14:59:59.760Z</time>
</trkpt>
<trkpt lat="31.7485600" lon="35.1313000">
<ele>727.069946</ele>
<time>2021-04-13T14:59:59.760Z</time>
</trkpt>
<trkpt lat="31.7480000" lon="35.1317200">
<ele>724.459961</ele>
<time>2021-04-13T14:59:59.760Z</time>
</trkpt>
<trkpt lat="31.7476100" lon="35.1320800">
<ele>726.939941</ele>
<time>2021-04-13T14:59:59.760Z</time>
</trkpt>
<trkpt lat="31.7475700" lon="35.1321100">
<ele>726.599976</ele>
<time>2021-04-13T14:59:59.760Z</time>
</trkpt>
<trkpt lat="31.7475300" lon="35.1321400">
<ele>726.309998</ele>
<time>2021-04-13T14:59:59.760Z</time>
</trkpt>
<trkpt lat="31.7473900" lon="35.1321100">
<ele>724.429993</ele>
<time>2021-04-13T14:59:59.760Z</time>
</trkpt>
<trkpt lat="31.7471600" lon="35.1317500">
<ele>714.290039</ele>
<time>2021-04-13T14:59:59.760Z</time>
</trkpt>
<trkpt lat="31.7470200" lon="35.1317400">
<ele>712.280029</ele>
<time>2021-04-13T14:59:59.760Z</time>
</trkpt>
<trkpt lat="31.7468200" lon="35.1317400">
<ele>710.750000</ele>
<time>2021-04-13T14:59:59.760Z</time>
</trkpt>
<trkpt lat="31.7465000" lon="35.1318600">
<ele>710.820007</ele>
<time>2021-04-13T14:59:59.760Z</time>
</trkpt>
<trkpt lat="31.7459400" lon="35.1323800">
<ele>712.510010</ele>
<time>2021-04-13T14:59:59.760Z</time>
</trkpt>
<trkpt lat="31.7460200" lon="35.1322300">
<ele>712.089966</ele>
<time>2021-04-13T14:59:59.760Z</time>
</trkpt>
<trkpt lat="31.7459400" lon="35.1323800">
<ele>712.510010</ele>
<time>2021-04-13T14:59:59.760Z</time>
</trkpt>
<trkpt lat="31.7458500" lon="35.1329600">
<ele>718.720032</ele>
<time>2021-04-13T14:59:59.760Z</time>
</trkpt>
<trkpt lat="31.7458400" lon="35.1330300">
<ele>719.679993</ele>
<time>2021-04-13T14:59:59.760Z</time>
</trkpt>
<trkpt lat="31.7456800" lon="35.1338000">
<ele>721.139954</ele>
<time>2021-04-13T14:59:59.760Z</time>
</trkpt>
<trkpt lat="31.7456600" lon="35.1341300">
<ele>720.959961</ele>
<time>2021-04-13T14:59:59.760Z</time>
</trkpt>
<trkpt lat="31.7456900" lon="35.1343700">
<ele>722.250000</ele>
<time>2021-04-13T14:59:59.760Z</time>
</trkpt>
<trkpt lat="31.7457700" lon="35.1347400">
<ele>724.789978</ele>
<time>2021-04-13T14:59:59.761Z</time>
</trkpt>
<trkpt lat="31.7460300" lon="35.1354400">
<ele>725.200012</ele>
<time>2021-04-13T14:59:59.761Z</time>
</trkpt>
<trkpt lat="31.7460300" lon="35.1354900">
<ele>725.150024</ele>
<time>2021-04-13T14:59:59.761Z</time>
</trkpt>
<trkpt lat="31.7460200" lon="35.1355900">
<ele>725.220032</ele>
<time>2021-04-13T14:59:59.761Z</time>
</trkpt>
<trkpt lat="31.7459800" lon="35.1356500">
<ele>724.639954</ele>
<time>2021-04-13T14:59:59.761Z</time>
</trkpt>
<trkpt lat="31.7459100" lon="35.1356900">
<ele>722.700012</ele>
<time>2021-04-13T14:59:59.761Z</time>
</trkpt>
<trkpt lat="31.7458800" lon="35.1356900">
<ele>721.620056</ele>
<time>2021-04-13T14:59:59.761Z</time>
</trkpt>
<trkpt lat="31.7457500" lon="35.1357100">
<ele>718.360046</ele>
<time>2021-04-13T14:59:59.761Z</time>
</trkpt>
<trkpt lat="31.7454100" lon="35.1357100">
<ele>711.789978</ele>
<time>2021-04-13T14:59:59.761Z</time>
</trkpt>
<trkpt lat="31.7450800" lon="35.1356700">
<ele>710.820007</ele>
<time>2021-04-13T14:59:59.761Z</time>
</trkpt>
<trkpt lat="31.7448000" lon="35.1356300">
<ele>711.340027</ele>
<time>2021-04-13T14:59:59.761Z</time>
</trkpt>
<trkpt lat="31.7446900" lon="35.1355400">
<ele>709.659973</ele>
<time>2021-04-13T14:59:59.761Z</time>
</trkpt>
<trkpt lat="31.7446200" lon="35.1355000">
<ele>709.109985</ele>
<time>2021-04-13T14:59:59.761Z</time>
</trkpt>
<trkpt lat="31.7442400" lon="35.1354100">
<ele>707.760010</ele>
<time>2021-04-13T14:59:59.761Z</time>
</trkpt>
<trkpt lat="31.7438900" lon="35.1352700">
<ele>705.899963</ele>
<time>2021-04-13T14:59:59.761Z</time>
</trkpt>
<trkpt lat="31.7437800" lon="35.1352000">
<ele>705.659973</ele>
<time>2021-04-13T14:59:59.761Z</time>
</trkpt>
<trkpt lat="31.7433600" lon="35.1348900">
<ele>706.489990</ele>
<time>2021-04-13T14:59:59.761Z</time>
</trkpt>
<trkpt lat="31.7430900" lon="35.1346700">
<ele>713.539978</ele>
<time>2021-04-13T14:59:59.761Z</time>
</trkpt>
<trkpt lat="31.7429500" lon="35.1345700">
<ele>714.019958</ele>
<time>2021-04-13T14:59:59.761Z</time>
</trkpt>
<trkpt lat="31.7429500" lon="35.1345700">
<ele>714.019958</ele>
<time>2021-04-13T14:59:59.761Z</time>
</trkpt>
<trkpt lat="31.7426000" lon="35.1343400">
<ele>713.380005</ele>
<time>2021-04-13T14:59:59.761Z</time>
</trkpt>
<trkpt lat="31.7422400" lon="35.1341300">
<ele>704.580017</ele>
<time>2021-04-13T14:59:59.761Z</time>
</trkpt>
<trkpt lat="31.7415000" lon="35.1338000">
<ele>699.130005</ele>
<time>2021-04-13T14:59:59.762Z</time>
</trkpt>
<trkpt lat="31.7411900" lon="35.1336100">
<ele>698.710022</ele>
<time>2021-04-13T14:59:59.762Z</time>
</trkpt>
<trkpt lat="31.7410600" lon="35.1335000">
<ele>698.669983</ele>
<time>2021-04-13T14:59:59.762Z</time>
</trkpt>
<trkpt lat="31.7407200" lon="35.1331300">
<ele>694.429993</ele>
<time>2021-04-13T14:59:59.762Z</time>
</trkpt>
<trkpt lat="31.7403700" lon="35.1326800">
<ele>689.630005</ele>
<time>2021-04-13T14:59:59.762Z</time>
</trkpt>
<trkpt lat="31.7401600" lon="35.1324600">
<ele>688.270020</ele>
<time>2021-04-13T14:59:59.762Z</time>
</trkpt>
<trkpt lat="31.7400300" lon="35.1322500">
<ele>687.009949</ele>
<time>2021-04-13T14:59:59.762Z</time>
</trkpt>
<trkpt lat="31.7398000" lon="35.1320800">
<ele>681.260010</ele>
<time>2021-04-13T14:59:59.762Z</time>
</trkpt>
<trkpt lat="31.7397300" lon="35.1320300">
<ele>679.240051</ele>
<time>2021-04-13T14:59:59.762Z</time>
</trkpt>
<trkpt lat="31.7395400" lon="35.1319200">
<ele>669.159973</ele>
<time>2021-04-13T14:59:59.762Z</time>
</trkpt>
<trkpt lat="31.7394000" lon="35.1318700">
<ele>663.309998</ele>
<time>2021-04-13T14:59:59.762Z</time>
</trkpt>
<trkpt lat="31.7393100" lon="35.1318600">
<ele>660.419983</ele>
<time>2021-04-13T14:59:59.762Z</time>
</trkpt>
<trkpt lat="31.7392000" lon="35.1318800">
<ele>657.330017</ele>
<time>2021-04-13T14:59:59.762Z</time>
</trkpt>
<trkpt lat="31.7391000" lon="35.1319000">
<ele>656.839966</ele>
<time>2021-04-13T14:59:59.763Z</time>
</trkpt>
<trkpt lat="31.7389800" lon="35.1319700">
<ele>658.250000</ele>
<time>2021-04-13T14:59:59.763Z</time>
</trkpt>
<trkpt lat="31.7388500" lon="35.1320600">
<ele>660.400024</ele>
<time>2021-04-13T14:59:59.763Z</time>
</trkpt>
<trkpt lat="31.7386700" lon="35.1322300">
<ele>661.730042</ele>
<time>2021-04-13T14:59:59.763Z</time>
</trkpt>
<trkpt lat="31.7385500" lon="35.1323700">
<ele>661.390015</ele>
<time>2021-04-13T14:59:59.763Z</time>
</trkpt>
<trkpt lat="31.7384800" lon="35.1325300">
<ele>661.959961</ele>
<time>2021-04-13T14:59:59.763Z</time>
</trkpt>
<trkpt lat="31.7384200" lon="35.1328300">
<ele>663.809998</ele>
<time>2021-04-13T14:59:59.763Z</time>
</trkpt>
<trkpt lat="31.7383800" lon="35.1332000">
<ele>664.010010</ele>
<time>2021-04-13T14:59:59.763Z</time>
</trkpt>
<trkpt lat="31.7384100" lon="35.1336100">
<ele>663.489990</ele>
<time>2021-04-13T14:59:59.763Z</time>
</trkpt>
<trkpt lat="31.7384100" lon="35.1341300">
<ele>657.750000</ele>
<time>2021-04-13T14:59:59.763Z</time>
</trkpt>
<trkpt lat="31.7383900" lon="35.1345500">
<ele>655.760010</ele>
<time>2021-04-13T14:59:59.763Z</time>
</trkpt>
<trkpt lat="31.7384100" lon="35.1352800">
<ele>651.589966</ele>
<time>2021-04-13T14:59:59.763Z</time>
</trkpt>
<trkpt lat="31.7383800" lon="35.1357100">
<ele>648.900024</ele>
<time>2021-04-13T14:59:59.763Z</time>
</trkpt>
<trkpt lat="31.7383200" lon="35.1361500">
<ele>643.620056</ele>
<time>2021-04-13T14:59:59.763Z</time>
</trkpt>
<trkpt lat="31.7381200" lon="35.1367900">
<ele>639.210022</ele>
<time>2021-04-13T14:59:59.763Z</time>
</trkpt>
<trkpt lat="31.7380700" lon="35.1370200">
<ele>638.299988</ele>
<time>2021-04-13T14:59:59.763Z</time>
</trkpt>
<trkpt lat="31.7379100" lon="35.1376100">
<ele>633.329956</ele>
<time>2021-04-13T14:59:59.763Z</time>
</trkpt>
<trkpt lat="31.7378900" lon="35.1377500">
<ele>633.130005</ele>
<time>2021-04-13T14:59:59.763Z</time>
</trkpt>
<trkpt lat="31.7379000" lon="35.1378700">
<ele>632.909973</ele>
<time>2021-04-13T14:59:59.764Z</time>
</trkpt>
<trkpt lat="31.7379000" lon="35.1379100">
<ele>632.559998</ele>
<time>2021-04-13T14:59:59.764Z</time>
</trkpt>
<trkpt lat="31.7379300" lon="35.1381100">
<ele>631.269958</ele>
<time>2021-04-13T14:59:59.764Z</time>
</trkpt>
<trkpt lat="31.7379900" lon="35.1383300">
<ele>627.960022</ele>
<time>2021-04-13T14:59:59.764Z</time>
</trkpt>
<trkpt lat="31.7381200" lon="35.1385800">
<ele>626.339966</ele>
<time>2021-04-13T14:59:59.764Z</time>
</trkpt>
<trkpt lat="31.7381300" lon="35.1386600">
<ele>626.209961</ele>
<time>2021-04-13T14:59:59.764Z</time>
</trkpt>
<trkpt lat="31.7380900" lon="35.1387700">
<ele>625.369995</ele>
<time>2021-04-13T14:59:59.764Z</time>
</trkpt>
<trkpt lat="31.7380300" lon="35.1388200">
<ele>623.739990</ele>
<time>2021-04-13T14:59:59.764Z</time>
</trkpt>
<trkpt lat="31.7379600" lon="35.1388300">
<ele>621.700012</ele>
<time>2021-04-13T14:59:59.764Z</time>
</trkpt>
<trkpt lat="31.7377300" lon="35.1388000">
<ele>613.330017</ele>
<time>2021-04-13T14:59:59.764Z</time>
</trkpt>
<trkpt lat="31.7371200" lon="35.1388700">
<ele>590.090027</ele>
<time>2021-04-13T14:59:59.764Z</time>
</trkpt>
<trkpt lat="31.7366400" lon="35.1388700">
<ele>580.639954</ele>
<time>2021-04-13T14:59:59.764Z</time>
</trkpt>
<trkpt lat="31.7364900" lon="35.1389000">
<ele>585.229980</ele>
<time>2021-04-13T14:59:59.764Z</time>
</trkpt>
<trkpt lat="31.7359800" lon="35.1390300">
<ele>583.520020</ele>
<time>2021-04-13T14:59:59.764Z</time>
</trkpt>
<trkpt lat="31.7355800" lon="35.1390700">
<ele>570.239990</ele>
<time>2021-04-13T14:59:59.764Z</time>
</trkpt>
<trkpt lat="31.7349000" lon="35.1390900">
<ele>557.859985</ele>
<time>2021-04-13T14:59:59.764Z</time>
</trkpt>
<trkpt lat="31.7348300" lon="35.1391100">
<ele>556.260010</ele>
<time>2021-04-13T14:59:59.764Z</time>
</trkpt>
<trkpt lat="31.7346400" lon="35.1391400">
<ele>553.780029</ele>
<time>2021-04-13T14:59:59.764Z</time>
</trkpt>
<trkpt lat="31.7344600" lon="35.1392300">
<ele>558.710022</ele>
<time>2021-04-13T14:59:59.764Z</time>
</trkpt>
<trkpt lat="31.7340000" lon="35.1393800">
<ele>572.479980</ele>
<time>2021-04-13T14:59:59.764Z</time>
</trkpt>
<trkpt lat="31.7338400" lon="35.1394200">
<ele>578.440002</ele>
<time>2021-04-13T14:59:59.764Z</time>
</trkpt>
<trkpt lat="31.7337200" lon="35.1394600">
<ele>581.339966</ele>
<time>2021-04-13T14:59:59.765Z</time>
</trkpt>
<trkpt lat="31.7335500" lon="35.1394500">
<ele>581.220032</ele>
<time>2021-04-13T14:59:59.765Z</time>
</trkpt>
<trkpt lat="31.7333200" lon="35.1394900">
<ele>586.940002</ele>
<time>2021-04-13T14:59:59.765Z</time>
</trkpt>
<trkpt lat="31.7331000" lon="35.1395900">
<ele>592.989990</ele>
<time>2021-04-13T14:59:59.765Z</time>
</trkpt>
<trkpt lat="31.7329900" lon="35.1396700">
<ele>594.909973</ele>
<time>2021-04-13T14:59:59.765Z</time>
</trkpt>
<trkpt lat="31.7330000" lon="35.1398100">
<ele>601.369995</ele>
<time>2021-04-13T14:59:59.765Z</time>
</trkpt>
<trkpt lat="31.7330600" lon="35.1398800">
<ele>605.559998</ele>
<time>2021-04-13T14:59:59.765Z</time>
</trkpt>
<trkpt lat="31.7331000" lon="35.1399300">
<ele>607.139954</ele>
<time>2021-04-13T14:59:59.765Z</time>
</trkpt>
<trkpt lat="31.7332300" lon="35.1401700">
<ele>608.789978</ele>
<time>2021-04-13T14:59:59.765Z</time>
</trkpt>
<trkpt lat="31.7333300" lon="35.1403200">
<ele>608.510010</ele>
<time>2021-04-13T14:59:59.765Z</time>
</trkpt>
<trkpt lat="31.7333700" lon="35.1403700">
<ele>608.359985</ele>
<time>2021-04-13T14:59:59.765Z</time>
</trkpt>
<trkpt lat="31.7334500" lon="35.1405000">
<ele>608.109985</ele>
<time>2021-04-13T14:59:59.765Z</time>
</trkpt>
<trkpt lat="31.7335500" lon="35.1407700">
<ele>607.669983</ele>
<time>2021-04-13T14:59:59.765Z</time>
</trkpt>
<trkpt lat="31.7335900" lon="35.1408700">
<ele>607.839966</ele>
<time>2021-04-13T14:59:59.765Z</time>
</trkpt>
<trkpt lat="31.7336100" lon="35.1409000">
<ele>608.010010</ele>
<time>2021-04-13T14:59:59.765Z</time>
</trkpt>
<trkpt lat="31.7336900" lon="35.1410300">
<ele>607.789978</ele>
<time>2021-04-13T14:59:59.765Z</time>
</trkpt>
<trkpt lat="31.7337500" lon="35.1411300">
<ele>607.760010</ele>
<time>2021-04-13T14:59:59.765Z</time>
</trkpt>
<trkpt lat="31.7339000" lon="35.1414300">
<ele>607.539978</ele>
<time>2021-04-13T14:59:59.766Z</time>
</trkpt>
<trkpt lat="31.7340300" lon="35.1417500">
<ele>605.059998</ele>
<time>2021-04-13T14:59:59.766Z</time>
</trkpt>
<trkpt lat="31.7340900" lon="35.1420400">
<ele>602.890015</ele>
<time>2021-04-13T14:59:59.766Z</time>
</trkpt>
<trkpt lat="31.7341400" lon="35.1422700">
<ele>603.450012</ele>
<time>2021-04-13T14:59:59.766Z</time>
</trkpt>
<trkpt lat="31.7342400" lon="35.1425600">
<ele>604.200012</ele>
<time>2021-04-13T14:59:59.766Z</time>
</trkpt>
<trkpt lat="31.7343600" lon="35.1428000">
<ele>604.610046</ele>
<time>2021-04-13T14:59:59.766Z</time>
</trkpt>
<trkpt lat="31.7344000" lon="35.1430100">
<ele>603.239990</ele>
<time>2021-04-13T14:59:59.766Z</time>
</trkpt>
<trkpt lat="31.7344100" lon="35.1430400">
<ele>603.179993</ele>
<time>2021-04-13T14:59:59.766Z</time>
</trkpt>
<trkpt lat="31.7345000" lon="35.1436200">
<ele>605.049988</ele>
<time>2021-04-13T14:59:59.766Z</time>
</trkpt>
<trkpt lat="31.7345800" lon="35.1440600">
<ele>602.119995</ele>
<time>2021-04-13T14:59:59.766Z</time>
</trkpt>
<trkpt lat="31.7346300" lon="35.1442200">
<ele>601.520020</ele>
<time>2021-04-13T14:59:59.766Z</time>
</trkpt>
<trkpt lat="31.7346800" lon="35.1443500">
<ele>601.770020</ele>
<time>2021-04-13T14:59:59.766Z</time>
</trkpt>
<trkpt lat="31.7346800" lon="35.1444500">
<ele>600.119995</ele>
<time>2021-04-13T14:59:59.766Z</time>
</trkpt>
<trkpt lat="31.7346700" lon="35.1445900">
<ele>598.270020</ele>
<time>2021-04-13T14:59:59.766Z</time>
</trkpt>
<trkpt lat="31.7347400" lon="35.1447200">
<ele>599.919983</ele>
<time>2021-04-13T14:59:59.766Z</time>
</trkpt>
<trkpt lat="31.7348300" lon="35.1448000">
<ele>602.880005</ele>
<time>2021-04-13T14:59:59.766Z</time>
</trkpt>
<trkpt lat="31.7349600" lon="35.1448900">
<ele>606.500000</ele>
<time>2021-04-13T14:59:59.766Z</time>
</trkpt>
<trkpt lat="31.7353200" lon="35.1451000">
<ele>610.000000</ele>
<time>2021-04-13T14:59:59.766Z</time>
</trkpt>
<trkpt lat="31.7354800" lon="35.1452500">
<ele>611.760010</ele>
<time>2021-04-13T14:59:59.766Z</time>
</trkpt>
<trkpt lat="31.7355700" lon="35.1453500">
<ele>611.760010</ele>
<time>2021-04-13T14:59:59.766Z</time>
</trkpt>
<trkpt lat="31.7358600" lon="35.1457900">
<ele>602.270020</ele>
<time>2021-04-13T14:59:59.767Z</time>
</trkpt>
<trkpt lat="31.7359100" lon="35.1458900">
<ele>601.780029</ele>
<time>2021-04-13T14:59:59.767Z</time>
</trkpt>
<trkpt lat="31.7360100" lon="35.1462000">
<ele>596.940002</ele>
<time>2021-04-13T14:59:59.767Z</time>
</trkpt>
<trkpt lat="31.7360600" lon="35.1464500">
<ele>594.400024</ele>
<time>2021-04-13T14:59:59.767Z</time>
</trkpt>
<trkpt lat="31.7361300" lon="35.1466000">
<ele>594.599976</ele>
<time>2021-04-13T14:59:59.767Z</time>
</trkpt>
<trkpt lat="31.7362800" lon="35.1467800">
<ele>599.130005</ele>
<time>2021-04-13T14:59:59.767Z</time>
</trkpt>
<trkpt lat="31.7363900" lon="35.1468500">
<ele>603.339966</ele>
<time>2021-04-13T14:59:59.767Z</time>
</trkpt>
<trkpt lat="31.7369600" lon="35.1470700">
<ele>607.059998</ele>
<time>2021-04-13T14:59:59.767Z</time>
</trkpt>
<trkpt lat="31.7370500" lon="35.1471200">
<ele>607.099976</ele>
<time>2021-04-13T14:59:59.767Z</time>
</trkpt>
<trkpt lat="31.7373700" lon="35.1473100">
<ele>604.489990</ele>
<time>2021-04-13T14:59:59.767Z</time>
</trkpt>
<trkpt lat="31.7374900" lon="35.1474100">
<ele>601.100037</ele>
<time>2021-04-13T14:59:59.767Z</time>
</trkpt>
<trkpt lat="31.7375700" lon="35.1475100">
<ele>598.809998</ele>
<time>2021-04-13T14:59:59.767Z</time>
</trkpt>
<trkpt lat="31.7377200" lon="35.1477700">
<ele>598.270020</ele>
<time>2021-04-13T14:59:59.767Z</time>
</trkpt>
<trkpt lat="31.7379600" lon="35.1483300">
<ele>591.349976</ele>
<time>2021-04-13T14:59:59.767Z</time>
</trkpt>
<trkpt lat="31.7382000" lon="35.1487000">
<ele>592.369995</ele>
<time>2021-04-13T14:59:59.767Z</time>
</trkpt>
<trkpt lat="31.7383500" lon="35.1489500">
<ele>595.429993</ele>
<time>2021-04-13T14:59:59.768Z</time>
</trkpt>
<trkpt lat="31.7383800" lon="35.1490500">
<ele>596.279968</ele>
<time>2021-04-13T14:59:59.768Z</time>
</trkpt>
<trkpt lat="31.7383800" lon="35.1491500">
<ele>596.760010</ele>
<time>2021-04-13T14:59:59.768Z</time>
</trkpt>
<trkpt lat="31.7383200" lon="35.1493900">
<ele>595.709961</ele>
<time>2021-04-13T14:59:59.768Z</time>
</trkpt>
<trkpt lat="31.7383200" lon="35.1494900">
<ele>595.869995</ele>
<time>2021-04-13T14:59:59.768Z</time>
</trkpt>
<trkpt lat="31.7383300" lon="35.1495900">
<ele>596.450012</ele>
<time>2021-04-13T14:59:59.768Z</time>
</trkpt>
<trkpt lat="31.7385700" lon="35.1502000">
<ele>600.750000</ele>
<time>2021-04-13T14:59:59.768Z</time>
</trkpt>
<trkpt lat="31.7387100" lon="35.1504400">
<ele>602.320007</ele>
<time>2021-04-13T14:59:59.768Z</time>
</trkpt>
<trkpt lat="31.7388500" lon="35.1505400">
<ele>605.130005</ele>
<time>2021-04-13T14:59:59.768Z</time>
</trkpt>
<trkpt lat="31.7391300" lon="35.1506300">
<ele>610.260010</ele>
<time>2021-04-13T14:59:59.768Z</time>
</trkpt>
<trkpt lat="31.7395000" lon="35.1508800">
<ele>618.900024</ele>
<time>2021-04-13T14:59:59.768Z</time>
</trkpt>
<trkpt lat="31.7395500" lon="35.1509300">
<ele>619.599976</ele>
<time>2021-04-13T14:59:59.768Z</time>
</trkpt>
<trkpt lat="31.7396000" lon="35.1510300">
<ele>620.159973</ele>
<time>2021-04-13T14:59:59.768Z</time>
</trkpt>
<trkpt lat="31.7396800" lon="35.1512000">
<ele>620.599976</ele>
<time>2021-04-13T14:59:59.768Z</time>
</trkpt>
<trkpt lat="31.7397400" lon="35.1513400">
<ele>621.269958</ele>
<time>2021-04-13T14:59:59.768Z</time>
</trkpt>
<trkpt lat="31.7397700" lon="35.1514200">
<ele>621.580017</ele>
<time>2021-04-13T14:59:59.768Z</time>
</trkpt>
<trkpt lat="31.7398500" lon="35.1515700">
<ele>622.190002</ele>
<time>2021-04-13T14:59:59.768Z</time>
</trkpt>
<trkpt lat="31.7399200" lon="35.1516300">
<ele>622.979980</ele>
<time>2021-04-13T14:59:59.768Z</time>
</trkpt>
<trkpt lat="31.7400400" lon="35.1517000">
<ele>623.570007</ele>
<time>2021-04-13T14:59:59.768Z</time>
</trkpt>
<trkpt lat="31.7402100" lon="35.1518500">
<ele>622.859985</ele>
<time>2021-04-13T14:59:59.769Z</time>
</trkpt>
<trkpt lat="31.7405100" lon="35.1522100">
<ele>625.390015</ele>
<time>2021-04-13T14:59:59.769Z</time>
</trkpt>
<trkpt lat="31.7405700" lon="35.1522500">
<ele>625.789978</ele>
<time>2021-04-13T14:59:59.769Z</time>
</trkpt>
<trkpt lat="31.7406400" lon="35.1522500">
<ele>626.690002</ele>
<time>2021-04-13T14:59:59.769Z</time>
</trkpt>
<trkpt lat="31.7407600" lon="35.1522300">
<ele>628.750000</ele>
<time>2021-04-13T14:59:59.769Z</time>
</trkpt>
<trkpt lat="31.7408600" lon="35.1522400">
<ele>629.869995</ele>
<time>2021-04-13T14:59:59.769Z</time>
</trkpt>
<trkpt lat="31.7409500" lon="35.1522900">
<ele>629.729980</ele>
<time>2021-04-13T14:59:59.769Z</time>
</trkpt>
<trkpt lat="31.7411400" lon="35.1524800">
<ele>626.979980</ele>
<time>2021-04-13T14:59:59.769Z</time>
</trkpt>
<trkpt lat="31.7414900" lon="35.1527800">
<ele>627.230042</ele>
<time>2021-04-13T14:59:59.769Z</time>
</trkpt>
<trkpt lat="31.7415500" lon="35.1528200">
<ele>625.989990</ele>
<time>2021-04-13T14:59:59.769Z</time>
</trkpt>
<trkpt lat="31.7416600" lon="35.1528400">
<ele>624.710022</ele>
<time>2021-04-13T14:59:59.769Z</time>
</trkpt>
<trkpt lat="31.7420100" lon="35.1528500">
<ele>628.330017</ele>
<time>2021-04-13T14:59:59.769Z</time>
</trkpt>
<trkpt lat="31.7422000" lon="35.1529000">
<ele>630.329956</ele>
<time>2021-04-13T14:59:59.769Z</time>
</trkpt>
<trkpt lat="31.7425300" lon="35.1530900">
<ele>627.600037</ele>
<time>2021-04-13T14:59:59.769Z</time>
</trkpt>
<trkpt lat="31.7427200" lon="35.1531300">
<ele>627.509949</ele>
<time>2021-04-13T14:59:59.769Z</time>
</trkpt>
<trkpt lat="31.7430300" lon="35.1531200">
<ele>624.479980</ele>
<time>2021-04-13T14:59:59.769Z</time>
</trkpt>
<trkpt lat="31.7436000" lon="35.1532100">
<ele>616.679993</ele>
<time>2021-04-13T14:59:59.770Z</time>
</trkpt>
<trkpt lat="31.7437600" lon="35.1532100">
<ele>617.969971</ele>
<time>2021-04-13T14:59:59.770Z</time>
</trkpt>
<trkpt lat="31.7438000" lon="35.1532000">
<ele>618.570007</ele>
<time>2021-04-13T14:59:59.770Z</time>
</trkpt>
<trkpt lat="31.7438900" lon="35.1531800">
<ele>619.880005</ele>
<time>2021-04-13T14:59:59.770Z</time>
</trkpt>
<trkpt lat="31.7441900" lon="35.1530800">
<ele>624.490051</ele>
<time>2021-04-13T14:59:59.770Z</time>
</trkpt>
<trkpt lat="31.7443400" lon="35.1530600">
<ele>628.949951</ele>
<time>2021-04-13T14:59:59.770Z</time>
</trkpt>
<trkpt lat="31.7444300" lon="35.1530600">
<ele>631.540039</ele>
<time>2021-04-13T14:59:59.770Z</time>
</trkpt>
<trkpt lat="31.7445200" lon="35.1531200">
<ele>635.049988</ele>
<time>2021-04-13T14:59:59.770Z</time>
</trkpt>
<trkpt lat="31.7445600" lon="35.1531900">
<ele>636.169983</ele>
<time>2021-04-13T14:59:59.770Z</time>
</trkpt>
<trkpt lat="31.7445600" lon="35.1532400">
<ele>635.559998</ele>
<time>2021-04-13T14:59:59.770Z</time>
</trkpt>
<trkpt lat="31.7445500" lon="35.1533200">
<ele>634.100037</ele>
<time>2021-04-13T14:59:59.770Z</time>
</trkpt>
<trkpt lat="31.7443700" lon="35.1537300">
<ele>625.280029</ele>
<time>2021-04-13T14:59:59.770Z</time>
</trkpt>
<trkpt lat="31.7443400" lon="35.1538000">
<ele>624.490051</ele>
<time>2021-04-13T14:59:59.770Z</time>
</trkpt>
<trkpt lat="31.7443200" lon="35.1539000">
<ele>624.010010</ele>
<time>2021-04-13T14:59:59.770Z</time>
</trkpt>
<trkpt lat="31.7443400" lon="35.1541600">
<ele>628.150024</ele>
<time>2021-04-13T14:59:59.770Z</time>
</trkpt>
<trkpt lat="31.7443700" lon="35.1543500">
<ele>631.170044</ele>
<time>2021-04-13T14:59:59.770Z</time>
</trkpt>
<trkpt lat="31.7444600" lon="35.1545600">
<ele>634.599976</ele>
<time>2021-04-13T14:59:59.770Z</time>
</trkpt>
<trkpt lat="31.7446000" lon="35.1547200">
<ele>639.050049</ele>
<time>2021-04-13T14:59:59.770Z</time>
</trkpt>
<trkpt lat="31.7448400" lon="35.1549300">
<ele>643.500000</ele>
<time>2021-04-13T14:59:59.770Z</time>
</trkpt>
<trkpt lat="31.7450900" lon="35.1551800">
<ele>645.519958</ele>
<time>2021-04-13T14:59:59.771Z</time>
</trkpt>
<trkpt lat="31.7456400" lon="35.1557700">
<ele>636.840027</ele>
<time>2021-04-13T14:59:59.771Z</time>
</trkpt>
<trkpt lat="31.7460300" lon="35.1561200">
<ele>630.239990</ele>
<time>2021-04-13T14:59:59.771Z</time>
</trkpt>
<trkpt lat="31.7464800" lon="35.1564400">
<ele>635.150024</ele>
<time>2021-04-13T14:59:59.771Z</time>
</trkpt>
<trkpt lat="31.7465800" lon="35.1565400">
<ele>635.150024</ele>
<time>2021-04-13T14:59:59.771Z</time>
</trkpt>
<trkpt lat="31.7466900" lon="35.1566800">
<ele>634.510010</ele>
<time>2021-04-13T14:59:59.771Z</time>
</trkpt>
<trkpt lat="31.7468700" lon="35.1570100">
<ele>632.020020</ele>
<time>2021-04-13T14:59:59.771Z</time>
</trkpt>
<trkpt lat="31.7469700" lon="35.1571100">
<ele>631.040039</ele>
<time>2021-04-13T14:59:59.771Z</time>
</trkpt>
<trkpt lat="31.7473400" lon="35.1572700">
<ele>630.520020</ele>
<time>2021-04-13T14:59:59.771Z</time>
</trkpt>
<trkpt lat="31.7475100" lon="35.1573100">
<ele>634.700012</ele>
<time>2021-04-13T14:59:59.771Z</time>
</trkpt>
<trkpt lat="31.7475700" lon="35.1573600">
<ele>636.400024</ele>
<time>2021-04-13T14:59:59.771Z</time>
</trkpt>
<trkpt lat="31.7475900" lon="35.1574100">
<ele>636.780029</ele>
<time>2021-04-13T14:59:59.771Z</time>
</trkpt>
<trkpt lat="31.7475800" lon="35.1575100">
<ele>635.889954</ele>
<time>2021-04-13T14:59:59.771Z</time>
</trkpt>
<trkpt lat="31.7474100" lon="35.1577700">
<ele>630.089966</ele>
<time>2021-04-13T14:59:59.771Z</time>
</trkpt>
<trkpt lat="31.7473400" lon="35.1579300">
<ele>628.679993</ele>
<time>2021-04-13T14:59:59.771Z</time>
</trkpt>
<trkpt lat="31.7473200" lon="35.1581200">
<ele>629.279968</ele>
<time>2021-04-13T14:59:59.772Z</time>
</trkpt>
<trkpt lat="31.7473300" lon="35.1582600">
<ele>630.580017</ele>
<time>2021-04-13T14:59:59.772Z</time>
</trkpt>
<trkpt lat="31.7473500" lon="35.1583700">
<ele>631.479980</ele>
<time>2021-04-13T14:59:59.772Z</time>
</trkpt>
<trkpt lat="31.7476100" lon="35.1587800">
<ele>636.329956</ele>
<time>2021-04-13T14:59:59.772Z</time>
</trkpt>
<trkpt lat="31.7476800" lon="35.1588500">
<ele>636.760010</ele>
<time>2021-04-13T14:59:59.772Z</time>
</trkpt>
<trkpt lat="31.7479500" lon="35.1590200">
<ele>638.159973</ele>
<time>2021-04-13T14:59:59.772Z</time>
</trkpt>
<trkpt lat="31.7483200" lon="35.1593100">
<ele>635.220032</ele>
<time>2021-04-13T14:59:59.772Z</time>
</trkpt>
<trkpt lat="31.7484400" lon="35.1594300">
<ele>633.899963</ele>
<time>2021-04-13T14:59:59.772Z</time>
</trkpt>
<trkpt lat="31.7484800" lon="35.1595300">
<ele>634.089966</ele>
<time>2021-04-13T14:59:59.772Z</time>
</trkpt>
<trkpt lat="31.7484800" lon="35.1596500">
<ele>634.070007</ele>
<time>2021-04-13T14:59:59.772Z</time>
</trkpt>
<trkpt lat="31.7484700" lon="35.1596900">
<ele>633.979980</ele>
<time>2021-04-13T14:59:59.772Z</time>
</trkpt>
<trkpt lat="31.7483900" lon="35.1598100">
<ele>633.600037</ele>
<time>2021-04-13T14:59:59.772Z</time>
</trkpt>
<trkpt lat="31.7483000" lon="35.1598900">
<ele>632.779968</ele>
<time>2021-04-13T14:59:59.772Z</time>
</trkpt>
<trkpt lat="31.7480900" lon="35.1600300">
<ele>632.460022</ele>
<time>2021-04-13T14:59:59.772Z</time>
</trkpt>
<trkpt lat="31.7480400" lon="35.1600900">
<ele>632.729980</ele>
<time>2021-04-13T14:59:59.772Z</time>
</trkpt>
<trkpt lat="31.7479900" lon="35.1601400">
<ele>632.450012</ele>
<time>2021-04-13T14:59:59.773Z</time>
</trkpt>
<trkpt lat="31.7479100" lon="35.1602400">
<ele>632.039978</ele>
<time>2021-04-13T14:59:59.773Z</time>
</trkpt>
<trkpt lat="31.7478500" lon="35.1604400">
<ele>631.729980</ele>
<time>2021-04-13T14:59:59.773Z</time>
</trkpt>
<trkpt lat="31.7478300" lon="35.1606000">
<ele>631.460022</ele>
<time>2021-04-13T14:59:59.773Z</time>
</trkpt>
<trkpt lat="31.7478500" lon="35.1607100">
<ele>631.070007</ele>
<time>2021-04-13T14:59:59.773Z</time>
</trkpt>
<trkpt lat="31.7479300" lon="35.1608500">
<ele>631.510010</ele>
<time>2021-04-13T14:59:59.773Z</time>
</trkpt>
<trkpt lat="31.7479600" lon="35.1608900">
<ele>631.529968</ele>
<time>2021-04-13T14:59:59.773Z</time>
</trkpt>
<trkpt lat="31.7482500" lon="35.1612600">
<ele>635.580017</ele>
<time>2021-04-13T14:59:59.773Z</time>
</trkpt>
<trkpt lat="31.7482700" lon="35.1613500">
<ele>636.299988</ele>
<time>2021-04-13T14:59:59.773Z</time>
</trkpt>
<trkpt lat="31.7482300" lon="35.1614400">
<ele>635.880005</ele>
<time>2021-04-13T14:59:59.773Z</time>
</trkpt>
<trkpt lat="31.7481300" lon="35.1615100">
<ele>633.860046</ele>
<time>2021-04-13T14:59:59.773Z</time>
</trkpt>
<trkpt lat="31.7475700" lon="35.1616700">
<ele>624.329956</ele>
<time>2021-04-13T14:59:59.773Z</time>
</trkpt>
<trkpt lat="31.7472600" lon="35.1618200">
<ele>626.240051</ele>
<time>2021-04-13T14:59:59.773Z</time>
</trkpt>
<trkpt lat="31.7471600" lon="35.1618800">
<ele>627.559998</ele>
<time>2021-04-13T14:59:59.773Z</time>
</trkpt>
<trkpt lat="31.7470600" lon="35.1619800">
<ele>629.469971</ele>
<time>2021-04-13T14:59:59.773Z</time>
</trkpt>
<trkpt lat="31.7467000" lon="35.1625600">
<ele>632.129944</ele>
<time>2021-04-13T14:59:59.773Z</time>
</trkpt>
<trkpt lat="31.7464700" lon="35.1631100">
<ele>635.309998</ele>
<time>2021-04-13T14:59:59.773Z</time>
</trkpt>
<trkpt lat="31.7463600" lon="35.1632800">
<ele>633.879944</ele>
<time>2021-04-13T14:59:59.773Z</time>
</trkpt>
<trkpt lat="31.7462200" lon="35.1634000">
<ele>630.719971</ele>
<time>2021-04-13T14:59:59.773Z</time>
</trkpt>
<trkpt lat="31.7461300" lon="35.1634700">
<ele>629.380005</ele>
<time>2021-04-13T14:59:59.774Z</time>
</trkpt>
<trkpt lat="31.7461100" lon="35.1634400">
<ele>628.510010</ele>
<time>2021-04-13T14:59:59.774Z</time>
</trkpt>
<trkpt lat="31.7460800" lon="35.1634200">
<ele>627.600037</ele>
<time>2021-04-13T14:59:59.774Z</time>
</trkpt>
<trkpt lat="31.7460400" lon="35.1634100">
<ele>626.589966</ele>
<time>2021-04-13T14:59:59.774Z</time>
</trkpt>
<trkpt lat="31.7460100" lon="35.1634200">
<ele>626.149963</ele>
<time>2021-04-13T14:59:59.774Z</time>
</trkpt>
<trkpt lat="31.7459800" lon="35.1634300">
<ele>625.750000</ele>
<time>2021-04-13T14:59:59.774Z</time>
</trkpt>
<trkpt lat="31.7459600" lon="35.1634600">
<ele>626.010010</ele>
<time>2021-04-13T14:59:59.774Z</time>
</trkpt>
<trkpt lat="31.7459400" lon="35.1635000">
<ele>626.570007</ele>
<time>2021-04-13T14:59:59.774Z</time>
</trkpt>
<trkpt lat="31.7459400" lon="35.1635400">
<ele>627.500000</ele>
<time>2021-04-13T14:59:59.774Z</time>
</trkpt>
<trkpt lat="31.7459500" lon="35.1635800">
<ele>628.549988</ele>
<time>2021-04-13T14:59:59.774Z</time>
</trkpt>
<trkpt lat="31.7456900" lon="35.1638000">
<ele>628.859985</ele>
<time>2021-04-13T14:59:59.774Z</time>
</trkpt>
<trkpt lat="31.7445200" lon="35.1649800">
<ele>631.000000</ele>
<time>2021-04-13T14:59:59.774Z</time>
</trkpt>
<trkpt lat="31.7443400" lon="35.1651900">
<ele>632.539978</ele>
<time>2021-04-13T14:59:59.774Z</time>
</trkpt>
<trkpt lat="31.7442300" lon="35.1653400">
<ele>633.010010</ele>
<time>2021-04-13T14:59:59.774Z</time>
</trkpt>
<trkpt lat="31.7440300" lon="35.1658100">
<ele>635.229980</ele>
<time>2021-04-13T14:59:59.774Z</time>
</trkpt>
<trkpt lat="31.7439800" lon="35.1659800">
<ele>636.390015</ele>
<time>2021-04-13T14:59:59.774Z</time>
</trkpt>
<trkpt lat="31.7439500" lon="35.1661300">
<ele>637.200012</ele>
<time>2021-04-13T14:59:59.774Z</time>
</trkpt>
<trkpt lat="31.7439100" lon="35.1666400">
<ele>638.369995</ele>
<time>2021-04-13T14:59:59.774Z</time>
</trkpt>
<trkpt lat="31.7439000" lon="35.1673200">
<ele>638.539978</ele>
<time>2021-04-13T14:59:59.774Z</time>
</trkpt>
<trkpt lat="31.7438900" lon="35.1677500">
<ele>639.010010</ele>
<time>2021-04-13T14:59:59.774Z</time>
</trkpt>
<trkpt lat="31.7438500" lon="35.1681800">
<ele>638.610046</ele>
<time>2021-04-13T14:59:59.774Z</time>
</trkpt>
<trkpt lat="31.7436800" lon="35.1691300">
<ele>637.700012</ele>
<time>2021-04-13T14:59:59.774Z</time>
</trkpt>
<trkpt lat="31.7436800" lon="35.1691900">
<ele>637.960022</ele>
<time>2021-04-13T14:59:59.774Z</time>
</trkpt>
<trkpt lat="31.7436000" lon="35.1701400">
<ele>644.559998</ele>
<time>2021-04-13T14:59:59.774Z</time>
</trkpt>
<trkpt lat="31.7436000" lon="35.1701500">
<ele>644.559998</ele>
<time>2021-04-13T14:59:59.774Z</time>
</trkpt>
<trkpt lat="31.7436000" lon="35.1704300">
<ele>642.959961</ele>
<time>2021-04-13T14:59:59.774Z</time>
</trkpt>
<trkpt lat="31.7437000" lon="35.1709100">
<ele>641.960022</ele>
<time>2021-04-13T14:59:59.774Z</time>
</trkpt>
<trkpt lat="31.7437100" lon="35.1711800">
<ele>641.330017</ele>
<time>2021-04-13T14:59:59.774Z</time>
</trkpt>
<trkpt lat="31.7436300" lon="35.1722500">
<ele>642.530029</ele>
<time>2021-04-13T14:59:59.775Z</time>
</trkpt>
<trkpt lat="31.7436300" lon="35.1724800">
<ele>643.529968</ele>
<time>2021-04-13T14:59:59.775Z</time>
</trkpt>
<trkpt lat="31.7435600" lon="35.1739300">
<ele>644.410034</ele>
<time>2021-04-13T14:59:59.775Z</time>
</trkpt>
<trkpt lat="31.7437000" lon="35.1746100">
<ele>644.260010</ele>
<time>2021-04-13T14:59:59.775Z</time>
</trkpt>
<trkpt lat="31.7437500" lon="35.1747800">
<ele>643.789978</ele>
<time>2021-04-13T14:59:59.775Z</time>
</trkpt>
<trkpt lat="31.7438100" lon="35.1749400">
<ele>644.510010</ele>
<time>2021-04-13T14:59:59.775Z</time>
</trkpt>
<trkpt lat="31.7438900" lon="35.1751000">
<ele>645.299988</ele>
<time>2021-04-13T14:59:59.775Z</time>
</trkpt>
<trkpt lat="31.7441700" lon="35.1755900">
<ele>644.099976</ele>
<time>2021-04-13T14:59:59.775Z</time>
</trkpt>
<trkpt lat="31.7442800" lon="35.1757300">
<ele>646.390015</ele>
<time>2021-04-13T14:59:59.775Z</time>
</trkpt>
<trkpt lat="31.7445200" lon="35.1759200">
<ele>646.760010</ele>
<time>2021-04-13T14:59:59.775Z</time>
</trkpt>
<trkpt lat="31.7445800" lon="35.1759900">
<ele>645.869995</ele>
<time>2021-04-13T14:59:59.775Z</time>
</trkpt>
<trkpt lat="31.7447600" lon="35.1762200">
<ele>643.809998</ele>
<time>2021-04-13T14:59:59.775Z</time>
</trkpt>
<trkpt lat="31.7447000" lon="35.1762800">
<ele>642.279968</ele>
<time>2021-04-13T14:59:59.775Z</time>
</trkpt>
<trkpt lat="31.7445700" lon="35.1761200">
<ele>643.210022</ele>
<time>2021-04-13T14:59:59.775Z</time>
</trkpt>
<trkpt lat="31.7445500" lon="35.1761300">
<ele>642.829956</ele>
<time>2021-04-13T14:59:59.775Z</time>
</trkpt>
<trkpt lat="31.7446800" lon="35.1763200">
<ele>641.419983</ele>
<time>2021-04-13T14:59:59.776Z</time>
</trkpt>
<trkpt lat="31.7446900" lon="35.1764300">
<ele>639.979980</ele>
<time>2021-04-13T14:59:59.776Z</time>
</trkpt>
<trkpt lat="31.7445900" lon="35.1765200">
<ele>637.659973</ele>
<time>2021-04-13T14:59:59.776Z</time>
</trkpt>
<trkpt lat="31.7446700" lon="35.1767500">
<ele>635.779968</ele>
<time>2021-04-13T14:59:59.776Z</time>
</trkpt>
<trkpt lat="31.7447500" lon="35.1772000">
<ele>634.709961</ele>
<time>2021-04-13T14:59:59.776Z</time>
</trkpt>
<trkpt lat="31.7447200" lon="35.1772100">
<ele>633.990051</ele>
<time>2021-04-13T14:59:59.776Z</time>
</trkpt>
<trkpt lat="31.7445500" lon="35.1765400">
<ele>637.020020</ele>
<time>2021-04-13T14:59:59.776Z</time>
</trkpt>
<trkpt lat="31.7445100" lon="35.1765700">
<ele>636.329956</ele>
<time>2021-04-13T14:59:59.776Z</time>
</trkpt>
<trkpt lat="31.7444400" lon="35.1766200">
<ele>635.330017</ele>
<time>2021-04-13T14:59:59.776Z</time>
</trkpt>
<trkpt lat="31.7443400" lon="35.1767000">
<ele>634.850037</ele>
<time>2021-04-13T14:59:59.776Z</time>
</trkpt>
<trkpt lat="31.7442000" lon="35.1767500">
<ele>634.930054</ele>
<time>2021-04-13T14:59:59.776Z</time>
</trkpt>
<trkpt lat="31.7441400" lon="35.1767800">
<ele>635.099976</ele>
<time>2021-04-13T14:59:59.776Z</time>
</trkpt>
<trkpt lat="31.7441100" lon="35.1767900">
<ele>635.200012</ele>
<time>2021-04-13T14:59:59.776Z</time>
</trkpt>
<trkpt lat="31.7438300" lon="35.1769000">
<ele>636.600037</ele>
<time>2021-04-13T14:59:59.776Z</time>
</trkpt>
<trkpt lat="31.7438700" lon="35.1770100">
<ele>636.420044</ele>
<time>2021-04-13T14:59:59.776Z</time>
</trkpt>
<trkpt lat="31.7438000" lon="35.1771100">
<ele>637.369995</ele>
<time>2021-04-13T14:59:59.776Z</time>
</trkpt>
<trkpt lat="31.7438000" lon="35.1773000">
<ele>637.919983</ele>
<time>2021-04-13T14:59:59.776Z</time>
</trkpt>
<trkpt lat="31.7438900" lon="35.1777100">
<ele>639.500000</ele>
<time>2021-04-13T14:59:59.776Z</time>
</trkpt>
<trkpt lat="31.7440200" lon="35.1783000">
<ele>640.940002</ele>
<time>2021-04-13T14:59:59.776Z</time>
</trkpt>
<trkpt lat="31.7440600" lon="35.1785200">
<ele>642.369995</ele>
<time>2021-04-13T14:59:59.776Z</time>
</trkpt>
<trkpt lat="31.7441600" lon="35.1788500">
<ele>643.849976</ele>
<time>2021-04-13T14:59:59.776Z</time>
</trkpt>
<trkpt lat="31.7444100" lon="35.1795700">
<ele>645.049988</ele>
<time>2021-04-13T14:59:59.777Z</time>
</trkpt>
<trkpt lat="31.7445800" lon="35.1801400">
<ele>647.000000</ele>
<time>2021-04-13T14:59:59.777Z</time>
</trkpt>
<trkpt lat="31.7446500" lon="35.1803400">
<ele>648.169983</ele>
<time>2021-04-13T14:59:59.777Z</time>
</trkpt>
<trkpt lat="31.7448800" lon="35.1809700">
<ele>649.570007</ele>
<time>2021-04-13T14:59:59.777Z</time>
</trkpt>
<trkpt lat="31.7450400" lon="35.1812400">
<ele>649.769958</ele>
<time>2021-04-13T14:59:59.777Z</time>
</trkpt>
<trkpt lat="31.7451000" lon="35.1813600">
<ele>650.049988</ele>
<time>2021-04-13T14:59:59.777Z</time>
</trkpt>
<trkpt lat="31.7452500" lon="35.1815500">
<ele>652.960022</ele>
<time>2021-04-13T14:59:59.777Z</time>
</trkpt>
<trkpt lat="31.7454700" lon="35.1817900">
<ele>653.510010</ele>
<time>2021-04-13T14:59:59.777Z</time>
</trkpt>
<trkpt lat="31.7455600" lon="35.1818700">
<ele>650.750000</ele>
<time>2021-04-13T14:59:59.777Z</time>
</trkpt>
<trkpt lat="31.7456800" lon="35.1819500">
<ele>648.359985</ele>
<time>2021-04-13T14:59:59.777Z</time>
</trkpt>
<trkpt lat="31.7457800" lon="35.1820000">
<ele>647.679993</ele>
<time>2021-04-13T14:59:59.777Z</time>
</trkpt>
<trkpt lat="31.7459700" lon="35.1821000">
<ele>647.189941</ele>
<time>2021-04-13T14:59:59.777Z</time>
</trkpt>
<trkpt lat="31.7463200" lon="35.1823200">
<ele>651.169983</ele>
<time>2021-04-13T14:59:59.777Z</time>
</trkpt>
<trkpt lat="31.7464300" lon="35.1823600">
<ele>651.790039</ele>
<time>2021-04-13T14:59:59.777Z</time>
</trkpt>
<trkpt lat="31.7466400" lon="35.1823800">
<ele>653.269958</ele>
<time>2021-04-13T14:59:59.777Z</time>
</trkpt>
<trkpt lat="31.7467500" lon="35.1824300">
<ele>655.210022</ele>
<time>2021-04-13T14:59:59.777Z</time>
</trkpt>
<trkpt lat="31.7468900" lon="35.1825700">
<ele>655.799988</ele>
<time>2021-04-13T14:59:59.777Z</time>
</trkpt>
<trkpt lat="31.7470600" lon="35.1827100">
<ele>656.260010</ele>
<time>2021-04-13T14:59:59.778Z</time>
</trkpt>
<trkpt lat="31.7472100" lon="35.1828700">
<ele>655.490051</ele>
<time>2021-04-13T14:59:59.778Z</time>
</trkpt>
<trkpt lat="31.7472700" lon="35.1830200">
<ele>653.229980</ele>
<time>2021-04-13T14:59:59.778Z</time>
</trkpt>
<trkpt lat="31.7473400" lon="35.1833200">
<ele>651.680054</ele>
<time>2021-04-13T14:59:59.778Z</time>
</trkpt>
<trkpt lat="31.7473800" lon="35.1834200">
<ele>652.369995</ele>
<time>2021-04-13T14:59:59.778Z</time>
</trkpt>
<trkpt lat="31.7473300" lon="35.1834300">
<ele>651.409973</ele>
<time>2021-04-13T14:59:59.778Z</time>
</trkpt>
<trkpt lat="31.7472800" lon="35.1834400">
<ele>650.469971</ele>
<time>2021-04-13T14:59:59.778Z</time>
</trkpt>
<trkpt lat="31.7472500" lon="35.1834800">
<ele>650.020020</ele>
<time>2021-04-13T14:59:59.778Z</time>
</trkpt>
<trkpt lat="31.7472300" lon="35.1835700">
<ele>649.969971</ele>
<time>2021-04-13T14:59:59.778Z</time>
</trkpt>
<trkpt lat="31.7472700" lon="35.1837400">
<ele>651.619995</ele>
<time>2021-04-13T14:59:59.778Z</time>
</trkpt>
<trkpt lat="31.7472700" lon="35.1838100">
<ele>652.119995</ele>
<time>2021-04-13T14:59:59.778Z</time>
</trkpt>
<trkpt lat="31.7472600" lon="35.1839000">
<ele>652.690002</ele>
<time>2021-04-13T14:59:59.778Z</time>
</trkpt>
<trkpt lat="31.7472600" lon="35.1839300">
<ele>653.099976</ele>
<time>2021-04-13T14:59:59.778Z</time>
</trkpt>
<trkpt lat="31.7472800" lon="35.1840000">
<ele>654.270020</ele>
<time>2021-04-13T14:59:59.778Z</time>
</trkpt>
<trkpt lat="31.7473600" lon="35.1840900">
<ele>656.159973</ele>
<time>2021-04-13T14:59:59.778Z</time>
</trkpt>
<trkpt lat="31.7474500" lon="35.1842500">
<ele>659.300049</ele>
<time>2021-04-13T14:59:59.778Z</time>
</trkpt>
<trkpt lat="31.7475400" lon="35.1844100">
<ele>661.710022</ele>
<time>2021-04-13T14:59:59.778Z</time>
</trkpt>
<trkpt lat="31.7475800" lon="35.1844900">
<ele>661.329956</ele>
<time>2021-04-13T14:59:59.778Z</time>
</trkpt>
<trkpt lat="31.7476800" lon="35.1848000">
<ele>659.250000</ele>
<time>2021-04-13T14:59:59.778Z</time>
</trkpt>
<trkpt lat="31.7477000" lon="35.1849400">
<ele>659.280029</ele>
<time>2021-04-13T14:59:59.778Z</time>
</trkpt>
<trkpt lat="31.7476600" lon="35.1850000">
<ele>660.119995</ele>
<time>2021-04-13T14:59:59.778Z</time>
</trkpt>
<trkpt lat="31.7476000" lon="35.1850000">
<ele>661.199951</ele>
<time>2021-04-13T14:59:59.778Z</time>
</trkpt>
<trkpt lat="31.7475500" lon="35.1849900">
<ele>662.040039</ele>
<time>2021-04-13T14:59:59.778Z</time>
</trkpt>
<trkpt lat="31.7473100" lon="35.1847300">
<ele>664.459961</ele>
<time>2021-04-13T14:59:59.778Z</time>
</trkpt>
<trkpt lat="31.7472200" lon="35.1846300">
<ele>665.309998</ele>
<time>2021-04-13T14:59:59.778Z</time>
</trkpt>
<trkpt lat="31.7472000" lon="35.1846400">
<ele>665.179993</ele>
<time>2021-04-13T14:59:59.778Z</time>
</trkpt>
<trkpt lat="31.7471900" lon="35.1846500">
<ele>665.159973</ele>
<time>2021-04-13T14:59:59.778Z</time>
</trkpt>
<trkpt lat="31.7472000" lon="35.1846900">
<ele>665.580017</ele>
<time>2021-04-13T14:59:59.778Z</time>
</trkpt>
<trkpt lat="31.7472100" lon="35.1847000">
<ele>665.739990</ele>
<time>2021-04-13T14:59:59.778Z</time>
</trkpt>
<trkpt lat="31.7473200" lon="35.1848700">
<ele>664.959961</ele>
<time>2021-04-13T14:59:59.778Z</time>
</trkpt>
<trkpt lat="31.7473400" lon="35.1848900">
<ele>664.739990</ele>
<time>2021-04-13T14:59:59.778Z</time>
</trkpt>
<trkpt lat="31.7474600" lon="35.1850900">
<ele>663.720032</ele>
<time>2021-04-13T14:59:59.778Z</time>
</trkpt>
<trkpt lat="31.7476600" lon="35.1855600">
<ele>657.970032</ele>
<time>2021-04-13T14:59:59.778Z</time>
</trkpt>
<trkpt lat="31.7477600" lon="35.1858400">
<ele>654.710022</ele>
<time>2021-04-13T14:59:59.778Z</time>
</trkpt>
<trkpt lat="31.7477900" lon="35.1859800">
<ele>655.669983</ele>
<time>2021-04-13T14:59:59.778Z</time>
</trkpt>
<trkpt lat="31.7478000" lon="35.1862000">
<ele>657.480042</ele>
<time>2021-04-13T14:59:59.778Z</time>
</trkpt>
<trkpt lat="31.7477800" lon="35.1863400">
<ele>657.840027</ele>
<time>2021-04-13T14:59:59.778Z</time>
</trkpt>
<trkpt lat="31.7476400" lon="35.1870800">
<ele>657.739990</ele>
<time>2021-04-13T14:59:59.778Z</time>
</trkpt>
<trkpt lat="31.7475700" lon="35.1875200">
<ele>656.430054</ele>
<time>2021-04-13T14:59:59.778Z</time>
</trkpt>
<trkpt lat="31.7474600" lon="35.1879900">
<ele>659.380005</ele>
<time>2021-04-13T14:59:59.778Z</time>
</trkpt>
<trkpt lat="31.7473400" lon="35.1881500">
<ele>658.400024</ele>
<time>2021-04-13T14:59:59.778Z</time>
</trkpt>
<trkpt lat="31.7472300" lon="35.1882900">
<ele>655.619934</ele>
<time>2021-04-13T14:59:59.778Z</time>
</trkpt>
<trkpt lat="31.7472400" lon="35.1883200">
<ele>655.520020</ele>
<time>2021-04-13T14:59:59.778Z</time>
</trkpt>
<trkpt lat="31.7473100" lon="35.1882900">
<ele>657.169983</ele>
<time>2021-04-13T14:59:59.780Z</time>
</trkpt>
<trkpt lat="31.7474100" lon="35.1882400">
<ele>659.159973</ele>
<time>2021-04-13T14:59:59.780Z</time>
</trkpt>
<trkpt lat="31.7473500" lon="35.1883700">
<ele>657.760010</ele>
<time>2021-04-13T14:59:59.780Z</time>
</trkpt>
<trkpt lat="31.7472900" lon="35.1884000">
<ele>656.460022</ele>
<time>2021-04-13T14:59:59.780Z</time>
</trkpt>
<trkpt lat="31.7471800" lon="35.1884500">
<ele>655.659973</ele>
<time>2021-04-13T14:59:59.780Z</time>
</trkpt>
<trkpt lat="31.7470300" lon="35.1885300">
<ele>657.190002</ele>
<time>2021-04-13T14:59:59.780Z</time>
</trkpt>
<trkpt lat="31.7470600" lon="35.1885700">
<ele>656.510010</ele>
<time>2021-04-13T14:59:59.780Z</time>
</trkpt>
<trkpt lat="31.7471200" lon="35.1885600">
<ele>656.009949</ele>
<time>2021-04-13T14:59:59.780Z</time>
</trkpt>
<trkpt lat="31.7472400" lon="35.1885500">
<ele>655.380005</ele>
<time>2021-04-13T14:59:59.780Z</time>
</trkpt>
<trkpt lat="31.7472500" lon="35.1886400">
<ele>655.690002</ele>
<time>2021-04-13T14:59:59.780Z</time>
</trkpt>
<trkpt lat="31.7472700" lon="35.1887400">
<ele>656.419983</ele>
<time>2021-04-13T14:59:59.780Z</time>
</trkpt>
<trkpt lat="31.7472500" lon="35.1888200">
<ele>656.280029</ele>
<time>2021-04-13T14:59:59.780Z</time>
</trkpt>
<trkpt lat="31.7472200" lon="35.1889000">
<ele>656.059998</ele>
<time>2021-04-13T14:59:59.780Z</time>
</trkpt>
<trkpt lat="31.7471400" lon="35.1890000">
<ele>655.970032</ele>
<time>2021-04-13T14:59:59.780Z</time>
</trkpt>
<trkpt lat="31.7469900" lon="35.1891400">
<ele>654.619995</ele>
<time>2021-04-13T14:59:59.780Z</time>
</trkpt>
<trkpt lat="31.7469500" lon="35.1892200">
<ele>654.279968</ele>
<time>2021-04-13T14:59:59.780Z</time>
</trkpt>
<trkpt lat="31.7469100" lon="35.1894400">
<ele>654.989990</ele>
<time>2021-04-13T14:59:59.780Z</time>
</trkpt>
<trkpt lat="31.7468800" lon="35.1895100">
<ele>654.820007</ele>
<time>2021-04-13T14:59:59.780Z</time>
</trkpt>
<trkpt lat="31.7466500" lon="35.1897300">
<ele>654.909973</ele>
<time>2021-04-13T14:59:59.780Z</time>
</trkpt>
<trkpt lat="31.7465400" lon="35.1899700">
<ele>654.570007</ele>
<time>2021-04-13T14:59:59.780Z</time>
</trkpt>
<trkpt lat="31.7464800" lon="35.1901400">
<ele>654.320007</ele>
<time>2021-04-13T14:59:59.780Z</time>
</trkpt>
<trkpt lat="31.7463400" lon="35.1906400">
<ele>656.460022</ele>
<time>2021-04-13T14:59:59.780Z</time>
</trkpt>
<trkpt lat="31.7462200" lon="35.1910600">
<ele>659.640015</ele>
<time>2021-04-13T14:59:59.780Z</time>
</trkpt>
<trkpt lat="31.7461900" lon="35.1913200">
<ele>660.320007</ele>
<time>2021-04-13T14:59:59.780Z</time>
</trkpt>
<trkpt lat="31.7461900" lon="35.1914600">
<ele>660.750000</ele>
<time>2021-04-13T14:59:59.780Z</time>
</trkpt>
<trkpt lat="31.7462000" lon="35.1915700">
<ele>661.080017</ele>
<time>2021-04-13T14:59:59.780Z</time>
</trkpt>
<trkpt lat="31.7462400" lon="35.1916900">
<ele>661.589966</ele>
<time>2021-04-13T14:59:59.780Z</time>
</trkpt>
<trkpt lat="31.7462700" lon="35.1917900">
<ele>662.269958</ele>
<time>2021-04-13T14:59:59.780Z</time>
</trkpt>
<trkpt lat="31.7464900" lon="35.1920000">
<ele>665.239990</ele>
<time>2021-04-13T14:59:59.780Z</time>
</trkpt>
<trkpt lat="31.7467200" lon="35.1920700">
<ele>666.510010</ele>
<time>2021-04-13T14:59:59.780Z</time>
</trkpt>
<trkpt lat="31.7468100" lon="35.1921200">
<ele>665.960022</ele>
<time>2021-04-13T14:59:59.781Z</time>
</trkpt>
<trkpt lat="31.7470600" lon="35.1922500">
<ele>664.940002</ele>
<time>2021-04-13T14:59:59.781Z</time>
</trkpt>
<trkpt lat="31.7476000" lon="35.1926300">
<ele>668.210022</ele>
<time>2021-04-13T14:59:59.781Z</time>
</trkpt>
<trkpt lat="31.7486200" lon="35.1939700">
<ele>669.740051</ele>
<time>2021-04-13T14:59:59.781Z</time>
</trkpt>
<trkpt lat="31.7488700" lon="35.1942400">
<ele>670.589966</ele>
<time>2021-04-13T14:59:59.781Z</time>
</trkpt>
<trkpt lat="31.7490800" lon="35.1944200">
<ele>673.950012</ele>
<time>2021-04-13T14:59:59.781Z</time>
</trkpt>
<trkpt lat="31.7495900" lon="35.1947900">
<ele>677.630005</ele>
<time>2021-04-13T14:59:59.781Z</time>
</trkpt>
<trkpt lat="31.7496400" lon="35.1948200">
<ele>677.929993</ele>
<time>2021-04-13T14:59:59.781Z</time>
</trkpt>
<trkpt lat="31.7497000" lon="35.1948300">
<ele>678.000000</ele>
<time>2021-04-13T14:59:59.781Z</time>
</trkpt>
<trkpt lat="31.7498600" lon="35.1948200">
<ele>677.150024</ele>
<time>2021-04-13T14:59:59.781Z</time>
</trkpt>
<trkpt lat="31.7499200" lon="35.1948600">
<ele>676.580017</ele>
<time>2021-04-13T14:59:59.781Z</time>
</trkpt>
<trkpt lat="31.7500200" lon="35.1949700">
<ele>675.209961</ele>
<time>2021-04-13T14:59:59.781Z</time>
</trkpt>
<trkpt lat="31.7502000" lon="35.1950800">
<ele>674.419983</ele>
<time>2021-04-13T14:59:59.781Z</time>
</trkpt>
<trkpt lat="31.7503200" lon="35.1951100">
<ele>674.329956</ele>
<time>2021-04-13T14:59:59.781Z</time>
</trkpt>
<trkpt lat="31.7504100" lon="35.1951200">
<ele>674.549988</ele>
<time>2021-04-13T14:59:59.781Z</time>
</trkpt>
<trkpt lat="31.7507400" lon="35.1952500">
<ele>674.340027</ele>
<time>2021-04-13T14:59:59.781Z</time>
</trkpt>
<trkpt lat="31.7508700" lon="35.1953400">
<ele>674.089966</ele>
<time>2021-04-13T14:59:59.781Z</time>
</trkpt>
<trkpt lat="31.7509800" lon="35.1954200">
<ele>673.979980</ele>
<time>2021-04-13T14:59:59.781Z</time>
</trkpt>
<trkpt lat="31.7511400" lon="35.1955400">
<ele>673.849976</ele>
<time>2021-04-13T14:59:59.781Z</time>
</trkpt>
<trkpt lat="31.7512500" lon="35.1957100">
<ele>674.059998</ele>
<time>2021-04-13T14:59:59.781Z</time>
</trkpt>
<trkpt lat="31.7514000" lon="35.1960600">
<ele>672.220032</ele>
<time>2021-04-13T14:59:59.781Z</time>
</trkpt>
<trkpt lat="31.7515200" lon="35.1963300">
<ele>671.679993</ele>
<time>2021-04-13T14:59:59.781Z</time>
</trkpt>
<trkpt lat="31.7516400" lon="35.1967300">
<ele>670.950012</ele>
<time>2021-04-13T14:59:59.782Z</time>
</trkpt>
<trkpt lat="31.7517200" lon="35.1969300">
<ele>670.989990</ele>
<time>2021-04-13T14:59:59.782Z</time>
</trkpt>
<trkpt lat="31.7517400" lon="35.1970600">
<ele>671.919983</ele>
<time>2021-04-13T14:59:59.782Z</time>
</trkpt>
<trkpt lat="31.7516700" lon="35.1973100">
<ele>673.350037</ele>
<time>2021-04-13T14:59:59.782Z</time>
</trkpt>
<trkpt lat="31.7516600" lon="35.1974400">
<ele>672.510010</ele>
<time>2021-04-13T14:59:59.782Z</time>
</trkpt>
<trkpt lat="31.7516300" lon="35.1979500">
<ele>672.669983</ele>
<time>2021-04-13T14:59:59.782Z</time>
</trkpt>
<trkpt lat="31.7515400" lon="35.1982100">
<ele>677.190002</ele>
<time>2021-04-13T14:59:59.782Z</time>
</trkpt>
<trkpt lat="31.7513900" lon="35.1984600">
<ele>682.739990</ele>
<time>2021-04-13T14:59:59.782Z</time>
</trkpt>
<trkpt lat="31.7511700" lon="35.1987500">
<ele>687.500000</ele>
<time>2021-04-13T14:59:59.782Z</time>
</trkpt>
<trkpt lat="31.7505700" lon="35.1992000">
<ele>681.040039</ele>
<time>2021-04-13T14:59:59.782Z</time>
</trkpt>
<trkpt lat="31.7498100" lon="35.1997200">
<ele>678.670044</ele>
<time>2021-04-13T14:59:59.783Z</time>
</trkpt>
<trkpt lat="31.7496600" lon="35.1997800">
<ele>678.479980</ele>
<time>2021-04-13T14:59:59.783Z</time>
</trkpt>
<trkpt lat="31.7495900" lon="35.1998100">
<ele>677.849976</ele>
<time>2021-04-13T14:59:59.783Z</time>
</trkpt>
<trkpt lat="31.7495700" lon="35.1998300">
<ele>677.890015</ele>
<time>2021-04-13T14:59:59.783Z</time>
</trkpt>
<trkpt lat="31.7495200" lon="35.1998700">
<ele>677.970032</ele>
<time>2021-04-13T14:59:59.783Z</time>
</trkpt>
<trkpt lat="31.7494000" lon="35.2000000">
<ele>679.519958</ele>
<time>2021-04-13T14:59:59.783Z</time>
</trkpt>
<trkpt lat="31.7488800" lon="35.2003600">
<ele>683.199951</ele>
<time>2021-04-13T14:59:59.783Z</time>
</trkpt>
<trkpt lat="31.7486600" lon="35.2005200">
<ele>683.539978</ele>
<time>2021-04-13T14:59:59.783Z</time>
</trkpt>
<trkpt lat="31.7483600" lon="35.2007900">
<ele>686.440063</ele>
<time>2021-04-13T14:59:59.783Z</time>
</trkpt>
<trkpt lat="31.7482300" lon="35.2009500">
<ele>686.990051</ele>
<time>2021-04-13T14:59:59.783Z</time>
</trkpt>
<trkpt lat="31.7481300" lon="35.2011200">
<ele>687.219971</ele>
<time>2021-04-13T14:59:59.783Z</time>
</trkpt>
<trkpt lat="31.7480600" lon="35.2012600">
<ele>689.239990</ele>
<time>2021-04-13T14:59:59.783Z</time>
</trkpt>
<trkpt lat="31.7480000" lon="35.2014400">
<ele>691.000000</ele>
<time>2021-04-13T14:59:59.783Z</time>
</trkpt>
<trkpt lat="31.7479700" lon="35.2015200">
<ele>691.190063</ele>
<time>2021-04-13T14:59:59.783Z</time>
</trkpt>
<trkpt lat="31.7479500" lon="35.2016800">
<ele>692.640015</ele>
<time>2021-04-13T14:59:59.783Z</time>
</trkpt>
<trkpt lat="31.7479200" lon="35.2018400">
<ele>693.109985</ele>
<time>2021-04-13T14:59:59.783Z</time>
</trkpt>
<trkpt lat="31.7479200" lon="35.2019500">
<ele>693.460022</ele>
<time>2021-04-13T14:59:59.783Z</time>
</trkpt>
<trkpt lat="31.7479300" lon="35.2020100">
<ele>693.289978</ele>
<time>2021-04-13T14:59:59.783Z</time>
</trkpt>
<trkpt lat="31.7479600" lon="35.2021700">
<ele>693.260010</ele>
<time>2021-04-13T14:59:59.783Z</time>
</trkpt>
<trkpt lat="31.7479900" lon="35.2022700">
<ele>693.700012</ele>
<time>2021-04-13T14:59:59.783Z</time>
</trkpt>
<trkpt lat="31.7480700" lon="35.2025900">
<ele>695.680054</ele>
<time>2021-04-13T14:59:59.783Z</time>
</trkpt>
<trkpt lat="31.7481900" lon="35.2028500">
<ele>698.229980</ele>
<time>2021-04-13T14:59:59.783Z</time>
</trkpt>
<trkpt lat="31.7482700" lon="35.2029600">
<ele>699.199951</ele>
<time>2021-04-13T14:59:59.783Z</time>
</trkpt>
<trkpt lat="31.7484800" lon="35.2032000">
<ele>699.529968</ele>
<time>2021-04-13T14:59:59.783Z</time>
</trkpt>
<trkpt lat="31.7485400" lon="35.2032800">
<ele>699.390015</ele>
<time>2021-04-13T14:59:59.783Z</time>
</trkpt>
<trkpt lat="31.7488800" lon="35.2036600">
<ele>697.659973</ele>
<time>2021-04-13T14:59:59.783Z</time>
</trkpt>
<trkpt lat="31.7491100" lon="35.2039800">
<ele>696.989990</ele>
<time>2021-04-13T14:59:59.784Z</time>
</trkpt>
<trkpt lat="31.7492800" lon="35.2043400">
<ele>695.940002</ele>
<time>2021-04-13T14:59:59.784Z</time>
</trkpt>
<trkpt lat="31.7493200" lon="35.2044500">
<ele>694.900024</ele>
<time>2021-04-13T14:59:59.784Z</time>
</trkpt>
<trkpt lat="31.7496000" lon="35.2052400">
<ele>692.130005</ele>
<time>2021-04-13T14:59:59.784Z</time>
</trkpt>
<trkpt lat="31.7497600" lon="35.2055500">
<ele>698.059998</ele>
<time>2021-04-13T14:59:59.784Z</time>
</trkpt>
<trkpt lat="31.7499000" lon="35.2057500">
<ele>699.140015</ele>
<time>2021-04-13T14:59:59.784Z</time>
</trkpt>
<trkpt lat="31.7502300" lon="35.2061000">
<ele>701.090027</ele>
<time>2021-04-13T14:59:59.784Z</time>
</trkpt>
<trkpt lat="31.7514200" lon="35.2071300">
<ele>715.309998</ele>
<time>2021-04-13T14:59:59.784Z</time>
</trkpt>
<trkpt lat="31.7522300" lon="35.2078400">
<ele>725.529968</ele>
<time>2021-04-13T14:59:59.784Z</time>
</trkpt>
<trkpt lat="31.7526200" lon="35.2082200">
<ele>719.200012</ele>
<time>2021-04-13T14:59:59.784Z</time>
</trkpt>
<trkpt lat="31.7528200" lon="35.2085100">
<ele>717.580017</ele>
<time>2021-04-13T14:59:59.784Z</time>
</trkpt>
<trkpt lat="31.7528500" lon="35.2085700">
<ele>717.299988</ele>
<time>2021-04-13T14:59:59.784Z</time>
</trkpt>
<trkpt lat="31.7533100" lon="35.2094900">
<ele>713.289978</ele>
<time>2021-04-13T14:59:59.784Z</time>
</trkpt>
<trkpt lat="31.7533900" lon="35.2096100">
<ele>716.090027</ele>
<time>2021-04-13T14:59:59.785Z</time>
</trkpt>
<trkpt lat="31.7535800" lon="35.2098800">
<ele>718.049988</ele>
<time>2021-04-13T14:59:59.785Z</time>
</trkpt>
<trkpt lat="31.7538600" lon="35.2101300">
<ele>714.929993</ele>
<time>2021-04-13T14:59:59.785Z</time>
</trkpt>
<trkpt lat="31.7541600" lon="35.2103200">
<ele>712.830017</ele>
<time>2021-04-13T14:59:59.785Z</time>
</trkpt>
<trkpt lat="31.7546900" lon="35.2106600">
<ele>715.609985</ele>
<time>2021-04-13T14:59:59.785Z</time>
</trkpt>
<trkpt lat="31.7554200" lon="35.2111100">
<ele>722.020020</ele>
<time>2021-04-13T14:59:59.785Z</time>
</trkpt>
<trkpt lat="31.7555100" lon="35.2111800">
<ele>723.619995</ele>
<time>2021-04-13T14:59:59.785Z</time>
</trkpt>
<trkpt lat="31.7556700" lon="35.2113000">
<ele>725.590027</ele>
<time>2021-04-13T14:59:59.785Z</time>
</trkpt>
<trkpt lat="31.7560200" lon="35.2116100">
<ele>727.199951</ele>
<time>2021-04-13T14:59:59.785Z</time>
</trkpt>
<trkpt lat="31.7564700" lon="35.2120300">
<ele>725.189941</ele>
<time>2021-04-13T14:59:59.785Z</time>
</trkpt>
<trkpt lat="31.7576900" lon="35.2132000">
<ele>732.630005</ele>
<time>2021-04-13T14:59:59.785Z</time>
</trkpt>
<trkpt lat="31.7578900" lon="35.2134000">
<ele>734.700012</ele>
<time>2021-04-13T14:59:59.785Z</time>
</trkpt>
<trkpt lat="31.7581900" lon="35.2137600">
<ele>731.319946</ele>
<time>2021-04-13T14:59:59.785Z</time>
</trkpt>
<trkpt lat="31.7583300" lon="35.2139400">
<ele>728.440002</ele>
<time>2021-04-13T14:59:59.785Z</time>
</trkpt>
<trkpt lat="31.7587800" lon="35.2146100">
<ele>728.889954</ele>
<time>2021-04-13T14:59:59.785Z</time>
</trkpt>
<trkpt lat="31.7589800" lon="35.2149000">
<ele>731.190002</ele>
<time>2021-04-13T14:59:59.785Z</time>
</trkpt>
<trkpt lat="31.7590800" lon="35.2150300">
<ele>731.460022</ele>
<time>2021-04-13T14:59:59.785Z</time>
</trkpt>
<trkpt lat="31.7592200" lon="35.2151600">
<ele>732.039978</ele>
<time>2021-04-13T14:59:59.785Z</time>
</trkpt>
<trkpt lat="31.7593400" lon="35.2151200">
<ele>731.590027</ele>
<time>2021-04-13T14:59:59.785Z</time>
</trkpt>
<trkpt lat="31.7594000" lon="35.2151600">
<ele>731.670044</ele>
<time>2021-04-13T14:59:59.786Z</time>
</trkpt>
<trkpt lat="31.7594300" lon="35.2151900">
<ele>731.720032</ele>
<time>2021-04-13T14:59:59.786Z</time>
</trkpt>
<trkpt lat="31.7594800" lon="35.2152700">
<ele>731.969971</ele>
<time>2021-04-13T14:59:59.786Z</time>
</trkpt>
<trkpt lat="31.7594900" lon="35.2153000">
<ele>732.110046</ele>
<time>2021-04-13T14:59:59.786Z</time>
</trkpt>
<trkpt lat="31.7592800" lon="35.2153500">
<ele>732.539978</ele>
<time>2021-04-13T14:59:59.786Z</time>
</trkpt>
<trkpt lat="31.7601300" lon="35.2166000">
<ele>749.559998</ele>
<time>2021-04-13T14:59:59.786Z</time>
</trkpt>
<trkpt lat="31.7601400" lon="35.2166200">
<ele>750.090027</ele>
<time>2021-04-13T14:59:59.786Z</time>
</trkpt>
<trkpt lat="31.7603500" lon="35.2169200">
<ele>752.160034</ele>
<time>2021-04-13T14:59:59.786Z</time>
</trkpt>
<trkpt lat="31.7604700" lon="35.2170900">
<ele>749.859985</ele>
<time>2021-04-13T14:59:59.786Z</time>
</trkpt>
<trkpt lat="31.7608000" lon="35.2175700">
<ele>744.000000</ele>
<time>2021-04-13T14:59:59.786Z</time>
</trkpt>
<trkpt lat="31.7611200" lon="35.2180600">
<ele>740.969971</ele>
<time>2021-04-13T14:59:59.786Z</time>
</trkpt>
<trkpt lat="31.7615900" lon="35.2187400">
<ele>740.299988</ele>
<time>2021-04-13T14:59:59.786Z</time>
</trkpt>
<trkpt lat="31.7618400" lon="35.2191000">
<ele>737.590027</ele>
<time>2021-04-13T14:59:59.786Z</time>
</trkpt>
<trkpt lat="31.7619600" lon="35.2192900">
<ele>735.200012</ele>
<time>2021-04-13T14:59:59.786Z</time>
</trkpt>
<trkpt lat="31.7622500" lon="35.2197500">
<ele>739.600037</ele>
<time>2021-04-13T14:59:59.787Z</time>
</trkpt>
<trkpt lat="31.7624400" lon="35.2200700">
<ele>745.970032</ele>
<time>2021-04-13T14:59:59.787Z</time>
</trkpt>
<trkpt lat="31.7626000" lon="35.2204000">
<ele>748.439941</ele>
<time>2021-04-13T14:59:59.787Z</time>
</trkpt>
<trkpt lat="31.7626900" lon="35.2206600">
<ele>748.859985</ele>
<time>2021-04-13T14:59:59.787Z</time>
</trkpt>
<trkpt lat="31.7627900" lon="35.2210400">
<ele>747.809998</ele>
<time>2021-04-13T14:59:59.787Z</time>
</trkpt>
<trkpt lat="31.7628500" lon="35.2213300">
<ele>747.779968</ele>
<time>2021-04-13T14:59:59.787Z</time>
</trkpt>
<trkpt lat="31.7628800" lon="35.2215200">
<ele>748.890015</ele>
<time>2021-04-13T14:59:59.787Z</time>
</trkpt>
<trkpt lat="31.7628900" lon="35.2216000">
<ele>749.360046</ele>
<time>2021-04-13T14:59:59.787Z</time>
</trkpt>
<trkpt lat="31.7630400" lon="35.2231100">
<ele>753.650024</ele>
<time>2021-04-13T14:59:59.787Z</time>
</trkpt>
<trkpt lat="31.7630400" lon="35.2231500">
<ele>754.209961</ele>
<time>2021-04-13T14:59:59.787Z</time>
</trkpt>
<trkpt lat="31.7630700" lon="35.2232700">
<ele>756.260010</ele>
<time>2021-04-13T14:59:59.787Z</time>
</trkpt>
<trkpt lat="31.7630700" lon="35.2233000">
<ele>756.679993</ele>
<time>2021-04-13T14:59:59.787Z</time>
</trkpt>
<trkpt lat="31.7631300" lon="35.2234600">
<ele>757.770020</ele>
<time>2021-04-13T14:59:59.787Z</time>
</trkpt>
<trkpt lat="31.7632200" lon="35.2236500">
<ele>757.129944</ele>
<time>2021-04-13T14:59:59.787Z</time>
</trkpt>
<trkpt lat="31.7633000" lon="35.2237700">
<ele>755.979980</ele>
<time>2021-04-13T14:59:59.787Z</time>
</trkpt>
<trkpt lat="31.7633500" lon="35.2238400">
<ele>755.169983</ele>
<time>2021-04-13T14:59:59.787Z</time>
</trkpt>
<trkpt lat="31.7634400" lon="35.2239600">
<ele>753.280029</ele>
<time>2021-04-13T14:59:59.787Z</time>
</trkpt>
<trkpt lat="31.7635800" lon="35.2241400">
<ele>751.229980</ele>
<time>2021-04-13T14:59:59.787Z</time>
</trkpt>
<trkpt lat="31.7637400" lon="35.2243100">
<ele>747.839966</ele>
<time>2021-04-13T14:59:59.787Z</time>
</trkpt>
<trkpt lat="31.7638600" lon="35.2244000">
<ele>745.649963</ele>
<time>2021-04-13T14:59:59.787Z</time>
</trkpt>
<trkpt lat="31.7640000" lon="35.2244600">
<ele>744.900024</ele>
<time>2021-04-13T14:59:59.787Z</time>
</trkpt>
<trkpt lat="31.7641400" lon="35.2245200">
<ele>744.239990</ele>
<time>2021-04-13T14:59:59.787Z</time>
</trkpt>
<trkpt lat="31.7643300" lon="35.2245600">
<ele>742.580017</ele>
<time>2021-04-13T14:59:59.787Z</time>
</trkpt>
<trkpt lat="31.7644800" lon="35.2245900">
<ele>741.380005</ele>
<time>2021-04-13T14:59:59.787Z</time>
</trkpt>
<trkpt lat="31.7646500" lon="35.2245900">
<ele>741.150024</ele>
<time>2021-04-13T14:59:59.788Z</time>
</trkpt>
<trkpt lat="31.7647700" lon="35.2245700">
<ele>741.400024</ele>
<time>2021-04-13T14:59:59.788Z</time>
</trkpt>
<trkpt lat="31.7649200" lon="35.2245300">
<ele>742.479980</ele>
<time>2021-04-13T14:59:59.788Z</time>
</trkpt>
<trkpt lat="31.7654300" lon="35.2244100">
<ele>744.929993</ele>
<time>2021-04-13T14:59:59.788Z</time>
</trkpt>
<trkpt lat="31.7657800" lon="35.2243300">
<ele>743.609985</ele>
<time>2021-04-13T14:59:59.788Z</time>
</trkpt>
<trkpt lat="31.7659800" lon="35.2243000">
<ele>742.650024</ele>
<time>2021-04-13T14:59:59.788Z</time>
</trkpt>
<trkpt lat="31.7663200" lon="35.2242200">
<ele>742.790039</ele>
<time>2021-04-13T14:59:59.788Z</time>
</trkpt>
<trkpt lat="31.7668000" lon="35.2241200">
<ele>740.280029</ele>
<time>2021-04-13T14:59:59.788Z</time>
</trkpt>
<trkpt lat="31.7668500" lon="35.2241100">
<ele>740.230042</ele>
<time>2021-04-13T14:59:59.788Z</time>
</trkpt>
<trkpt lat="31.7671900" lon="35.2240700">
<ele>742.160034</ele>
<time>2021-04-13T14:59:59.788Z</time>
</trkpt>
<trkpt lat="31.7674800" lon="35.2240300">
<ele>741.109985</ele>
<time>2021-04-13T14:59:59.788Z</time>
</trkpt>
<trkpt lat="31.7676900" lon="35.2240000">
<ele>740.029968</ele>
<time>2021-04-13T14:59:59.788Z</time>
</trkpt>
<trkpt lat="31.7677400" lon="35.2240000">
<ele>739.669983</ele>
<time>2021-04-13T14:59:59.788Z</time>
</trkpt>
<trkpt lat="31.7679600" lon="35.2239700">
<ele>738.169983</ele>
<time>2021-04-13T14:59:59.788Z</time>
</trkpt>
<trkpt lat="31.7681000" lon="35.2239400">
<ele>737.500000</ele>
<time>2021-04-13T14:59:59.788Z</time>
</trkpt>
<trkpt lat="31.7681800" lon="35.2239100">
<ele>737.570007</ele>
<time>2021-04-13T14:59:59.788Z</time>
</trkpt>
<trkpt lat="31.7681900" lon="35.2239000">
<ele>737.540039</ele>
<time>2021-04-13T14:59:59.788Z</time>
</trkpt>
<trkpt lat="31.7682600" lon="35.2239200">
<ele>737.880005</ele>
<time>2021-04-13T14:59:59.788Z</time>
</trkpt>
<trkpt lat="31.7683900" lon="35.2239500">
<ele>739.039978</ele>
<time>2021-04-13T14:59:59.788Z</time>
</trkpt>
<trkpt lat="31.7689800" lon="35.2241100">
<ele>744.130005</ele>
<time>2021-04-13T14:59:59.788Z</time>
</trkpt>
<trkpt lat="31.7690600" lon="35.2241500">
<ele>744.070007</ele>
<time>2021-04-13T14:59:59.788Z</time>
</trkpt>
<trkpt lat="31.7693000" lon="35.2242600">
<ele>744.500000</ele>
<time>2021-04-13T14:59:59.788Z</time>
</trkpt>
<trkpt lat="31.7693400" lon="35.2242800">
<ele>744.660034</ele>
<time>2021-04-13T14:59:59.788Z</time>
</trkpt>
<trkpt lat="31.7693400" lon="35.2242800">
<ele>744.660034</ele>
<time>2021-04-13T14:59:59.789Z</time>
</trkpt>
<trkpt lat="31.7693500" lon="35.2242800">
<ele>744.679993</ele>
<time>2021-04-13T14:59:59.789Z</time>
</trkpt>
<trkpt lat="31.7693700" lon="35.2242600">
<ele>744.579956</ele>
<time>2021-04-13T14:59:59.789Z</time>
</trkpt>
<trkpt lat="31.7694000" lon="35.2242200">
<ele>744.350037</ele>
<time>2021-04-13T14:59:59.789Z</time>
</trkpt>
<trkpt lat="31.7694000" lon="35.2242800">
<ele>744.750000</ele>
<time>2021-04-13T14:59:59.789Z</time>
</trkpt>
<trkpt lat="31.7694000" lon="35.2243300">
<ele>745.080017</ele>
<time>2021-04-13T14:59:59.789Z</time>
</trkpt>
<trkpt lat="31.7694100" lon="35.2243900">
<ele>745.510010</ele>
<time>2021-04-13T14:59:59.789Z</time>
</trkpt>
<trkpt lat="31.7694300" lon="35.2243800">
<ele>745.500000</ele>
<time>2021-04-13T14:59:59.789Z</time>
</trkpt>
<trkpt lat="31.7697100" lon="35.2244700">
<ele>745.039978</ele>
<time>2021-04-13T14:59:59.789Z</time>
</trkpt>
<trkpt lat="31.7697100" lon="35.2245100">
<ele>745.030029</ele>
<time>2021-04-13T14:59:59.789Z</time>
</trkpt>
<trkpt lat="31.7697300" lon="35.2245500">
<ele>745.010010</ele>
<time>2021-04-13T14:59:59.789Z</time>
</trkpt>
<trkpt lat="31.7697600" lon="35.2245700">
<ele>745.010010</ele>
<time>2021-04-13T14:59:59.789Z</time>
</trkpt>
<trkpt lat="31.7697900" lon="35.2245900">
<ele>744.989990</ele>
<time>2021-04-13T14:59:59.789Z</time>
</trkpt>
<trkpt lat="31.7698300" lon="35.2245900">
<ele>744.980042</ele>
<time>2021-04-13T14:59:59.789Z</time>
</trkpt>
<trkpt lat="31.7698600" lon="35.2245800">
<ele>745.010010</ele>
<time>2021-04-13T14:59:59.789Z</time>
</trkpt>
<trkpt lat="31.7698900" lon="35.2245600">
<ele>745.099976</ele>
<time>2021-04-13T14:59:59.789Z</time>
</trkpt>
<trkpt lat="31.7699100" lon="35.2245300">
<ele>745.260010</ele>
<time>2021-04-13T14:59:59.789Z</time>
</trkpt>
<trkpt lat="31.7699200" lon="35.2244900">
<ele>745.479980</ele>
<time>2021-04-13T14:59:59.789Z</time>
</trkpt>
<trkpt lat="31.7700400" lon="35.2244100">
<ele>746.490051</ele>
<time>2021-04-13T14:59:59.789Z</time>
</trkpt>
<trkpt lat="31.7701800" lon="35.2241300">
<ele>748.500000</ele>
<time>2021-04-13T14:59:59.790Z</time>
</trkpt>
<trkpt lat="31.7702700" lon="35.2240200">
<ele>748.760010</ele>
<time>2021-04-13T14:59:59.790Z</time>
</trkpt>
<trkpt lat="31.7703800" lon="35.2239800">
<ele>749.419983</ele>
<time>2021-04-13T14:59:59.790Z</time>
</trkpt>
<trkpt lat="31.7706100" lon="35.2240200">
<ele>751.179993</ele>
<time>2021-04-13T14:59:59.790Z</time>
</trkpt>
<trkpt lat="31.7706900" lon="35.2240100">
<ele>750.740051</ele>
<time>2021-04-13T14:59:59.790Z</time>
</trkpt>
<trkpt lat="31.7707800" lon="35.2239400">
<ele>750.229980</ele>
<time>2021-04-13T14:59:59.790Z</time>
</trkpt>
<trkpt lat="31.7710300" lon="35.2236700">
<ele>751.190002</ele>
<time>2021-04-13T14:59:59.790Z</time>
</trkpt>
<trkpt lat="31.7711000" lon="35.2235300">
<ele>750.740051</ele>
<time>2021-04-13T14:59:59.790Z</time>
</trkpt>
<trkpt lat="31.7712000" lon="35.2235100">
<ele>753.020020</ele>
<time>2021-04-13T14:59:59.790Z</time>
</trkpt>
<trkpt lat="31.7713400" lon="35.2235600">
<ele>757.339966</ele>
<time>2021-04-13T14:59:59.790Z</time>
</trkpt>
<trkpt lat="31.7714800" lon="35.2235700">
<ele>759.789978</ele>
<time>2021-04-13T14:59:59.790Z</time>
</trkpt>
<trkpt lat="31.7715900" lon="35.2235600">
<ele>761.069946</ele>
<time>2021-04-13T14:59:59.790Z</time>
</trkpt>
<trkpt lat="31.7718500" lon="35.2235100">
<ele>761.820007</ele>
<time>2021-04-13T14:59:59.790Z</time>
</trkpt>
<trkpt lat="31.7723600" lon="35.2234600">
<ele>765.769958</ele>
<time>2021-04-13T14:59:59.790Z</time>
</trkpt>
<trkpt lat="31.7723900" lon="35.2235000">
<ele>765.850037</ele>
<time>2021-04-13T14:59:59.790Z</time>
</trkpt>
<trkpt lat="31.7724100" lon="35.2235100">
<ele>765.919983</ele>
<time>2021-04-13T14:59:59.790Z</time>
</trkpt>
<trkpt lat="31.7724400" lon="35.2235200">
<ele>766.040039</ele>
<time>2021-04-13T14:59:59.790Z</time>
</trkpt>
<trkpt lat="31.7724700" lon="35.2235100">
<ele>766.220032</ele>
<time>2021-04-13T14:59:59.790Z</time>
</trkpt>
<trkpt lat="31.7725000" lon="35.2235700">
<ele>766.150024</ele>
<time>2021-04-13T14:59:59.790Z</time>
</trkpt>
<trkpt lat="31.7726000" lon="35.2236600">
<ele>764.979980</ele>
<time>2021-04-13T14:59:59.790Z</time>
</trkpt>
<trkpt lat="31.7726000" lon="35.2236600">
<ele>764.979980</ele>
<time>2021-04-13T14:59:59.790Z</time>
</trkpt>
<trkpt lat="31.7726300" lon="35.2236900">
<ele>764.510010</ele>
<time>2021-04-13T14:59:59.791Z</time>
</trkpt>
<trkpt lat="31.7726800" lon="35.2238400">
<ele>762.809998</ele>
<time>2021-04-13T14:59:59.791Z</time>
</trkpt>
<trkpt lat="31.7727800" lon="35.2239200">
<ele>760.900024</ele>
<time>2021-04-13T14:59:59.791Z</time>
</trkpt>
<trkpt lat="31.7730000" lon="35.2239700">
<ele>761.739990</ele>
<time>2021-04-13T14:59:59.791Z</time>
</trkpt>
<trkpt lat="31.7731700" lon="35.2239000">
<ele>761.950012</ele>
<time>2021-04-13T14:59:59.791Z</time>
</trkpt>
<trkpt lat="31.7733400" lon="35.2238700">
<ele>762.250061</ele>
<time>2021-04-13T14:59:59.791Z</time>
</trkpt>
<trkpt lat="31.7735100" lon="35.2239200">
<ele>762.789978</ele>
<time>2021-04-13T14:59:59.791Z</time>
</trkpt>
<trkpt lat="31.7738000" lon="35.2239500">
<ele>763.880005</ele>
<time>2021-04-13T14:59:59.791Z</time>
</trkpt>
<trkpt lat="31.7740400" lon="35.2240000">
<ele>764.669983</ele>
<time>2021-04-13T14:59:59.791Z</time>
</trkpt>
<trkpt lat="31.7741800" lon="35.2241000">
<ele>764.130005</ele>
<time>2021-04-13T14:59:59.791Z</time>
</trkpt>
<trkpt lat="31.7743600" lon="35.2243400">
<ele>765.780029</ele>
<time>2021-04-13T14:59:59.791Z</time>
</trkpt>
<trkpt lat="31.7743900" lon="35.2244800">
<ele>766.190002</ele>
<time>2021-04-13T14:59:59.791Z</time>
</trkpt>
<trkpt lat="31.7744000" lon="35.2247600">
<ele>765.809998</ele>
<time>2021-04-13T14:59:59.791Z</time>
</trkpt>
<trkpt lat="31.7746400" lon="35.2247700">
<ele>766.020020</ele>
<time>2021-04-13T14:59:59.791Z</time>
</trkpt>
<trkpt lat="31.7747100" lon="35.2247800">
<ele>765.819946</ele>
<time>2021-04-13T14:59:59.791Z</time>
</trkpt>
<trkpt lat="31.7748300" lon="35.2247800">
<ele>766.570007</ele>
<time>2021-04-13T14:59:59.791Z</time>
</trkpt>
<trkpt lat="31.7748700" lon="35.2247900">
<ele>766.820007</ele>
<time>2021-04-13T14:59:59.791Z</time>
</trkpt>
<trkpt lat="31.7749800" lon="35.2248000">
<ele>767.580017</ele>
<time>2021-04-13T14:59:59.791Z</time>
</trkpt>
<trkpt lat="31.7750500" lon="35.2247700">
<ele>767.680054</ele>
<time>2021-04-13T14:59:59.791Z</time>
</trkpt>
<trkpt lat="31.7751500" lon="35.2247600">
<ele>767.400024</ele>
<time>2021-04-13T14:59:59.791Z</time>
</trkpt>
<trkpt lat="31.7753600" lon="35.2247800">
<ele>766.109985</ele>
<time>2021-04-13T14:59:59.791Z</time>
</trkpt>
<trkpt lat="31.7754900" lon="35.2247800">
<ele>764.710022</ele>
<time>2021-04-13T14:59:59.791Z</time>
</trkpt>
<trkpt lat="31.7755600" lon="35.2247300">
<ele>763.900024</ele>
<time>2021-04-13T14:59:59.791Z</time>
</trkpt>
<trkpt lat="31.7756600" lon="35.2246100">
<ele>762.859985</ele>
<time>2021-04-13T14:59:59.791Z</time>
</trkpt>
<trkpt lat="31.7757800" lon="35.2244400">
<ele>762.839966</ele>
<time>2021-04-13T14:59:59.791Z</time>
</trkpt>
<trkpt lat="31.7758900" lon="35.2242900">
<ele>764.369995</ele>
<time>2021-04-13T14:59:59.791Z</time>
</trkpt>
<trkpt lat="31.7759600" lon="35.2242000">
<ele>765.489990</ele>
<time>2021-04-13T14:59:59.791Z</time>
</trkpt>
<trkpt lat="31.7760900" lon="35.2240200">
<ele>769.220032</ele>
<time>2021-04-13T14:59:59.791Z</time>
</trkpt>
<trkpt lat="31.7761200" lon="35.2239900">
<ele>770.080017</ele>
<time>2021-04-13T14:59:59.791Z</time>
</trkpt>
<trkpt lat="31.7762300" lon="35.2238700">
<ele>772.530029</ele>
<time>2021-04-13T14:59:59.791Z</time>
</trkpt>
<trkpt lat="31.7763900" lon="35.2237000">
<ele>771.989990</ele>
<time>2021-04-13T14:59:59.791Z</time>
</trkpt>
<trkpt lat="31.7765400" lon="35.2235500">
<ele>771.390015</ele>
<time>2021-04-13T14:59:59.791Z</time>
</trkpt>
<trkpt lat="31.7766300" lon="35.2233600">
<ele>773.400024</ele>
<time>2021-04-13T14:59:59.791Z</time>
</trkpt>
<trkpt lat="31.7767000" lon="35.2230300">
<ele>779.080017</ele>
<time>2021-04-13T14:59:59.791Z</time>
</trkpt>
<trkpt lat="31.7767600" lon="35.2226300">
<ele>783.500000</ele>
<time>2021-04-13T14:59:59.791Z</time>
</trkpt>
<trkpt lat="31.7768500" lon="35.2225600">
<ele>784.009949</ele>
<time>2021-04-13T14:59:59.791Z</time>
</trkpt>
<trkpt lat="31.7769500" lon="35.2225500">
<ele>784.449951</ele>
<time>2021-04-13T14:59:59.791Z</time>
</trkpt>
<trkpt lat="31.7771600" lon="35.2226600">
<ele>783.190002</ele>
<time>2021-04-13T14:59:59.791Z</time>
</trkpt>
<trkpt lat="31.7774800" lon="35.2227900">
<ele>779.510010</ele>
<time>2021-04-13T14:59:59.791Z</time>
</trkpt>
<trkpt lat="31.7775800" lon="35.2228300">
<ele>778.170044</ele>
<time>2021-04-13T14:59:59.791Z</time>
</trkpt>
<trkpt lat="31.7776400" lon="35.2228500">
<ele>777.369995</ele>
<time>2021-04-13T14:59:59.791Z</time>
</trkpt>
<trkpt lat="31.7777000" lon="35.2228700">
<ele>776.539978</ele>
<time>2021-04-13T14:59:59.791Z</time>
</trkpt>
<trkpt lat="31.7777500" lon="35.2228800">
<ele>775.799988</ele>
<time>2021-04-13T14:59:59.792Z</time>
</trkpt>
<trkpt lat="31.7778700" lon="35.2229100">
<ele>774.969971</ele>
<time>2021-04-13T14:59:59.792Z</time>
</trkpt>
<trkpt lat="31.7779900" lon="35.2229400">
<ele>774.500000</ele>
<time>2021-04-13T14:59:59.792Z</time>
</trkpt>
<trkpt lat="31.7780700" lon="35.2229900">
<ele>774.580017</ele>
<time>2021-04-13T14:59:59.792Z</time>
</trkpt>
<trkpt lat="31.7781400" lon="35.2230600">
<ele>775.350037</ele>
<time>2021-04-13T14:59:59.792Z</time>
</trkpt>
<trkpt lat="31.7782200" lon="35.2231800">
<ele>777.020020</ele>
<time>2021-04-13T14:59:59.792Z</time>
</trkpt>
<trkpt lat="31.7783200" lon="35.2233400">
<ele>779.929993</ele>
<time>2021-04-13T14:59:59.792Z</time>
</trkpt>
<trkpt lat="31.7784200" lon="35.2235200">
<ele>783.050049</ele>
<time>2021-04-13T14:59:59.792Z</time>
</trkpt>
<trkpt lat="31.7784700" lon="35.2237000">
<ele>784.640015</ele>
<time>2021-04-13T14:59:59.792Z</time>
</trkpt>
<trkpt lat="31.7785900" lon="35.2241000">
<ele>785.200012</ele>
<time>2021-04-13T14:59:59.792Z</time>
</trkpt>
<trkpt lat="31.7786600" lon="35.2243400">
<ele>786.000000</ele>
<time>2021-04-13T14:59:59.792Z</time>
</trkpt>
<trkpt lat="31.7787200" lon="35.2245600">
<ele>786.390015</ele>
<time>2021-04-13T14:59:59.792Z</time>
</trkpt>
<trkpt lat="31.7787900" lon="35.2247200">
<ele>786.640015</ele>
<time>2021-04-13T14:59:59.792Z</time>
</trkpt>
<trkpt lat="31.7788500" lon="35.2248500">
<ele>786.860046</ele>
<time>2021-04-13T14:59:59.792Z</time>
</trkpt>
<trkpt lat="31.7788900" lon="35.2249300">
<ele>787.000000</ele>
<time>2021-04-13T14:59:59.792Z</time>
</trkpt>
<trkpt lat="31.7789000" lon="35.2249600">
<ele>786.990051</ele>
<time>2021-04-13T14:59:59.792Z</time>
</trkpt>
<trkpt lat="31.7789100" lon="35.2249700">
<ele>786.990051</ele>
<time>2021-04-13T14:59:59.792Z</time>
</trkpt>
<trkpt lat="31.7789200" lon="35.2250000">
<ele>787.000000</ele>
<time>2021-04-13T14:59:59.792Z</time>
</trkpt>
<trkpt lat="31.7789300" lon="35.2250300">
<ele>787.120056</ele>
<time>2021-04-13T14:59:59.792Z</time>
</trkpt>
<trkpt lat="31.7789900" lon="35.2251400">
<ele>787.689941</ele>
<time>2021-04-13T14:59:59.792Z</time>
</trkpt>
<trkpt lat="31.7790300" lon="35.2252000">
<ele>788.090027</ele>
<time>2021-04-13T14:59:59.792Z</time>
</trkpt>
<trkpt lat="31.7790200" lon="35.2252000">
<ele>788.059998</ele>
<time>2021-04-13T14:59:59.792Z</time>
</trkpt>
<trkpt lat="31.7790200" lon="35.2252000">
<ele>788.059998</ele>
<time>2021-04-13T14:59:59.792Z</time>
</trkpt>
<trkpt lat="31.7791300" lon="35.2254000">
<ele>789.809998</ele>
<time>2021-04-13T14:59:59.792Z</time>
</trkpt>
<trkpt lat="31.7793200" lon="35.2257500">
<ele>792.420044</ele>
<time>2021-04-13T14:59:59.792Z</time>
</trkpt>
<trkpt lat="31.7795100" lon="35.2261000">
<ele>792.080017</ele>
<time>2021-04-13T14:59:59.792Z</time>
</trkpt>
<trkpt lat="31.7797700" lon="35.2265500">
<ele>787.659973</ele>
<time>2021-04-13T14:59:59.792Z</time>
</trkpt>
<trkpt lat="31.7801000" lon="35.2271400">
<ele>777.899963</ele>
<time>2021-04-13T14:59:59.792Z</time>
</trkpt>
<trkpt lat="31.7802700" lon="35.2274800">
<ele>771.299988</ele>
<time>2021-04-13T14:59:59.793Z</time>
</trkpt>
<trkpt lat="31.7803700" lon="35.2276200">
<ele>769.989990</ele>
<time>2021-04-13T14:59:59.793Z</time>
</trkpt>
<trkpt lat="31.7804700" lon="35.2277700">
<ele>768.379944</ele>
<time>2021-04-13T14:59:59.793Z</time>
</trkpt>
<trkpt lat="31.7805700" lon="35.2278700">
<ele>766.409973</ele>
<time>2021-04-13T14:59:59.793Z</time>
</trkpt>
<trkpt lat="31.7806500" lon="35.2279500">
<ele>763.820007</ele>
<time>2021-04-13T14:59:59.793Z</time>
</trkpt>
<trkpt lat="31.7807500" lon="35.2280300">
<ele>760.869995</ele>
<time>2021-04-13T14:59:59.793Z</time>
</trkpt>
<trkpt lat="31.7808500" lon="35.2280700">
<ele>758.600037</ele>
<time>2021-04-13T14:59:59.793Z</time>
</trkpt>
<trkpt lat="31.7809800" lon="35.2281200">
<ele>756.139954</ele>
<time>2021-04-13T14:59:59.793Z</time>
</trkpt>
<trkpt lat="31.7811000" lon="35.2281500">
<ele>754.169983</ele>
<time>2021-04-13T14:59:59.793Z</time>
</trkpt>
<trkpt lat="31.7811600" lon="35.2281500">
<ele>753.469971</ele>
<time>2021-04-13T14:59:59.793Z</time>
</trkpt>
<trkpt lat="31.7812000" lon="35.2281600">
<ele>753.040039</ele>
<time>2021-04-13T14:59:59.793Z</time>
</trkpt>
<trkpt lat="31.7812400" lon="35.2281600">
<ele>752.609985</ele>
<time>2021-04-13T14:59:59.793Z</time>
</trkpt>
<trkpt lat="31.7814000" lon="35.2281500">
<ele>751.030029</ele>
<time>2021-04-13T14:59:59.793Z</time>
</trkpt>
<trkpt lat="31.7814500" lon="35.2281500">
<ele>751.149963</ele>
<time>2021-04-13T14:59:59.793Z</time>
</trkpt>
<trkpt lat="31.7814900" lon="35.2281500">
<ele>751.240051</ele>
<time>2021-04-13T14:59:59.793Z</time>
</trkpt>
<trkpt lat="31.7815600" lon="35.2281300">
<ele>751.450012</ele>
<time>2021-04-13T14:59:59.793Z</time>
</trkpt>
<trkpt lat="31.7816100" lon="35.2281300">
<ele>751.580017</ele>
<time>2021-04-13T14:59:59.793Z</time>
</trkpt>
<trkpt lat="31.7816800" lon="35.2281100">
<ele>751.779968</ele>
<time>2021-04-13T14:59:59.793Z</time>
</trkpt>
<trkpt lat="31.7817600" lon="35.2280800">
<ele>751.660034</ele>
<time>2021-04-13T14:59:59.793Z</time>
</trkpt>
<trkpt lat="31.7818700" lon="35.2280200">
<ele>751.200012</ele>
<time>2021-04-13T14:59:59.793Z</time>
</trkpt>
<trkpt lat="31.7820300" lon="35.2279200">
<ele>751.469971</ele>
<time>2021-04-13T14:59:59.793Z</time>
</trkpt>
<trkpt lat="31.7827500" lon="35.2275000">
<ele>753.799988</ele>
<time>2021-04-13T14:59:59.793Z</time>
</trkpt>
<trkpt lat="31.7828300" lon="35.2274400">
<ele>753.380005</ele>
<time>2021-04-13T14:59:59.793Z</time>
</trkpt>
<trkpt lat="31.7828900" lon="35.2274000">
<ele>753.300049</ele>
<time>2021-04-13T14:59:59.793Z</time>
</trkpt>
<trkpt lat="31.7829700" lon="35.2273700">
<ele>753.690002</ele>
<time>2021-04-13T14:59:59.793Z</time>
</trkpt>
<trkpt lat="31.7830000" lon="35.2273400">
<ele>753.640015</ele>
<time>2021-04-13T14:59:59.793Z</time>
</trkpt>
<trkpt lat="31.7830100" lon="35.2273400">
<ele>753.760010</ele>
<time>2021-04-13T14:59:59.793Z</time>
</trkpt>
<trkpt lat="31.7831000" lon="35.2273100">
<ele>754.489990</ele>
<time>2021-04-13T14:59:59.794Z</time>
</trkpt>
<trkpt lat="31.7831800" lon="35.2272900">
<ele>755.309998</ele>
<time>2021-04-13T14:59:59.794Z</time>
</trkpt>
<trkpt lat="31.7832200" lon="35.2272900">
<ele>755.809998</ele>
<time>2021-04-13T14:59:59.794Z</time>
</trkpt>
<trkpt lat="31.7832600" lon="35.2272800">
<ele>756.260010</ele>
<time>2021-04-13T14:59:59.794Z</time>
</trkpt>
<trkpt lat="31.7833400" lon="35.2272800">
<ele>757.370056</ele>
<time>2021-04-13T14:59:59.794Z</time>
</trkpt>
<trkpt lat="31.7834300" lon="35.2272900">
<ele>759.599976</ele>
<time>2021-04-13T14:59:59.794Z</time>
</trkpt>
<trkpt lat="31.7834600" lon="35.2272900">
<ele>760.320007</ele>
<time>2021-04-13T14:59:59.794Z</time>
</trkpt>
<trkpt lat="31.7835500" lon="35.2273100">
<ele>762.529968</ele>
<time>2021-04-13T14:59:59.794Z</time>
</trkpt>
<trkpt lat="31.7835700" lon="35.2273200">
<ele>763.020020</ele>
<time>2021-04-13T14:59:59.794Z</time>
</trkpt>
<trkpt lat="31.7836700" lon="35.2273400">
<ele>764.730042</ele>
<time>2021-04-13T14:59:59.794Z</time>
</trkpt>
<trkpt lat="31.7839400" lon="35.2273900">
<ele>768.269958</ele>
<time>2021-04-13T14:59:59.794Z</time>
</trkpt>
<trkpt lat="31.7841000" lon="35.2274100">
<ele>770.470032</ele>
<time>2021-04-13T14:59:59.794Z</time>
</trkpt>
<trkpt lat="31.7845600" lon="35.2275000">
<ele>770.750000</ele>
<time>2021-04-13T14:59:59.794Z</time>
</trkpt>
<trkpt lat="31.7847700" lon="35.2275400">
<ele>769.179993</ele>
<time>2021-04-13T14:59:59.794Z</time>
</trkpt>
<trkpt lat="31.7848500" lon="35.2275400">
<ele>768.269958</ele>
<time>2021-04-13T14:59:59.794Z</time>
</trkpt>
<trkpt lat="31.7849100" lon="35.2275400">
<ele>767.589966</ele>
<time>2021-04-13T14:59:59.794Z</time>
</trkpt>
<trkpt lat="31.7850300" lon="35.2275300">
<ele>766.409973</ele>
<time>2021-04-13T14:59:59.794Z</time>
</trkpt>
<trkpt lat="31.7852200" lon="35.2275000">
<ele>766.000000</ele>
<time>2021-04-13T14:59:59.794Z</time>
</trkpt>
<trkpt lat="31.7853900" lon="35.2274700">
<ele>766.400024</ele>
<time>2021-04-13T14:59:59.794Z</time>
</trkpt>
<trkpt lat="31.7855100" lon="35.2274500">
<ele>766.440002</ele>
<time>2021-04-13T14:59:59.794Z</time>
</trkpt>
<trkpt lat="31.7862100" lon="35.2272800">
<ele>772.640015</ele>
<time>2021-04-13T14:59:59.794Z</time>
</trkpt>
<trkpt lat="31.7862800" lon="35.2272700">
<ele>772.170044</ele>
<time>2021-04-13T14:59:59.794Z</time>
</trkpt>
<trkpt lat="31.7864000" lon="35.2272500">
<ele>771.260010</ele>
<time>2021-04-13T14:59:59.794Z</time>
</trkpt>
<trkpt lat="31.7866400" lon="35.2272000">
<ele>770.179993</ele>
<time>2021-04-13T14:59:59.794Z</time>
</trkpt>
<trkpt lat="31.7867500" lon="35.2271800">
<ele>770.329956</ele>
<time>2021-04-13T14:59:59.794Z</time>
</trkpt>
<trkpt lat="31.7869100" lon="35.2271500">
<ele>771.169983</ele>
<time>2021-04-13T14:59:59.794Z</time>
</trkpt>
<trkpt lat="31.7873200" lon="35.2270700">
<ele>769.709961</ele>
<time>2021-04-13T14:59:59.795Z</time>
</trkpt>
<trkpt lat="31.7874100" lon="35.2270500">
<ele>769.339966</ele>
<time>2021-04-13T14:59:59.795Z</time>
</trkpt>
<trkpt lat="31.7877100" lon="35.2269900">
<ele>759.919983</ele>
<time>2021-04-13T14:59:59.795Z</time>
</trkpt>
<trkpt lat="31.7879800" lon="35.2269200">
<ele>751.710022</ele>
<time>2021-04-13T14:59:59.795Z</time>
</trkpt>
<trkpt lat="31.7879900" lon="35.2269200">
<ele>751.510010</ele>
<time>2021-04-13T14:59:59.795Z</time>
</trkpt>
<trkpt lat="31.7883900" lon="35.2268300">
<ele>742.160034</ele>
<time>2021-04-13T14:59:59.795Z</time>
</trkpt>
<trkpt lat="31.7885700" lon="35.2268000">
<ele>741.190063</ele>
<time>2021-04-13T14:59:59.795Z</time>
</trkpt>
<trkpt lat="31.7888100" lon="35.2267600">
<ele>741.389954</ele>
<time>2021-04-13T14:59:59.795Z</time>
</trkpt>
<trkpt lat="31.7890600" lon="35.2267400">
<ele>742.470032</ele>
<time>2021-04-13T14:59:59.795Z</time>
</trkpt>
<trkpt lat="31.7893300" lon="35.2267200">
<ele>746.520020</ele>
<time>2021-04-13T14:59:59.795Z</time>
</trkpt>
<trkpt lat="31.7894100" lon="35.2267200">
<ele>748.359985</ele>
<time>2021-04-13T14:59:59.795Z</time>
</trkpt>
<trkpt lat="31.7895200" lon="35.2267100">
<ele>749.670044</ele>
<time>2021-04-13T14:59:59.795Z</time>
</trkpt>
<trkpt lat="31.7897900" lon="35.2266800">
<ele>750.179993</ele>
<time>2021-04-13T14:59:59.795Z</time>
</trkpt>
<trkpt lat="31.7898700" lon="35.2266800">
<ele>748.989990</ele>
<time>2021-04-13T14:59:59.795Z</time>
</trkpt>
<trkpt lat="31.7902500" lon="35.2266800">
<ele>742.589966</ele>
<time>2021-04-13T14:59:59.795Z</time>
</trkpt>
<trkpt lat="31.7911400" lon="35.2266100">
<ele>735.849976</ele>
<time>2021-04-13T14:59:59.795Z</time>
</trkpt>
<trkpt lat="31.7918500" lon="35.2265600">
<ele>738.000000</ele>
<time>2021-04-13T14:59:59.795Z</time>
</trkpt>
<trkpt lat="31.7925900" lon="35.2265100">
<ele>747.179993</ele>
<time>2021-04-13T14:59:59.795Z</time>
</trkpt>
<trkpt lat="31.7929900" lon="35.2265200">
<ele>753.579956</ele>
<time>2021-04-13T14:59:59.795Z</time>
</trkpt>
<trkpt lat="31.7932900" lon="35.2266000">
<ele>760.270020</ele>
<time>2021-04-13T14:59:59.795Z</time>
</trkpt>
<trkpt lat="31.7934400" lon="35.2266500">
<ele>764.059998</ele>
<time>2021-04-13T14:59:59.795Z</time>
</trkpt>
<trkpt lat="31.7937200" lon="35.2267600">
<ele>769.500000</ele>
<time>2021-04-13T14:59:59.795Z</time>
</trkpt>
<trkpt lat="31.7939300" lon="35.2268800">
<ele>771.100037</ele>
<time>2021-04-13T14:59:59.795Z</time>
</trkpt>
<trkpt lat="31.7940400" lon="35.2269300">
<ele>772.740051</ele>
<time>2021-04-13T14:59:59.795Z</time>
</trkpt>
<trkpt lat="31.7941600" lon="35.2270400">
<ele>775.549988</ele>
<time>2021-04-13T14:59:59.795Z</time>
</trkpt>
<trkpt lat="31.7942800" lon="35.2271300">
<ele>775.650024</ele>
<time>2021-04-13T14:59:59.795Z</time>
</trkpt>
<trkpt lat="31.7944100" lon="35.2272300">
<ele>774.390015</ele>
<time>2021-04-13T14:59:59.795Z</time>
</trkpt>
<trkpt lat="31.7945100" lon="35.2273300">
<ele>773.589966</ele>
<time>2021-04-13T14:59:59.796Z</time>
</trkpt>
<trkpt lat="31.7945800" lon="35.2274000">
<ele>772.859985</ele>
<time>2021-04-13T14:59:59.796Z</time>
</trkpt>
<trkpt lat="31.7946800" lon="35.2275200">
<ele>771.609985</ele>
<time>2021-04-13T14:59:59.796Z</time>
</trkpt>
<trkpt lat="31.7948200" lon="35.2277000">
<ele>772.720032</ele>
<time>2021-04-13T14:59:59.796Z</time>
</trkpt>
<trkpt lat="31.7958400" lon="35.2288700">
<ele>782.010010</ele>
<time>2021-04-13T14:59:59.796Z</time>
</trkpt>
<trkpt lat="31.7964900" lon="35.2296100">
<ele>783.919983</ele>
<time>2021-04-13T14:59:59.796Z</time>
</trkpt>
<trkpt lat="31.7972100" lon="35.2304400">
<ele>780.000000</ele>
<time>2021-04-13T14:59:59.796Z</time>
</trkpt>
<trkpt lat="31.7972100" lon="35.2304400">
<ele>780.000000</ele>
<time>2021-04-13T14:59:59.796Z</time>
</trkpt>
<trkpt lat="31.7972100" lon="35.2304400">
<ele>780.000000</ele>
<time>2021-04-13T14:59:59.796Z</time>
</trkpt>
<trkpt lat="31.7972800" lon="35.2305200">
<ele>780.000000</ele>
<time>2021-04-13T14:59:59.796Z</time>
</trkpt>
<trkpt lat="31.7974900" lon="35.2307600">
<ele>782.079956</ele>
<time>2021-04-13T14:59:59.796Z</time>
</trkpt>
<trkpt lat="31.7975700" lon="35.2306700">
<ele>781.739990</ele>
<time>2021-04-13T14:59:59.796Z</time>
</trkpt>
<trkpt lat="31.7976100" lon="35.2306100">
<ele>781.380005</ele>
<time>2021-04-13T14:59:59.796Z</time>
</trkpt>
<trkpt lat="31.7976400" lon="35.2305800">
<ele>781.269958</ele>
<time>2021-04-13T14:59:59.796Z</time>
</trkpt>
<trkpt lat="31.7976800" lon="35.2305300">
<ele>781.239990</ele>
<time>2021-04-13T14:59:59.796Z</time>
</trkpt>
<trkpt lat="31.7977800" lon="35.2304000">
<ele>781.449951</ele>
<time>2021-04-13T14:59:59.796Z</time>
</trkpt>
<trkpt lat="31.7978600" lon="35.2302700">
<ele>781.619995</ele>
<time>2021-04-13T14:59:59.796Z</time>
</trkpt>
<trkpt lat="31.7979100" lon="35.2301800">
<ele>782.299988</ele>
<time>2021-04-13T14:59:59.796Z</time>
</trkpt>
<trkpt lat="31.7979500" lon="35.2300900">
<ele>782.920044</ele>
<time>2021-04-13T14:59:59.796Z</time>
</trkpt>
<trkpt lat="31.7979600" lon="35.2299800">
<ele>783.409973</ele>
<time>2021-04-13T14:59:59.796Z</time>
</trkpt>
<trkpt lat="31.7979600" lon="35.2298500">
<ele>784.070007</ele>
<time>2021-04-13T14:59:59.796Z</time>
</trkpt>
<trkpt lat="31.7979800" lon="35.2298500">
<ele>783.940002</ele>
<time>2021-04-13T14:59:59.796Z</time>
</trkpt>
<trkpt lat="31.7980700" lon="35.2298300">
<ele>783.420044</ele>
<time>2021-04-13T14:59:59.796Z</time>
</trkpt>
<trkpt lat="31.7981300" lon="35.2298200">
<ele>783.459961</ele>
<time>2021-04-13T14:59:59.796Z</time>
</trkpt>
<trkpt lat="31.7981700" lon="35.2298400">
<ele>783.710022</ele>
<time>2021-04-13T14:59:59.796Z</time>
</trkpt>
<trkpt lat="31.7982100" lon="35.2298800">
<ele>784.280029</ele>
<time>2021-04-13T14:59:59.797Z</time>
</trkpt>
<trkpt lat="31.7982200" lon="35.2298900">
<ele>784.440002</ele>
<time>2021-04-13T14:59:59.797Z</time>
</trkpt>
<trkpt lat="31.7982200" lon="35.2298900">
<ele>784.440002</ele>
<time>2021-04-13T14:59:59.797Z</time>
</trkpt>
<trkpt lat="31.7982200" lon="35.2298900">
<ele>784.440002</ele>
<time>2021-04-13T14:59:59.797Z</time>
</trkpt>
<trkpt lat="31.7982300" lon="35.2299200">
<ele>784.869995</ele>
<time>2021-04-13T14:59:59.797Z</time>
</trkpt>
<trkpt lat="31.7982300" lon="35.2299800">
<ele>785.630066</ele>
<time>2021-04-13T14:59:59.797Z</time>
</trkpt>
<trkpt lat="31.7982200" lon="35.2300300">
<ele>785.669983</ele>
<time>2021-04-13T14:59:59.797Z</time>
</trkpt>
<trkpt lat="31.7981400" lon="35.2301700">
<ele>784.300049</ele>
<time>2021-04-13T14:59:59.797Z</time>
</trkpt>
<trkpt lat="31.7980800" lon="35.2302900">
<ele>783.219971</ele>
<time>2021-04-13T14:59:59.797Z</time>
</trkpt>
<trkpt lat="31.7980600" lon="35.2303400">
<ele>782.820007</ele>
<time>2021-04-13T14:59:59.797Z</time>
</trkpt>
<trkpt lat="31.7980400" lon="35.2304000">
<ele>782.500061</ele>
<time>2021-04-13T14:59:59.797Z</time>
</trkpt>
<trkpt lat="31.7980300" lon="35.2304500">
<ele>782.309998</ele>
<time>2021-04-13T14:59:59.798Z</time>
</trkpt>
<trkpt lat="31.7980100" lon="35.2305500">
<ele>782.010010</ele>
<time>2021-04-13T14:59:59.798Z</time>
</trkpt>
<trkpt lat="31.7980100" lon="35.2306300">
<ele>782.359985</ele>
<time>2021-04-13T14:59:59.798Z</time>
</trkpt>
<trkpt lat="31.7980200" lon="35.2307100">
<ele>782.700012</ele>
<time>2021-04-13T14:59:59.798Z</time>
</trkpt>
<trkpt lat="31.7980500" lon="35.2308100">
<ele>782.950012</ele>
<time>2021-04-13T14:59:59.798Z</time>
</trkpt>
<trkpt lat="31.7981000" lon="35.2309100">
<ele>784.250000</ele>
<time>2021-04-13T14:59:59.798Z</time>
</trkpt>
<trkpt lat="31.7981500" lon="35.2309700">
<ele>784.980042</ele>
<time>2021-04-13T14:59:59.798Z</time>
</trkpt>
<trkpt lat="31.7981700" lon="35.2310000">
<ele>785.240051</ele>
<time>2021-04-13T14:59:59.798Z</time>
</trkpt>
<trkpt lat="31.7982900" lon="35.2311100">
<ele>785.309998</ele>
<time>2021-04-13T14:59:59.798Z</time>
</trkpt>
<trkpt lat="31.7983400" lon="35.2311600">
<ele>785.480042</ele>
<time>2021-04-13T14:59:59.798Z</time>
</trkpt>
<trkpt lat="31.7985000" lon="35.2313300">
<ele>786.160034</ele>
<time>2021-04-13T14:59:59.798Z</time>
</trkpt>
<trkpt lat="31.7985400" lon="35.2313700">
<ele>786.310059</ele>
<time>2021-04-13T14:59:59.798Z</time>
</trkpt>
<trkpt lat="31.7988300" lon="35.2316300">
<ele>786.109985</ele>
<time>2021-04-13T14:59:59.798Z</time>
</trkpt>
<trkpt lat="31.7990000" lon="35.2317700">
<ele>785.889954</ele>
<time>2021-04-13T14:59:59.798Z</time>
</trkpt>
<trkpt lat="31.7993500" lon="35.2320500">
<ele>781.650024</ele>
<time>2021-04-13T14:59:59.799Z</time>
</trkpt>
<trkpt lat="31.7994800" lon="35.2321500">
<ele>781.419983</ele>
<time>2021-04-13T14:59:59.799Z</time>
</trkpt>
<trkpt lat="31.7995600" lon="35.2322200">
<ele>781.570007</ele>
<time>2021-04-13T14:59:59.799Z</time>
</trkpt>
<trkpt lat="31.7995800" lon="35.2322500">
<ele>781.609985</ele>
<time>2021-04-13T14:59:59.799Z</time>
</trkpt>
<trkpt lat="31.7995800" lon="35.2322500">
<ele>781.609985</ele>
<time>2021-04-13T14:59:59.799Z</time>
</trkpt>
<trkpt lat="31.7998300" lon="35.2324500">
<ele>786.520020</ele>
<time>2021-04-13T14:59:59.799Z</time>
</trkpt>
<trkpt lat="31.7998300" lon="35.2324500">
<ele>786.520020</ele>
<time>2021-04-13T14:59:59.799Z</time>
</trkpt>
<trkpt lat="31.8003000" lon="35.2327300">
<ele>798.039978</ele>
<time>2021-04-13T14:59:59.799Z</time>
</trkpt>
<trkpt lat="31.8003000" lon="35.2327300">
<ele>798.039978</ele>
<time>2021-04-13T14:59:59.799Z</time>
</trkpt>
<trkpt lat="31.8003000" lon="35.2327300">
<ele>798.039978</ele>
<time>2021-04-13T14:59:59.799Z</time>
</trkpt>
<trkpt lat="31.8004800" lon="35.2328100">
<ele>800.159973</ele>
<time>2021-04-13T14:59:59.799Z</time>
</trkpt>
<trkpt lat="31.8006500" lon="35.2329000">
<ele>801.690002</ele>
<time>2021-04-13T14:59:59.799Z</time>
</trkpt>
<trkpt lat="31.8007400" lon="35.2329700">
<ele>803.010010</ele>
<time>2021-04-13T14:59:59.799Z</time>
</trkpt>
<trkpt lat="31.8010100" lon="35.2332000">
<ele>807.929993</ele>
<time>2021-04-13T14:59:59.799Z</time>
</trkpt>
<trkpt lat="31.8015000" lon="35.2335300">
<ele>816.499939</ele>
<time>2021-04-13T14:59:59.799Z</time>
</trkpt>
<trkpt lat="31.8015800" lon="35.2335900">
<ele>817.809998</ele>
<time>2021-04-13T14:59:59.799Z</time>
</trkpt>
<trkpt lat="31.8021900" lon="35.2339600">
<ele>819.150024</ele>
<time>2021-04-13T14:59:59.799Z</time>
</trkpt>
<trkpt lat="31.8024400" lon="35.2341100">
<ele>819.790039</ele>
<time>2021-04-13T14:59:59.799Z</time>
</trkpt>
<trkpt lat="31.8027300" lon="35.2342200">
<ele>823.619995</ele>
<time>2021-04-13T14:59:59.799Z</time>
</trkpt>
<trkpt lat="31.8031400" lon="35.2343400">
<ele>820.239990</ele>
<time>2021-04-13T14:59:59.799Z</time>
</trkpt>
<trkpt lat="31.8033700" lon="35.2344000">
<ele>814.239990</ele>
<time>2021-04-13T14:59:59.799Z</time>
</trkpt>
<trkpt lat="31.8034300" lon="35.2342800">
<ele>811.119995</ele>
<time>2021-04-13T14:59:59.799Z</time>
</trkpt>
<trkpt lat="31.8034900" lon="35.2343100">
<ele>809.809998</ele>
<time>2021-04-13T14:59:59.799Z</time>
</trkpt>
<trkpt lat="31.8035800" lon="35.2343600">
<ele>807.599976</ele>
<time>2021-04-13T14:59:59.799Z</time>
</trkpt>
<trkpt lat="31.8036900" lon="35.2343900">
<ele>805.100037</ele>
<time>2021-04-13T14:59:59.799Z</time>
</trkpt>
<trkpt lat="31.8037900" lon="35.2344100">
<ele>803.010010</ele>
<time>2021-04-13T14:59:59.799Z</time>
</trkpt>
<trkpt lat="31.8039100" lon="35.2344200">
<ele>800.390015</ele>
<time>2021-04-13T14:59:59.799Z</time>
</trkpt>
<trkpt lat="31.8040000" lon="35.2344200">
<ele>798.179993</ele>
<time>2021-04-13T14:59:59.799Z</time>
</trkpt>
<trkpt lat="31.8040500" lon="35.2344000">
<ele>796.969971</ele>
<time>2021-04-13T14:59:59.799Z</time>
</trkpt>
<trkpt lat="31.8041100" lon="35.2343600">
<ele>795.609985</ele>
<time>2021-04-13T14:59:59.799Z</time>
</trkpt>
<trkpt lat="31.8041500" lon="35.2343300">
<ele>794.779968</ele>
<time>2021-04-13T14:59:59.799Z</time>
</trkpt>
<trkpt lat="31.8042200" lon="35.2343200">
<ele>794.020020</ele>
<time>2021-04-13T14:59:59.799Z</time>
</trkpt>
<trkpt lat="31.8043000" lon="35.2343200">
<ele>793.390015</ele>
<time>2021-04-13T14:59:59.800Z</time>
</trkpt>
<trkpt lat="31.8044100" lon="35.2343100">
<ele>792.680054</ele>
<time>2021-04-13T14:59:59.800Z</time>
</trkpt>
<trkpt lat="31.8045000" lon="35.2343000">
<ele>792.690002</ele>
<time>2021-04-13T14:59:59.800Z</time>
</trkpt>
<trkpt lat="31.8045800" lon="35.2342600">
<ele>793.320007</ele>
<time>2021-04-13T14:59:59.800Z</time>
</trkpt>
<trkpt lat="31.8044500" lon="35.2342000">
<ele>794.390015</ele>
<time>2021-04-13T14:59:59.800Z</time>
</trkpt>
<trkpt lat="31.8044800" lon="35.2341100">
<ele>795.940002</ele>
<time>2021-04-13T14:59:59.800Z</time>
</trkpt>
<trkpt lat="31.8044800" lon="35.2341100">
<ele>795.940002</ele>
<time>2021-04-13T14:59:59.800Z</time>
</trkpt>
<trkpt lat="31.8045600" lon="35.2339200">
<ele>797.700012</ele>
<time>2021-04-13T14:59:59.800Z</time>
</trkpt>
<trkpt lat="31.8046000" lon="35.2338400">
<ele>797.430054</ele>
<time>2021-04-13T14:59:59.800Z</time>
</trkpt>
<trkpt lat="31.8046400" lon="35.2337900">
<ele>796.780029</ele>
<time>2021-04-13T14:59:59.800Z</time>
</trkpt>
<trkpt lat="31.8046700" lon="35.2337700">
<ele>796.169983</ele>
<time>2021-04-13T14:59:59.800Z</time>
</trkpt>
<trkpt lat="31.8047000" lon="35.2337600">
<ele>795.489990</ele>
<time>2021-04-13T14:59:59.801Z</time>
</trkpt>
<trkpt lat="31.8047800" lon="35.2337500">
<ele>794.060059</ele>
<time>2021-04-13T14:59:59.801Z</time>
</trkpt>
<trkpt lat="31.8046200" lon="35.2337000">
<ele>797.940002</ele>
<time>2021-04-13T14:59:59.801Z</time>
</trkpt>
<trkpt lat="31.8046100" lon="35.2336300">
<ele>798.690002</ele>
<time>2021-04-13T14:59:59.801Z</time>
</trkpt>
<trkpt lat="31.8046500" lon="35.2334700">
<ele>798.059998</ele>
<time>2021-04-13T14:59:59.801Z</time>
</trkpt>
<trkpt lat="31.8045700" lon="35.2332800">
<ele>799.360046</ele>
<time>2021-04-13T14:59:59.801Z</time>
</trkpt>
<trkpt lat="31.8044700" lon="35.2331000">
<ele>799.859985</ele>
<time>2021-04-13T14:59:59.801Z</time>
</trkpt>
<trkpt lat="31.8044600" lon="35.2328500">
<ele>796.719971</ele>
<time>2021-04-13T14:59:59.801Z</time>
</trkpt>
<trkpt lat="31.8044800" lon="35.2327800">
<ele>795.270020</ele>
<time>2021-04-13T14:59:59.801Z</time>
</trkpt>
<trkpt lat="31.8045800" lon="35.2327900">
<ele>793.269958</ele>
<time>2021-04-13T14:59:59.801Z</time>
</trkpt>
<trkpt lat="31.8047000" lon="35.2328300">
<ele>791.400024</ele>
<time>2021-04-13T14:59:59.801Z</time>
</trkpt>
<trkpt lat="31.8048100" lon="35.2327700">
<ele>787.309998</ele>
<time>2021-04-13T14:59:59.801Z</time>
</trkpt>
<trkpt lat="31.8048600" lon="35.2327000">
<ele>784.489990</ele>
<time>2021-04-13T14:59:59.801Z</time>
</trkpt>
<trkpt lat="31.8048500" lon="35.2326100">
<ele>782.970032</ele>
<time>2021-04-13T14:59:59.802Z</time>
</trkpt>
<trkpt lat="31.8048500" lon="35.2326100">
<ele>782.970032</ele>
<time>2021-04-13T14:59:59.802Z</time>
</trkpt>
<trkpt lat="31.8048500" lon="35.2326100">
<ele>782.970032</ele>
<time>2021-04-13T14:59:59.802Z</time>
</trkpt>
<trkpt lat="31.8048400" lon="35.2325600">
<ele>782.240051</ele>
<time>2021-04-13T14:59:59.802Z</time>
</trkpt>
<trkpt lat="31.8046200" lon="35.2323800">
<ele>786.019958</ele>
<time>2021-04-13T14:59:59.802Z</time>
</trkpt>
<trkpt lat="31.8046300" lon="35.2322200">
<ele>783.970032</ele>
<time>2021-04-13T14:59:59.802Z</time>
</trkpt>
<trkpt lat="31.8047200" lon="35.2321900">
<ele>780.950012</ele>
<time>2021-04-13T14:59:59.802Z</time>
</trkpt>
<trkpt lat="31.8048900" lon="35.2322900">
<ele>776.129944</ele>
<time>2021-04-13T14:59:59.802Z</time>
</trkpt>
<trkpt lat="31.8051100" lon="35.2322300">
<ele>769.919983</ele>
<time>2021-04-13T14:59:59.802Z</time>
</trkpt>
<trkpt lat="31.8053700" lon="35.2323000">
<ele>768.800049</ele>
<time>2021-04-13T14:59:59.802Z</time>
</trkpt>
<trkpt lat="31.8054400" lon="35.2322900">
<ele>769.109985</ele>
<time>2021-04-13T14:59:59.802Z</time>
</trkpt>
<trkpt lat="31.8055000" lon="35.2322000">
<ele>768.700012</ele>
<time>2021-04-13T14:59:59.802Z</time>
</trkpt>
<trkpt lat="31.8055000" lon="35.2320800">
<ele>768.190002</ele>
<time>2021-04-13T14:59:59.802Z</time>
</trkpt>
<trkpt lat="31.8054200" lon="35.2320100">
<ele>767.380005</ele>
<time>2021-04-13T14:59:59.802Z</time>
</trkpt>
<trkpt lat="31.8052800" lon="35.2319900">
<ele>766.339966</ele>
<time>2021-04-13T14:59:59.802Z</time>
</trkpt>
<trkpt lat="31.8052000" lon="35.2319600">
<ele>767.219971</ele>
<time>2021-04-13T14:59:59.802Z</time>
</trkpt>
<trkpt lat="31.8051900" lon="35.2318800">
<ele>766.870056</ele>
<time>2021-04-13T14:59:59.802Z</time>
</trkpt>
<trkpt lat="31.8053700" lon="35.2317800">
<ele>765.280029</ele>
<time>2021-04-13T14:59:59.802Z</time>
</trkpt>
<trkpt lat="31.8054000" lon="35.2316600">
<ele>764.380005</ele>
<time>2021-04-13T14:59:59.802Z</time>
</trkpt>
<trkpt lat="31.8054200" lon="35.2316100">
<ele>764.000000</ele>
<time>2021-04-13T14:59:59.802Z</time>
</trkpt>
<trkpt lat="31.8051600" lon="35.2314300">
<ele>764.780029</ele>
<time>2021-04-13T14:59:59.802Z</time>
</trkpt>
<trkpt lat="31.8051600" lon="35.2314300">
<ele>764.780029</ele>
<time>2021-04-13T14:59:59.802Z</time>
</trkpt>
<trkpt lat="31.8051400" lon="35.2313200">
<ele>764.730042</ele>
<time>2021-04-13T14:59:59.802Z</time>
</trkpt>
<trkpt lat="31.8051300" lon="35.2309600">
<ele>762.619995</ele>
<time>2021-04-13T14:59:59.802Z</time>
</trkpt>
<trkpt lat="31.8050300" lon="35.2300300">
<ele>752.199951</ele>
<time>2021-04-13T14:59:59.802Z</time>
</trkpt>
<trkpt lat="31.8050300" lon="35.2295800">
<ele>743.390015</ele>
<time>2021-04-13T14:59:59.802Z</time>
</trkpt>
<trkpt lat="31.8050500" lon="35.2292900">
<ele>740.169983</ele>
<time>2021-04-13T14:59:59.802Z</time>
</trkpt>
<trkpt lat="31.8050400" lon="35.2289000">
<ele>736.679993</ele>
<time>2021-04-13T14:59:59.802Z</time>
</trkpt>
<trkpt lat="31.8049600" lon="35.2283900">
<ele>732.440002</ele>
<time>2021-04-13T14:59:59.803Z</time>
</trkpt>
<trkpt lat="31.8047500" lon="35.2274600">
<ele>727.109985</ele>
<time>2021-04-13T14:59:59.803Z</time>
</trkpt>
<trkpt lat="31.8047000" lon="35.2271900">
<ele>724.570007</ele>
<time>2021-04-13T14:59:59.803Z</time>
</trkpt>
<trkpt lat="31.8046600" lon="35.2267600">
<ele>720.810059</ele>
<time>2021-04-13T14:59:59.803Z</time>
</trkpt>
<trkpt lat="31.8046400" lon="35.2266200">
<ele>720.110046</ele>
<time>2021-04-13T14:59:59.803Z</time>
</trkpt>
<trkpt lat="31.8045800" lon="35.2264700">
<ele>719.460022</ele>
<time>2021-04-13T14:59:59.803Z</time>
</trkpt>
<trkpt lat="31.8045300" lon="35.2263800">
<ele>718.979980</ele>
<time>2021-04-13T14:59:59.803Z</time>
</trkpt>
<trkpt lat="31.8042300" lon="35.2260300">
<ele>719.000000</ele>
<time>2021-04-13T14:59:59.803Z</time>
</trkpt>
<trkpt lat="31.8040700" lon="35.2258000">
<ele>718.000000</ele>
<time>2021-04-13T14:59:59.803Z</time>
</trkpt>
<trkpt lat="31.8040100" lon="35.2257100">
<ele>715.659973</ele>
<time>2021-04-13T14:59:59.803Z</time>
</trkpt>
<trkpt lat="31.8039700" lon="35.2255400">
<ele>711.219971</ele>
<time>2021-04-13T14:59:59.803Z</time>
</trkpt>
<trkpt lat="31.8039600" lon="35.2253400">
<ele>707.979980</ele>
<time>2021-04-13T14:59:59.803Z</time>
</trkpt>
<trkpt lat="31.8039900" lon="35.2250900">
<ele>706.289978</ele>
<time>2021-04-13T14:59:59.803Z</time>
</trkpt>
<trkpt lat="31.8042200" lon="35.2241000">
<ele>702.860046</ele>
<time>2021-04-13T14:59:59.803Z</time>
</trkpt>
<trkpt lat="31.8045300" lon="35.2232100">
<ele>694.270020</ele>
<time>2021-04-13T14:59:59.804Z</time>
</trkpt>
<trkpt lat="31.8045900" lon="35.2229600">
<ele>694.280029</ele>
<time>2021-04-13T14:59:59.804Z</time>
</trkpt>
<trkpt lat="31.8046700" lon="35.2224900">
<ele>694.190063</ele>
<time>2021-04-13T14:59:59.804Z</time>
</trkpt>
<trkpt lat="31.8047000" lon="35.2223000">
<ele>693.360046</ele>
<time>2021-04-13T14:59:59.804Z</time>
</trkpt>
<trkpt lat="31.8047200" lon="35.2220800">
<ele>691.460022</ele>
<time>2021-04-13T14:59:59.804Z</time>
</trkpt>
<trkpt lat="31.8048000" lon="35.2216100">
<ele>691.369995</ele>
<time>2021-04-13T14:59:59.804Z</time>
</trkpt>
<trkpt lat="31.8048300" lon="35.2205200">
<ele>683.539978</ele>
<time>2021-04-13T14:59:59.804Z</time>
</trkpt>
<trkpt lat="31.8048000" lon="35.2200200">
<ele>680.749939</ele>
<time>2021-04-13T14:59:59.804Z</time>
</trkpt>
<trkpt lat="31.8047900" lon="35.2196000">
<ele>681.780029</ele>
<time>2021-04-13T14:59:59.804Z</time>
</trkpt>
<trkpt lat="31.8048100" lon="35.2192600">
<ele>680.879944</ele>
<time>2021-04-13T14:59:59.804Z</time>
</trkpt>
<trkpt lat="31.8048300" lon="35.2191100">
<ele>679.510010</ele>
<time>2021-04-13T14:59:59.804Z</time>
</trkpt>
<trkpt lat="31.8049000" lon="35.2189400">
<ele>677.849976</ele>
<time>2021-04-13T14:59:59.804Z</time>
</trkpt>
<trkpt lat="31.8051600" lon="35.2184600">
<ele>676.640015</ele>
<time>2021-04-13T14:59:59.804Z</time>
</trkpt>
<trkpt lat="31.8052000" lon="35.2183100">
<ele>675.380005</ele>
<time>2021-04-13T14:59:59.804Z</time>
</trkpt>
<trkpt lat="31.8052200" lon="35.2182300">
<ele>674.529968</ele>
<time>2021-04-13T14:59:59.804Z</time>
</trkpt>
<trkpt lat="31.8052700" lon="35.2178900">
<ele>669.789978</ele>
<time>2021-04-13T14:59:59.804Z</time>
</trkpt>
<trkpt lat="31.8052700" lon="35.2172400">
<ele>667.229980</ele>
<time>2021-04-13T14:59:59.804Z</time>
</trkpt>
<trkpt lat="31.8053100" lon="35.2169600">
<ele>667.739990</ele>
<time>2021-04-13T14:59:59.804Z</time>
</trkpt>
<trkpt lat="31.8053700" lon="35.2167300">
<ele>666.559998</ele>
<time>2021-04-13T14:59:59.804Z</time>
</trkpt>
<trkpt lat="31.8056100" lon="35.2160800">
<ele>663.150024</ele>
<time>2021-04-13T14:59:59.804Z</time>
</trkpt>
<trkpt lat="31.8057500" lon="35.2154000">
<ele>655.979980</ele>
<time>2021-04-13T14:59:59.805Z</time>
</trkpt>
<trkpt lat="31.8058200" lon="35.2151300">
<ele>653.869995</ele>
<time>2021-04-13T14:59:59.805Z</time>
</trkpt>
<trkpt lat="31.8058800" lon="35.2147100">
<ele>651.909973</ele>
<time>2021-04-13T14:59:59.805Z</time>
</trkpt>
<trkpt lat="31.8059700" lon="35.2144400">
<ele>650.940002</ele>
<time>2021-04-13T14:59:59.805Z</time>
</trkpt>
<trkpt lat="31.8060600" lon="35.2142000">
<ele>649.549988</ele>
<time>2021-04-13T14:59:59.805Z</time>
</trkpt>
<trkpt lat="31.8063600" lon="35.2136700">
<ele>650.729980</ele>
<time>2021-04-13T14:59:59.805Z</time>
</trkpt>
<trkpt lat="31.8064500" lon="35.2134300">
<ele>655.450012</ele>
<time>2021-04-13T14:59:59.805Z</time>
</trkpt>
<trkpt lat="31.8066600" lon="35.2124300">
<ele>648.929993</ele>
<time>2021-04-13T14:59:59.805Z</time>
</trkpt>
<trkpt lat="31.8068000" lon="35.2119000">
<ele>646.639954</ele>
<time>2021-04-13T14:59:59.805Z</time>
</trkpt>
<trkpt lat="31.8069000" lon="35.2110800">
<ele>647.870056</ele>
<time>2021-04-13T14:59:59.805Z</time>
</trkpt>
<trkpt lat="31.8069500" lon="35.2108900">
<ele>649.679993</ele>
<time>2021-04-13T14:59:59.805Z</time>
</trkpt>
<trkpt lat="31.8070000" lon="35.2107900">
<ele>650.830017</ele>
<time>2021-04-13T14:59:59.805Z</time>
</trkpt>
<trkpt lat="31.8070900" lon="35.2106700">
<ele>652.399963</ele>
<time>2021-04-13T14:59:59.805Z</time>
</trkpt>
<trkpt lat="31.8072000" lon="35.2105400">
<ele>654.660034</ele>
<time>2021-04-13T14:59:59.805Z</time>
</trkpt>
<trkpt lat="31.8072300" lon="35.2104500">
<ele>655.440002</ele>
<time>2021-04-13T14:59:59.805Z</time>
</trkpt>
<trkpt lat="31.8072200" lon="35.2101900">
<ele>656.289978</ele>
<time>2021-04-13T14:59:59.805Z</time>
</trkpt>
<trkpt lat="31.8071700" lon="35.2099600">
<ele>656.650024</ele>
<time>2021-04-13T14:59:59.805Z</time>
</trkpt>
<trkpt lat="31.8070700" lon="35.2097700">
<ele>656.359985</ele>
<time>2021-04-13T14:59:59.806Z</time>
</trkpt>
<trkpt lat="31.8068500" lon="35.2094600">
<ele>656.809998</ele>
<time>2021-04-13T14:59:59.806Z</time>
</trkpt>
<trkpt lat="31.8067700" lon="35.2092800">
<ele>658.199951</ele>
<time>2021-04-13T14:59:59.806Z</time>
</trkpt>
<trkpt lat="31.8067700" lon="35.2092600">
<ele>658.450012</ele>
<time>2021-04-13T14:59:59.806Z</time>
</trkpt>
<trkpt lat="31.8067000" lon="35.2090500">
<ele>660.940002</ele>
<time>2021-04-13T14:59:59.806Z</time>
</trkpt>
<trkpt lat="31.8067500" lon="35.2089100">
<ele>661.359985</ele>
<time>2021-04-13T14:59:59.806Z</time>
</trkpt>
<trkpt lat="31.8067700" lon="35.2088400">
<ele>661.320007</ele>
<time>2021-04-13T14:59:59.806Z</time>
</trkpt>
<trkpt lat="31.8068000" lon="35.2087200">
<ele>661.210022</ele>
<time>2021-04-13T14:59:59.806Z</time>
</trkpt>
<trkpt lat="31.8068300" lon="35.2086400">
<ele>660.959961</ele>
<time>2021-04-13T14:59:59.806Z</time>
</trkpt>
<trkpt lat="31.8068900" lon="35.2085300">
<ele>660.510010</ele>
<time>2021-04-13T14:59:59.806Z</time>
</trkpt>
<trkpt lat="31.8070200" lon="35.2085500">
<ele>657.380005</ele>
<time>2021-04-13T14:59:59.806Z</time>
</trkpt>
<trkpt lat="31.8071200" lon="35.2087100">
<ele>654.039978</ele>
<time>2021-04-13T14:59:59.806Z</time>
</trkpt>
<trkpt lat="31.8072600" lon="35.2087700">
<ele>650.889954</ele>
<time>2021-04-13T14:59:59.806Z</time>
</trkpt>
<trkpt lat="31.8073600" lon="35.2087800">
<ele>649.130005</ele>
<time>2021-04-13T14:59:59.806Z</time>
</trkpt>
<trkpt lat="31.8075100" lon="35.2087300">
<ele>646.559998</ele>
<time>2021-04-13T14:59:59.806Z</time>
</trkpt>
<trkpt lat="31.8076000" lon="35.2086400">
<ele>647.510010</ele>
<time>2021-04-13T14:59:59.806Z</time>
</trkpt>
<trkpt lat="31.8076700" lon="35.2085300">
<ele>648.669983</ele>
<time>2021-04-13T14:59:59.806Z</time>
</trkpt>
<trkpt lat="31.8077000" lon="35.2084400">
<ele>649.219971</ele>
<time>2021-04-13T14:59:59.807Z</time>
</trkpt>
<trkpt lat="31.8077200" lon="35.2081200">
<ele>650.830017</ele>
<time>2021-04-13T14:59:59.807Z</time>
</trkpt>
<trkpt lat="31.8078300" lon="35.2075100">
<ele>648.589966</ele>
<time>2021-04-13T14:59:59.807Z</time>
</trkpt>
<trkpt lat="31.8078400" lon="35.2071300">
<ele>641.740051</ele>
<time>2021-04-13T14:59:59.807Z</time>
</trkpt>
<trkpt lat="31.8078200" lon="35.2068100">
<ele>636.829956</ele>
<time>2021-04-13T14:59:59.807Z</time>
</trkpt>
<trkpt lat="31.8077400" lon="35.2063900">
<ele>632.869995</ele>
<time>2021-04-13T14:59:59.807Z</time>
</trkpt>
<trkpt lat="31.8076500" lon="35.2062000">
<ele>631.809998</ele>
<time>2021-04-13T14:59:59.807Z</time>
</trkpt>
<trkpt lat="31.8075700" lon="35.2061000">
<ele>631.709961</ele>
<time>2021-04-13T14:59:59.807Z</time>
</trkpt>
<trkpt lat="31.8075000" lon="35.2060200">
<ele>631.670044</ele>
<time>2021-04-13T14:59:59.807Z</time>
</trkpt>
<trkpt lat="31.8073900" lon="35.2059400">
<ele>632.630066</ele>
<time>2021-04-13T14:59:59.807Z</time>
</trkpt>
<trkpt lat="31.8067200" lon="35.2056300">
<ele>641.260010</ele>
<time>2021-04-13T14:59:59.807Z</time>
</trkpt>
<trkpt lat="31.8065900" lon="35.2055500">
<ele>641.510010</ele>
<time>2021-04-13T14:59:59.807Z</time>
</trkpt>
<trkpt lat="31.8064700" lon="35.2054500">
<ele>641.320007</ele>
<time>2021-04-13T14:59:59.807Z</time>
</trkpt>
<trkpt lat="31.8063000" lon="35.2051900">
<ele>638.669983</ele>
<time>2021-04-13T14:59:59.807Z</time>
</trkpt>
<trkpt lat="31.8062600" lon="35.2049400">
<ele>636.160034</ele>
<time>2021-04-13T14:59:59.807Z</time>
</trkpt>
<trkpt lat="31.8062500" lon="35.2048300">
<ele>635.889954</ele>
<time>2021-04-13T14:59:59.807Z</time>
</trkpt>
<trkpt lat="31.8062400" lon="35.2043500">
<ele>631.560059</ele>
<time>2021-04-13T14:59:59.807Z</time>
</trkpt>
<trkpt lat="31.8062600" lon="35.2042700">
<ele>630.549988</ele>
<time>2021-04-13T14:59:59.807Z</time>
</trkpt>
<trkpt lat="31.8063100" lon="35.2041900">
<ele>629.500061</ele>
<time>2021-04-13T14:59:59.807Z</time>
</trkpt>
<trkpt lat="31.8063900" lon="35.2040900">
<ele>627.879944</ele>
<time>2021-04-13T14:59:59.808Z</time>
</trkpt>
<trkpt lat="31.8064300" lon="35.2038800">
<ele>624.289978</ele>
<time>2021-04-13T14:59:59.808Z</time>
</trkpt>
<trkpt lat="31.8064700" lon="35.2037200">
<ele>621.929993</ele>
<time>2021-04-13T14:59:59.808Z</time>
</trkpt>
<trkpt lat="31.8064800" lon="35.2036500">
<ele>621.090027</ele>
<time>2021-04-13T14:59:59.808Z</time>
</trkpt>
<trkpt lat="31.8062700" lon="35.2035600">
<ele>622.109985</ele>
<time>2021-04-13T14:59:59.808Z</time>
</trkpt>
<trkpt lat="31.8062200" lon="35.2034800">
<ele>621.630005</ele>
<time>2021-04-13T14:59:59.808Z</time>
</trkpt>
<trkpt lat="31.8061900" lon="35.2032200">
<ele>618.839966</ele>
<time>2021-04-13T14:59:59.808Z</time>
</trkpt>
<trkpt lat="31.8062600" lon="35.2031400">
<ele>618.500000</ele>
<time>2021-04-13T14:59:59.808Z</time>
</trkpt>
<trkpt lat="31.8063200" lon="35.2031700">
<ele>618.809998</ele>
<time>2021-04-13T14:59:59.808Z</time>
</trkpt>
<trkpt lat="31.8063100" lon="35.2032500">
<ele>619.030029</ele>
<time>2021-04-13T14:59:59.808Z</time>
</trkpt>
<trkpt lat="31.8063400" lon="35.2032100">
<ele>618.940002</ele>
<time>2021-04-13T14:59:59.808Z</time>
</trkpt>
<trkpt lat="31.8063700" lon="35.2031800">
<ele>618.959961</ele>
<time>2021-04-13T14:59:59.808Z</time>
</trkpt>
<trkpt lat="31.8064300" lon="35.2030800">
<ele>619.130005</ele>
<time>2021-04-13T14:59:59.808Z</time>
</trkpt>
<trkpt lat="31.8064800" lon="35.2029600">
<ele>619.210022</ele>
<time>2021-04-13T14:59:59.808Z</time>
</trkpt>
<trkpt lat="31.8065200" lon="35.2027500">
<ele>619.410034</ele>
<time>2021-04-13T14:59:59.808Z</time>
</trkpt>
<trkpt lat="31.8065100" lon="35.2025400">
<ele>619.200012</ele>
<time>2021-04-13T14:59:59.808Z</time>
</trkpt>
<trkpt lat="31.8064200" lon="35.2022100">
<ele>619.690002</ele>
<time>2021-04-13T14:59:59.808Z</time>
</trkpt>
<trkpt lat="31.8063000" lon="35.2019000">
<ele>620.669983</ele>
<time>2021-04-13T14:59:59.808Z</time>
</trkpt>
<trkpt lat="31.8062200" lon="35.2017100">
<ele>620.130005</ele>
<time>2021-04-13T14:59:59.808Z</time>
</trkpt>
<trkpt lat="31.8061000" lon="35.2015000">
<ele>619.690002</ele>
<time>2021-04-13T14:59:59.808Z</time>
</trkpt>
<trkpt lat="31.8056800" lon="35.2009100">
<ele>622.390015</ele>
<time>2021-04-13T14:59:59.808Z</time>
</trkpt>
<trkpt lat="31.8052700" lon="35.2004400">
<ele>624.260010</ele>
<time>2021-04-13T14:59:59.808Z</time>
</trkpt>
<trkpt lat="31.8048300" lon="35.2000700">
<ele>625.510010</ele>
<time>2021-04-13T14:59:59.808Z</time>
</trkpt>
<trkpt lat="31.8043400" lon="35.1997100">
<ele>620.739990</ele>
<time>2021-04-13T14:59:59.809Z</time>
</trkpt>
<trkpt lat="31.8039700" lon="35.1995000">
<ele>620.179993</ele>
<time>2021-04-13T14:59:59.809Z</time>
</trkpt>
<trkpt lat="31.8039600" lon="35.1994900">
<ele>620.179993</ele>
<time>2021-04-13T14:59:59.809Z</time>
</trkpt>
<trkpt lat="31.8037000" lon="35.1993100">
<ele>620.580017</ele>
<time>2021-04-13T14:59:59.809Z</time>
</trkpt>
<trkpt lat="31.8032400" lon="35.1990000">
<ele>622.119995</ele>
<time>2021-04-13T14:59:59.809Z</time>
</trkpt>
<trkpt lat="31.8029800" lon="35.1988400">
<ele>621.260010</ele>
<time>2021-04-13T14:59:59.809Z</time>
</trkpt>
<trkpt lat="31.8026700" lon="35.1987500">
<ele>618.029968</ele>
<time>2021-04-13T14:59:59.809Z</time>
</trkpt>
<trkpt lat="31.8022600" lon="35.1987000">
<ele>615.309998</ele>
<time>2021-04-13T14:59:59.809Z</time>
</trkpt>
<trkpt lat="31.8021100" lon="35.1986700">
<ele>616.109985</ele>
<time>2021-04-13T14:59:59.809Z</time>
</trkpt>
<trkpt lat="31.8020000" lon="35.1986300">
<ele>616.809998</ele>
<time>2021-04-13T14:59:59.809Z</time>
</trkpt>
<trkpt lat="31.8012800" lon="35.1981200">
<ele>625.540039</ele>
<time>2021-04-13T14:59:59.809Z</time>
</trkpt>
<trkpt lat="31.8011100" lon="35.1980400">
<ele>624.099976</ele>
<time>2021-04-13T14:59:59.809Z</time>
</trkpt>
<trkpt lat="31.8010000" lon="35.1979500">
<ele>623.200012</ele>
<time>2021-04-13T14:59:59.809Z</time>
</trkpt>
<trkpt lat="31.8008700" lon="35.1978000">
<ele>620.109985</ele>
<time>2021-04-13T14:59:59.809Z</time>
</trkpt>
<trkpt lat="31.8007800" lon="35.1976400">
<ele>619.000000</ele>
<time>2021-04-13T14:59:59.809Z</time>
</trkpt>
<trkpt lat="31.8007200" lon="35.1975400">
<ele>619.000000</ele>
<time>2021-04-13T14:59:59.809Z</time>
</trkpt>
<trkpt lat="31.8003700" lon="35.1970100">
<ele>618.429993</ele>
<time>2021-04-13T14:59:59.809Z</time>
</trkpt>
<trkpt lat="31.8001600" lon="35.1966800">
<ele>617.029968</ele>
<time>2021-04-13T14:59:59.809Z</time>
</trkpt>
<trkpt lat="31.7998900" lon="35.1963000">
<ele>615.849976</ele>
<time>2021-04-13T14:59:59.809Z</time>
</trkpt>
<trkpt lat="31.7995700" lon="35.1957600">
<ele>614.209961</ele>
<time>2021-04-13T14:59:59.809Z</time>
</trkpt>
<trkpt lat="31.7993200" lon="35.1954100">
<ele>612.900024</ele>
<time>2021-04-13T14:59:59.809Z</time>
</trkpt>
<trkpt lat="31.7991500" lon="35.1952600">
<ele>613.880005</ele>
<time>2021-04-13T14:59:59.809Z</time>
</trkpt>
<trkpt lat="31.7990800" lon="35.1951300">
<ele>613.160034</ele>
<time>2021-04-13T14:59:59.809Z</time>
</trkpt>
<trkpt lat="31.7989500" lon="35.1948000">
<ele>610.380005</ele>
<time>2021-04-13T14:59:59.809Z</time>
</trkpt>
<trkpt lat="31.7988300" lon="35.1943400">
<ele>605.869995</ele>
<time>2021-04-13T14:59:59.810Z</time>
</trkpt>
<trkpt lat="31.7987900" lon="35.1940700">
<ele>603.750000</ele>
<time>2021-04-13T14:59:59.810Z</time>
</trkpt>
<trkpt lat="31.7988000" lon="35.1940300">
<ele>603.690002</ele>
<time>2021-04-13T14:59:59.810Z</time>
</trkpt>
<trkpt lat="31.7988000" lon="35.1940300">
<ele>603.690002</ele>
<time>2021-04-13T14:59:59.810Z</time>
</trkpt>
<trkpt lat="31.7987900" lon="35.1940700">
<ele>603.750000</ele>
<time>2021-04-13T14:59:59.810Z</time>
</trkpt>
<trkpt lat="31.7988100" lon="35.1939800">
<ele>603.619995</ele>
<time>2021-04-13T14:59:59.810Z</time>
</trkpt>
<trkpt lat="31.7987800" lon="35.1937300">
<ele>604.010010</ele>
<time>2021-04-13T14:59:59.810Z</time>
</trkpt>
<trkpt lat="31.7987800" lon="35.1934300">
<ele>605.000000</ele>
<time>2021-04-13T14:59:59.810Z</time>
</trkpt>
<trkpt lat="31.7988800" lon="35.1928400">
<ele>605.070007</ele>
<time>2021-04-13T14:59:59.810Z</time>
</trkpt>
<trkpt lat="31.7989000" lon="35.1920300">
<ele>609.299988</ele>
<time>2021-04-13T14:59:59.810Z</time>
</trkpt>
<trkpt lat="31.7989900" lon="35.1918000">
<ele>611.630005</ele>
<time>2021-04-13T14:59:59.810Z</time>
</trkpt>
<trkpt lat="31.7990500" lon="35.1913800">
<ele>608.020020</ele>
<time>2021-04-13T14:59:59.810Z</time>
</trkpt>
<trkpt lat="31.7990700" lon="35.1913000">
<ele>606.910034</ele>
<time>2021-04-13T14:59:59.810Z</time>
</trkpt>
<trkpt lat="31.7991600" lon="35.1911700">
<ele>605.779968</ele>
<time>2021-04-13T14:59:59.810Z</time>
</trkpt>
<trkpt lat="31.7993600" lon="35.1910300">
<ele>603.739990</ele>
<time>2021-04-13T14:59:59.810Z</time>
</trkpt>
<trkpt lat="31.7995100" lon="35.1909900">
<ele>603.390015</ele>
<time>2021-04-13T14:59:59.810Z</time>
</trkpt>
<trkpt lat="31.7995900" lon="35.1909400">
<ele>602.739990</ele>
<time>2021-04-13T14:59:59.810Z</time>
</trkpt>
<trkpt lat="31.7998800" lon="35.1909000">
<ele>602.900024</ele>
<time>2021-04-13T14:59:59.810Z</time>
</trkpt>
<trkpt lat="31.8003500" lon="35.1908900">
<ele>602.479980</ele>
<time>2021-04-13T14:59:59.810Z</time>
</trkpt>
<trkpt lat="31.8004600" lon="35.1908800">
<ele>602.290039</ele>
<time>2021-04-13T14:59:59.810Z</time>
</trkpt>
<trkpt lat="31.8006400" lon="35.1908100">
<ele>602.049988</ele>
<time>2021-04-13T14:59:59.811Z</time>
</trkpt>
<trkpt lat="31.8008600" lon="35.1906600">
<ele>602.170044</ele>
<time>2021-04-13T14:59:59.811Z</time>
</trkpt>
<trkpt lat="31.8009800" lon="35.1905100">
<ele>601.419983</ele>
<time>2021-04-13T14:59:59.811Z</time>
</trkpt>
<trkpt lat="31.8010400" lon="35.1904000">
<ele>600.530029</ele>
<time>2021-04-13T14:59:59.811Z</time>
</trkpt>
<trkpt lat="31.8011700" lon="35.1901200">
<ele>598.119995</ele>
<time>2021-04-13T14:59:59.811Z</time>
</trkpt>
<trkpt lat="31.8012000" lon="35.1900600">
<ele>597.750000</ele>
<time>2021-04-13T14:59:59.811Z</time>
</trkpt>
<trkpt lat="31.8011700" lon="35.1900400">
<ele>597.130005</ele>
<time>2021-04-13T14:59:59.811Z</time>
</trkpt>
<trkpt lat="31.8011400" lon="35.1901000">
<ele>597.469971</ele>
<time>2021-04-13T14:59:59.811Z</time>
</trkpt>
<trkpt lat="31.8009000" lon="35.1899500">
<ele>594.119995</ele>
<time>2021-04-13T14:59:59.811Z</time>
</trkpt>
<trkpt lat="31.8008000" lon="35.1898900">
<ele>593.179993</ele>
<time>2021-04-13T14:59:59.811Z</time>
</trkpt>
<trkpt lat="31.8006800" lon="35.1898100">
<ele>592.840027</ele>
<time>2021-04-13T14:59:59.811Z</time>
</trkpt>
<trkpt lat="31.8006500" lon="35.1898600">
<ele>593.000000</ele>
<time>2021-04-13T14:59:59.811Z</time>
</trkpt>
<trkpt lat="31.8004800" lon="35.1900100">
<ele>593.619995</ele>
<time>2021-04-13T14:59:59.811Z</time>
</trkpt>
</trkseg>
</trk>
</gpx>
